<?xml version="1.0" encoding="UTF-8" standalone="no" ?>
<gpx xmlns="http://www.topografix.com/GPX/1/1" xmlns:xsi="http://www.w3.org/2001/XMLSchema-instance" xsi:schemaLocation="http://www.topografix.com/GPX/1/1 http://www.topografix.com/GPX/1/1/gpx.xsd" version="1.1" creator="VisuGPX - https://www.visugpx.com">
  <metadata>
    <name>Trail des citadelles 2013</name>
    <desc><![CDATA[Trail des citadelles 2013]]></desc>
  </metadata>
  <trk>
    <name><![CDATA[Trail]]></name>
    <cmt><![CDATA[Trail des citadelles - 109 ème/360. 8ème V2]]></cmt>
    <trkseg>
      <trkpt lat="42.93447" lon="1.84951">
        <ele>521.17199707031</ele>
        <time>2013-03-31T07:29:50Z</time>
      </trkpt>
      <trkpt lat="42.93446" lon="1.8495">
        <ele>522.13317871094</ele>
        <time>2013-03-31T07:29:54Z</time>
      </trkpt>
      <trkpt lat="42.93432" lon="1.84942">
        <ele>523.5751953125</ele>
        <time>2013-03-31T07:29:59Z</time>
      </trkpt>
      <trkpt lat="42.93418" lon="1.84935">
        <ele>524.53649902344</ele>
        <time>2013-03-31T07:30:03Z</time>
      </trkpt>
      <trkpt lat="42.93408" lon="1.84928">
        <ele>525.49780273438</ele>
        <time>2013-03-31T07:30:06Z</time>
      </trkpt>
      <trkpt lat="42.93395" lon="1.8492">
        <ele>525.97839355469</ele>
        <time>2013-03-31T07:30:10Z</time>
      </trkpt>
      <trkpt lat="42.93383" lon="1.84912">
        <ele>527.42041015625</ele>
        <time>2013-03-31T07:30:14Z</time>
      </trkpt>
      <trkpt lat="42.93373" lon="1.84903">
        <ele>527.90100097656</ele>
        <time>2013-03-31T07:30:18Z</time>
      </trkpt>
      <trkpt lat="42.93361" lon="1.84895">
        <ele>527.90100097656</ele>
        <time>2013-03-31T07:30:22Z</time>
      </trkpt>
      <trkpt lat="42.93348" lon="1.84886">
        <ele>527.90100097656</ele>
        <time>2013-03-31T07:30:26Z</time>
      </trkpt>
      <trkpt lat="42.93333" lon="1.84874">
        <ele>527.90100097656</ele>
        <time>2013-03-31T07:30:31Z</time>
      </trkpt>
      <trkpt lat="42.93324" lon="1.84866">
        <ele>527.42041015625</ele>
        <time>2013-03-31T07:30:34Z</time>
      </trkpt>
      <trkpt lat="42.93315" lon="1.84855">
        <ele>525.97839355469</ele>
        <time>2013-03-31T07:30:38Z</time>
      </trkpt>
      <trkpt lat="42.93304" lon="1.84847">
        <ele>524.53649902344</ele>
        <time>2013-03-31T07:30:42Z</time>
      </trkpt>
      <trkpt lat="42.93293" lon="1.84846">
        <ele>524.05578613281</ele>
        <time>2013-03-31T07:30:46Z</time>
      </trkpt>
      <trkpt lat="42.93281" lon="1.84847">
        <ele>526.93981933594</ele>
        <time>2013-03-31T07:30:50Z</time>
      </trkpt>
      <trkpt lat="42.93268" lon="1.84844">
        <ele>528.86254882812</ele>
        <time>2013-03-31T07:30:54Z</time>
      </trkpt>
      <trkpt lat="42.93264" lon="1.84844">
        <ele>529.82373046875</ele>
        <time>2013-03-31T07:30:55Z</time>
      </trkpt>
      <trkpt lat="42.9325" lon="1.84852">
        <ele>532.22705078125</ele>
        <time>2013-03-31T07:31:00Z</time>
      </trkpt>
      <trkpt lat="42.93237" lon="1.84861">
        <ele>534.63037109375</ele>
        <time>2013-03-31T07:31:04Z</time>
      </trkpt>
      <trkpt lat="42.93227" lon="1.84861">
        <ele>534.14965820312</ele>
        <time>2013-03-31T07:31:07Z</time>
      </trkpt>
      <trkpt lat="42.93213" lon="1.84856">
        <ele>533.6689453125</ele>
        <time>2013-03-31T07:31:12Z</time>
      </trkpt>
      <trkpt lat="42.93197" lon="1.84851">
        <ele>536.55310058594</ele>
        <time>2013-03-31T07:31:17Z</time>
      </trkpt>
      <trkpt lat="42.93185" lon="1.84842">
        <ele>538.47570800781</ele>
        <time>2013-03-31T07:31:21Z</time>
      </trkpt>
      <trkpt lat="42.93171" lon="1.84838">
        <ele>541.35949707031</ele>
        <time>2013-03-31T07:31:25Z</time>
      </trkpt>
      <trkpt lat="42.93158" lon="1.84833">
        <ele>547.12744140625</ele>
        <time>2013-03-31T07:31:29Z</time>
      </trkpt>
      <trkpt lat="42.93142" lon="1.84832">
        <ele>548.0888671875</ele>
        <time>2013-03-31T07:31:34Z</time>
      </trkpt>
      <trkpt lat="42.93139" lon="1.84832">
        <ele>547.12744140625</ele>
        <time>2013-03-31T07:31:35Z</time>
      </trkpt>
      <trkpt lat="42.93129" lon="1.84835">
        <ele>541.84020996094</ele>
        <time>2013-03-31T07:31:39Z</time>
      </trkpt>
      <trkpt lat="42.93124" lon="1.84835">
        <ele>541.84020996094</ele>
        <time>2013-03-31T07:31:41Z</time>
      </trkpt>
      <trkpt lat="42.9311" lon="1.84833">
        <ele>540.87890625</ele>
        <time>2013-03-31T07:31:46Z</time>
      </trkpt>
      <trkpt lat="42.93105" lon="1.84833">
        <ele>540.87890625</ele>
        <time>2013-03-31T07:31:48Z</time>
      </trkpt>
      <trkpt lat="42.93087" lon="1.84833">
        <ele>541.35949707031</ele>
        <time>2013-03-31T07:31:54Z</time>
      </trkpt>
      <trkpt lat="42.93076" lon="1.84835">
        <ele>541.84020996094</ele>
        <time>2013-03-31T07:31:58Z</time>
      </trkpt>
      <trkpt lat="42.93073" lon="1.84835">
        <ele>541.84020996094</ele>
        <time>2013-03-31T07:31:59Z</time>
      </trkpt>
      <trkpt lat="42.9306" lon="1.84833">
        <ele>542.80151367188</ele>
        <time>2013-03-31T07:32:03Z</time>
      </trkpt>
      <trkpt lat="42.93048" lon="1.8483">
        <ele>543.76281738281</ele>
        <time>2013-03-31T07:32:07Z</time>
      </trkpt>
      <trkpt lat="42.93033" lon="1.84823">
        <ele>543.76281738281</ele>
        <time>2013-03-31T07:32:12Z</time>
      </trkpt>
      <trkpt lat="42.93026" lon="1.84819">
        <ele>543.28210449219</ele>
        <time>2013-03-31T07:32:15Z</time>
      </trkpt>
      <trkpt lat="42.93016" lon="1.84809">
        <ele>543.76281738281</ele>
        <time>2013-03-31T07:32:19Z</time>
      </trkpt>
      <trkpt lat="42.93009" lon="1.848">
        <ele>543.28210449219</ele>
        <time>2013-03-31T07:32:22Z</time>
      </trkpt>
      <trkpt lat="42.92995" lon="1.84787">
        <ele>542.32092285156</ele>
        <time>2013-03-31T07:32:27Z</time>
      </trkpt>
      <trkpt lat="42.92985" lon="1.84778">
        <ele>540.39831542969</ele>
        <time>2013-03-31T07:32:31Z</time>
      </trkpt>
      <trkpt lat="42.92971" lon="1.84768">
        <ele>538.95629882812</ele>
        <time>2013-03-31T07:32:36Z</time>
      </trkpt>
      <trkpt lat="42.92952" lon="1.84755">
        <ele>537.51428222656</ele>
        <time>2013-03-31T07:32:43Z</time>
      </trkpt>
      <trkpt lat="42.92938" lon="1.84745">
        <ele>537.51428222656</ele>
        <time>2013-03-31T07:32:48Z</time>
      </trkpt>
      <trkpt lat="42.92921" lon="1.84733">
        <ele>539.43688964844</ele>
        <time>2013-03-31T07:32:54Z</time>
      </trkpt>
      <trkpt lat="42.92907" lon="1.84722">
        <ele>539.91760253906</ele>
        <time>2013-03-31T07:32:59Z</time>
      </trkpt>
      <trkpt lat="42.92889" lon="1.84711">
        <ele>539.91760253906</ele>
        <time>2013-03-31T07:33:05Z</time>
      </trkpt>
      <trkpt lat="42.92875" lon="1.84702">
        <ele>541.84020996094</ele>
        <time>2013-03-31T07:33:10Z</time>
      </trkpt>
      <trkpt lat="42.9286" lon="1.84694">
        <ele>540.87890625</ele>
        <time>2013-03-31T07:33:15Z</time>
      </trkpt>
      <trkpt lat="42.92846" lon="1.84684">
        <ele>540.87890625</ele>
        <time>2013-03-31T07:33:20Z</time>
      </trkpt>
      <trkpt lat="42.92833" lon="1.84672">
        <ele>540.87890625</ele>
        <time>2013-03-31T07:33:25Z</time>
      </trkpt>
      <trkpt lat="42.92822" lon="1.84663">
        <ele>541.35949707031</ele>
        <time>2013-03-31T07:33:29Z</time>
      </trkpt>
      <trkpt lat="42.92812" lon="1.84654">
        <ele>542.80151367188</ele>
        <time>2013-03-31T07:33:33Z</time>
      </trkpt>
      <trkpt lat="42.92799" lon="1.84646">
        <ele>546.64685058594</ele>
        <time>2013-03-31T07:33:38Z</time>
      </trkpt>
      <trkpt lat="42.92788" lon="1.84643">
        <ele>547.60815429688</ele>
        <time>2013-03-31T07:33:42Z</time>
      </trkpt>
      <trkpt lat="42.92771" lon="1.84636">
        <ele>548.5693359375</ele>
        <time>2013-03-31T07:33:48Z</time>
      </trkpt>
      <trkpt lat="42.92759" lon="1.84633">
        <ele>549.53076171875</ele>
        <time>2013-03-31T07:33:52Z</time>
      </trkpt>
      <trkpt lat="42.92745" lon="1.84631">
        <ele>550.01147460938</ele>
        <time>2013-03-31T07:33:57Z</time>
      </trkpt>
      <trkpt lat="42.92731" lon="1.84628">
        <ele>552.41455078125</ele>
        <time>2013-03-31T07:34:02Z</time>
      </trkpt>
      <trkpt lat="42.9272" lon="1.84627">
        <ele>552.89526367188</ele>
        <time>2013-03-31T07:34:06Z</time>
      </trkpt>
      <trkpt lat="42.92708" lon="1.8463">
        <ele>550.97265625</ele>
        <time>2013-03-31T07:34:10Z</time>
      </trkpt>
      <trkpt lat="42.92693" lon="1.84641">
        <ele>556.26000976562</ele>
        <time>2013-03-31T07:34:16Z</time>
      </trkpt>
      <trkpt lat="42.9268" lon="1.8465">
        <ele>560.5859375</ele>
        <time>2013-03-31T07:34:21Z</time>
      </trkpt>
      <trkpt lat="42.92672" lon="1.84654">
        <ele>561.54736328125</ele>
        <time>2013-03-31T07:34:25Z</time>
      </trkpt>
      <trkpt lat="42.92658" lon="1.84659">
        <ele>564.91186523438</ele>
        <time>2013-03-31T07:34:31Z</time>
      </trkpt>
      <trkpt lat="42.92648" lon="1.84662">
        <ele>563.46997070312</ele>
        <time>2013-03-31T07:34:35Z</time>
      </trkpt>
      <trkpt lat="42.92646" lon="1.84662">
        <ele>562.9892578125</ele>
        <time>2013-03-31T07:34:36Z</time>
      </trkpt>
      <trkpt lat="42.92634" lon="1.84665">
        <ele>561.06665039062</ele>
        <time>2013-03-31T07:34:41Z</time>
      </trkpt>
      <trkpt lat="42.92628" lon="1.84667">
        <ele>560.5859375</ele>
        <time>2013-03-31T07:34:43Z</time>
      </trkpt>
      <trkpt lat="42.92611" lon="1.84671">
        <ele>559.14404296875</ele>
        <time>2013-03-31T07:34:49Z</time>
      </trkpt>
      <trkpt lat="42.92594" lon="1.84672">
        <ele>558.18286132812</ele>
        <time>2013-03-31T07:34:54Z</time>
      </trkpt>
      <trkpt lat="42.92583" lon="1.8467">
        <ele>558.66333007812</ele>
        <time>2013-03-31T07:34:58Z</time>
      </trkpt>
      <trkpt lat="42.92569" lon="1.84666">
        <ele>557.22143554688</ele>
        <time>2013-03-31T07:35:03Z</time>
      </trkpt>
      <trkpt lat="42.92558" lon="1.84663">
        <ele>555.779296875</ele>
        <time>2013-03-31T07:35:07Z</time>
      </trkpt>
      <trkpt lat="42.92545" lon="1.84663">
        <ele>555.779296875</ele>
        <time>2013-03-31T07:35:11Z</time>
      </trkpt>
      <trkpt lat="42.92532" lon="1.84662">
        <ele>555.779296875</ele>
        <time>2013-03-31T07:35:15Z</time>
      </trkpt>
      <trkpt lat="42.92528" lon="1.84661">
        <ele>555.29858398438</ele>
        <time>2013-03-31T07:35:17Z</time>
      </trkpt>
      <trkpt lat="42.92516" lon="1.84652">
        <ele>556.74072265625</ele>
        <time>2013-03-31T07:35:24Z</time>
      </trkpt>
      <trkpt lat="42.92505" lon="1.8465">
        <ele>557.22143554688</ele>
        <time>2013-03-31T07:35:28Z</time>
      </trkpt>
      <trkpt lat="42.92492" lon="1.84648">
        <ele>557.7021484375</ele>
        <time>2013-03-31T07:35:32Z</time>
      </trkpt>
      <trkpt lat="42.92478" lon="1.84645">
        <ele>557.22143554688</ele>
        <time>2013-03-31T07:35:36Z</time>
      </trkpt>
      <trkpt lat="42.92466" lon="1.8464">
        <ele>556.74072265625</ele>
        <time>2013-03-31T07:35:40Z</time>
      </trkpt>
      <trkpt lat="42.9245" lon="1.84634">
        <ele>556.26000976562</ele>
        <time>2013-03-31T07:35:45Z</time>
      </trkpt>
      <trkpt lat="42.92434" lon="1.84627">
        <ele>554.33740234375</ele>
        <time>2013-03-31T07:35:50Z</time>
      </trkpt>
      <trkpt lat="42.92419" lon="1.8462">
        <ele>553.85668945312</ele>
        <time>2013-03-31T07:35:55Z</time>
      </trkpt>
      <trkpt lat="42.92405" lon="1.84611">
        <ele>555.779296875</ele>
        <time>2013-03-31T07:36:00Z</time>
      </trkpt>
      <trkpt lat="42.92392" lon="1.846">
        <ele>554.33740234375</ele>
        <time>2013-03-31T07:36:04Z</time>
      </trkpt>
      <trkpt lat="42.92376" lon="1.84594">
        <ele>550.4921875</ele>
        <time>2013-03-31T07:36:09Z</time>
      </trkpt>
      <trkpt lat="42.92363" lon="1.84594">
        <ele>549.53076171875</ele>
        <time>2013-03-31T07:36:13Z</time>
      </trkpt>
      <trkpt lat="42.9235" lon="1.84591">
        <ele>550.97265625</ele>
        <time>2013-03-31T07:36:17Z</time>
      </trkpt>
      <trkpt lat="42.92337" lon="1.84589">
        <ele>553.3759765625</ele>
        <time>2013-03-31T07:36:21Z</time>
      </trkpt>
      <trkpt lat="42.92322" lon="1.84588">
        <ele>553.85668945312</ele>
        <time>2013-03-31T07:36:26Z</time>
      </trkpt>
      <trkpt lat="42.92309" lon="1.84588">
        <ele>556.26000976562</ele>
        <time>2013-03-31T07:36:30Z</time>
      </trkpt>
      <trkpt lat="42.92299" lon="1.84588">
        <ele>558.18286132812</ele>
        <time>2013-03-31T07:36:34Z</time>
      </trkpt>
      <trkpt lat="42.9229" lon="1.84588">
        <ele>559.14404296875</ele>
        <time>2013-03-31T07:36:38Z</time>
      </trkpt>
      <trkpt lat="42.92278" lon="1.84585">
        <ele>561.06665039062</ele>
        <time>2013-03-31T07:36:43Z</time>
      </trkpt>
      <trkpt lat="42.92267" lon="1.84585">
        <ele>561.06665039062</ele>
        <time>2013-03-31T07:36:48Z</time>
      </trkpt>
      <trkpt lat="42.92253" lon="1.84585">
        <ele>562.02807617188</ele>
        <time>2013-03-31T07:36:53Z</time>
      </trkpt>
      <trkpt lat="42.92242" lon="1.84585">
        <ele>562.50854492188</ele>
        <time>2013-03-31T07:36:57Z</time>
      </trkpt>
      <trkpt lat="42.92229" lon="1.84583">
        <ele>563.46997070312</ele>
        <time>2013-03-31T07:37:02Z</time>
      </trkpt>
      <trkpt lat="42.92216" lon="1.8458">
        <ele>562.9892578125</ele>
        <time>2013-03-31T07:37:06Z</time>
      </trkpt>
      <trkpt lat="42.92205" lon="1.84575">
        <ele>563.95043945312</ele>
        <time>2013-03-31T07:37:10Z</time>
      </trkpt>
      <trkpt lat="42.9219" lon="1.84572">
        <ele>563.46997070312</ele>
        <time>2013-03-31T07:37:14Z</time>
      </trkpt>
      <trkpt lat="42.92174" lon="1.84565">
        <ele>565.87329101562</ele>
        <time>2013-03-31T07:37:19Z</time>
      </trkpt>
      <trkpt lat="42.92162" lon="1.84557">
        <ele>564.91186523438</ele>
        <time>2013-03-31T07:37:23Z</time>
      </trkpt>
      <trkpt lat="42.92148" lon="1.84549">
        <ele>563.95043945312</ele>
        <time>2013-03-31T07:37:28Z</time>
      </trkpt>
      <trkpt lat="42.92134" lon="1.84545">
        <ele>561.54736328125</ele>
        <time>2013-03-31T07:37:33Z</time>
      </trkpt>
      <trkpt lat="42.92121" lon="1.84541">
        <ele>561.54736328125</ele>
        <time>2013-03-31T07:37:37Z</time>
      </trkpt>
      <trkpt lat="42.92106" lon="1.84536">
        <ele>564.43115234375</ele>
        <time>2013-03-31T07:37:42Z</time>
      </trkpt>
      <trkpt lat="42.92097" lon="1.84528">
        <ele>562.50854492188</ele>
        <time>2013-03-31T07:37:46Z</time>
      </trkpt>
      <trkpt lat="42.92085" lon="1.8452">
        <ele>559.62475585938</ele>
        <time>2013-03-31T07:37:51Z</time>
      </trkpt>
      <trkpt lat="42.92081" lon="1.84518">
        <ele>559.62475585938</ele>
        <time>2013-03-31T07:37:54Z</time>
      </trkpt>
      <trkpt lat="42.92075" lon="1.84513">
        <ele>558.66333007812</ele>
        <time>2013-03-31T07:37:58Z</time>
      </trkpt>
      <trkpt lat="42.92071" lon="1.84511">
        <ele>558.66333007812</ele>
        <time>2013-03-31T07:38:00Z</time>
      </trkpt>
      <trkpt lat="42.92057" lon="1.84504">
        <ele>557.22143554688</ele>
        <time>2013-03-31T07:38:06Z</time>
      </trkpt>
      <trkpt lat="42.92049" lon="1.84501">
        <ele>556.26000976562</ele>
        <time>2013-03-31T07:38:09Z</time>
      </trkpt>
      <trkpt lat="42.9204" lon="1.84501">
        <ele>556.74072265625</ele>
        <time>2013-03-31T07:38:13Z</time>
      </trkpt>
      <trkpt lat="42.92037" lon="1.84502">
        <ele>556.26000976562</ele>
        <time>2013-03-31T07:38:15Z</time>
      </trkpt>
      <trkpt lat="42.92025" lon="1.84503">
        <ele>556.26000976562</ele>
        <time>2013-03-31T07:38:20Z</time>
      </trkpt>
      <trkpt lat="42.92023" lon="1.84504">
        <ele>556.26000976562</ele>
        <time>2013-03-31T07:38:21Z</time>
      </trkpt>
      <trkpt lat="42.92011" lon="1.84501">
        <ele>555.779296875</ele>
        <time>2013-03-31T07:38:26Z</time>
      </trkpt>
      <trkpt lat="42.92009" lon="1.84501">
        <ele>555.779296875</ele>
        <time>2013-03-31T07:38:27Z</time>
      </trkpt>
      <trkpt lat="42.91999" lon="1.84502">
        <ele>553.85668945312</ele>
        <time>2013-03-31T07:38:33Z</time>
      </trkpt>
      <trkpt lat="42.91988" lon="1.84502">
        <ele>553.3759765625</ele>
        <time>2013-03-31T07:38:38Z</time>
      </trkpt>
      <trkpt lat="42.91978" lon="1.84501">
        <ele>555.29858398438</ele>
        <time>2013-03-31T07:38:43Z</time>
      </trkpt>
      <trkpt lat="42.91977" lon="1.845">
        <ele>555.779296875</ele>
        <time>2013-03-31T07:38:44Z</time>
      </trkpt>
      <trkpt lat="42.91967" lon="1.84499">
        <ele>560.10522460938</ele>
        <time>2013-03-31T07:38:49Z</time>
      </trkpt>
      <trkpt lat="42.91957" lon="1.84496">
        <ele>563.95043945312</ele>
        <time>2013-03-31T07:38:53Z</time>
      </trkpt>
      <trkpt lat="42.91948" lon="1.84494">
        <ele>568.2763671875</ele>
        <time>2013-03-31T07:38:59Z</time>
      </trkpt>
      <trkpt lat="42.91945" lon="1.84492">
        <ele>569.23779296875</ele>
        <time>2013-03-31T07:39:01Z</time>
      </trkpt>
      <trkpt lat="42.91928" lon="1.84488">
        <ele>572.6025390625</ele>
        <time>2013-03-31T07:39:08Z</time>
      </trkpt>
      <trkpt lat="42.91921" lon="1.8449">
        <ele>573.08325195312</ele>
        <time>2013-03-31T07:39:12Z</time>
      </trkpt>
      <trkpt lat="42.91913" lon="1.84494">
        <ele>575.96704101562</ele>
        <time>2013-03-31T07:39:18Z</time>
      </trkpt>
      <trkpt lat="42.91907" lon="1.84497">
        <ele>576.44775390625</ele>
        <time>2013-03-31T07:39:23Z</time>
      </trkpt>
      <trkpt lat="42.91901" lon="1.84498">
        <ele>576.92846679688</ele>
        <time>2013-03-31T07:39:28Z</time>
      </trkpt>
      <trkpt lat="42.91894" lon="1.84495">
        <ele>574.52514648438</ele>
        <time>2013-03-31T07:39:35Z</time>
      </trkpt>
      <trkpt lat="42.9189" lon="1.84496">
        <ele>574.52514648438</ele>
        <time>2013-03-31T07:39:38Z</time>
      </trkpt>
      <trkpt lat="42.91882" lon="1.84492">
        <ele>575.005859375</ele>
        <time>2013-03-31T07:39:45Z</time>
      </trkpt>
      <trkpt lat="42.91877" lon="1.8449">
        <ele>572.12182617188</ele>
        <time>2013-03-31T07:39:49Z</time>
      </trkpt>
      <trkpt lat="42.91875" lon="1.8449">
        <ele>571.64086914062</ele>
        <time>2013-03-31T07:39:51Z</time>
      </trkpt>
      <trkpt lat="42.91864" lon="1.84487">
        <ele>572.12182617188</ele>
        <time>2013-03-31T07:39:58Z</time>
      </trkpt>
      <trkpt lat="42.91853" lon="1.84484">
        <ele>575.005859375</ele>
        <time>2013-03-31T07:40:03Z</time>
      </trkpt>
      <trkpt lat="42.91844" lon="1.84483">
        <ele>576.92846679688</ele>
        <time>2013-03-31T07:40:07Z</time>
      </trkpt>
      <trkpt lat="42.9184" lon="1.84483">
        <ele>577.8896484375</ele>
        <time>2013-03-31T07:40:09Z</time>
      </trkpt>
      <trkpt lat="42.91831" lon="1.8448">
        <ele>578.85107421875</ele>
        <time>2013-03-31T07:40:14Z</time>
      </trkpt>
      <trkpt lat="42.91819" lon="1.84472">
        <ele>579.33154296875</ele>
        <time>2013-03-31T07:40:19Z</time>
      </trkpt>
      <trkpt lat="42.9181" lon="1.84464">
        <ele>579.81225585938</ele>
        <time>2013-03-31T07:40:23Z</time>
      </trkpt>
      <trkpt lat="42.91794" lon="1.84452">
        <ele>580.77368164062</ele>
        <time>2013-03-31T07:40:29Z</time>
      </trkpt>
      <trkpt lat="42.91784" lon="1.84444">
        <ele>580.77368164062</ele>
        <time>2013-03-31T07:40:33Z</time>
      </trkpt>
      <trkpt lat="42.91771" lon="1.84432">
        <ele>582.6962890625</ele>
        <time>2013-03-31T07:40:39Z</time>
      </trkpt>
      <trkpt lat="42.91761" lon="1.84426">
        <ele>584.61889648438</ele>
        <time>2013-03-31T07:40:43Z</time>
      </trkpt>
      <trkpt lat="42.91749" lon="1.84419">
        <ele>586.54150390625</ele>
        <time>2013-03-31T07:40:48Z</time>
      </trkpt>
      <trkpt lat="42.91737" lon="1.8441">
        <ele>587.02197265625</ele>
        <time>2013-03-31T07:40:53Z</time>
      </trkpt>
      <trkpt lat="42.91722" lon="1.84395">
        <ele>586.54150390625</ele>
        <time>2013-03-31T07:41:00Z</time>
      </trkpt>
      <trkpt lat="42.91709" lon="1.84379">
        <ele>587.50268554688</ele>
        <time>2013-03-31T07:41:06Z</time>
      </trkpt>
      <trkpt lat="42.91703" lon="1.84367">
        <ele>587.9833984375</ele>
        <time>2013-03-31T07:41:10Z</time>
      </trkpt>
      <trkpt lat="42.91694" lon="1.84357">
        <ele>587.9833984375</ele>
        <time>2013-03-31T07:41:14Z</time>
      </trkpt>
      <trkpt lat="42.91682" lon="1.84343">
        <ele>588.94506835938</ele>
        <time>2013-03-31T07:41:20Z</time>
      </trkpt>
      <trkpt lat="42.91673" lon="1.84335">
        <ele>588.94506835938</ele>
        <time>2013-03-31T07:41:24Z</time>
      </trkpt>
      <trkpt lat="42.9166" lon="1.84328">
        <ele>589.42553710938</ele>
        <time>2013-03-31T07:41:29Z</time>
      </trkpt>
      <trkpt lat="42.91649" lon="1.84322">
        <ele>589.42553710938</ele>
        <time>2013-03-31T07:41:33Z</time>
      </trkpt>
      <trkpt lat="42.91636" lon="1.84312">
        <ele>590.86743164062</ele>
        <time>2013-03-31T07:41:38Z</time>
      </trkpt>
      <trkpt lat="42.91621" lon="1.84299">
        <ele>592.3095703125</ele>
        <time>2013-03-31T07:41:44Z</time>
      </trkpt>
      <trkpt lat="42.91611" lon="1.84287">
        <ele>594.23217773438</ele>
        <time>2013-03-31T07:41:49Z</time>
      </trkpt>
      <trkpt lat="42.91598" lon="1.8428">
        <ele>594.23217773438</ele>
        <time>2013-03-31T07:41:54Z</time>
      </trkpt>
      <trkpt lat="42.91582" lon="1.8427">
        <ele>593.75146484375</ele>
        <time>2013-03-31T07:42:00Z</time>
      </trkpt>
      <trkpt lat="42.91574" lon="1.84265">
        <ele>593.75146484375</ele>
        <time>2013-03-31T07:42:03Z</time>
      </trkpt>
      <trkpt lat="42.91557" lon="1.84251">
        <ele>593.27075195312</ele>
        <time>2013-03-31T07:42:10Z</time>
      </trkpt>
      <trkpt lat="42.9155" lon="1.84241">
        <ele>592.79028320312</ele>
        <time>2013-03-31T07:42:14Z</time>
      </trkpt>
      <trkpt lat="42.91535" lon="1.84226">
        <ele>592.3095703125</ele>
        <time>2013-03-31T07:42:21Z</time>
      </trkpt>
      <trkpt lat="42.91526" lon="1.84216">
        <ele>591.82885742188</ele>
        <time>2013-03-31T07:42:25Z</time>
      </trkpt>
      <trkpt lat="42.91515" lon="1.84203">
        <ele>590.38696289062</ele>
        <time>2013-03-31T07:42:30Z</time>
      </trkpt>
      <trkpt lat="42.91505" lon="1.8419">
        <ele>590.38696289062</ele>
        <time>2013-03-31T07:42:35Z</time>
      </trkpt>
      <trkpt lat="42.91496" lon="1.84179">
        <ele>592.3095703125</ele>
        <time>2013-03-31T07:42:40Z</time>
      </trkpt>
      <trkpt lat="42.91484" lon="1.84168">
        <ele>592.79028320312</ele>
        <time>2013-03-31T07:42:46Z</time>
      </trkpt>
      <trkpt lat="42.91472" lon="1.84157">
        <ele>593.27075195312</ele>
        <time>2013-03-31T07:42:51Z</time>
      </trkpt>
      <trkpt lat="42.9147" lon="1.84156">
        <ele>593.75146484375</ele>
        <time>2013-03-31T07:42:52Z</time>
      </trkpt>
      <trkpt lat="42.91458" lon="1.84144">
        <ele>593.75146484375</ele>
        <time>2013-03-31T07:42:57Z</time>
      </trkpt>
      <trkpt lat="42.91449" lon="1.84129">
        <ele>593.75146484375</ele>
        <time>2013-03-31T07:43:02Z</time>
      </trkpt>
      <trkpt lat="42.91439" lon="1.84119">
        <ele>593.27075195312</ele>
        <time>2013-03-31T07:43:07Z</time>
      </trkpt>
      <trkpt lat="42.91431" lon="1.84109">
        <ele>593.75146484375</ele>
        <time>2013-03-31T07:43:11Z</time>
      </trkpt>
      <trkpt lat="42.91423" lon="1.84098">
        <ele>594.23217773438</ele>
        <time>2013-03-31T07:43:15Z</time>
      </trkpt>
      <trkpt lat="42.91414" lon="1.84084">
        <ele>594.23217773438</ele>
        <time>2013-03-31T07:43:20Z</time>
      </trkpt>
      <trkpt lat="42.91405" lon="1.84071">
        <ele>594.23217773438</ele>
        <time>2013-03-31T07:43:25Z</time>
      </trkpt>
      <trkpt lat="42.91396" lon="1.84058">
        <ele>594.71264648438</ele>
        <time>2013-03-31T07:43:30Z</time>
      </trkpt>
      <trkpt lat="42.91387" lon="1.84044">
        <ele>595.193359375</ele>
        <time>2013-03-31T07:43:35Z</time>
      </trkpt>
      <trkpt lat="42.9138" lon="1.84033">
        <ele>594.23217773438</ele>
        <time>2013-03-31T07:43:39Z</time>
      </trkpt>
      <trkpt lat="42.91372" lon="1.84024">
        <ele>594.23217773438</ele>
        <time>2013-03-31T07:43:43Z</time>
      </trkpt>
      <trkpt lat="42.91364" lon="1.84017">
        <ele>594.71264648438</ele>
        <time>2013-03-31T07:43:47Z</time>
      </trkpt>
      <trkpt lat="42.91352" lon="1.84011">
        <ele>594.71264648438</ele>
        <time>2013-03-31T07:43:52Z</time>
      </trkpt>
      <trkpt lat="42.9134" lon="1.84003">
        <ele>594.23217773438</ele>
        <time>2013-03-31T07:43:57Z</time>
      </trkpt>
      <trkpt lat="42.91329" lon="1.83997">
        <ele>594.23217773438</ele>
        <time>2013-03-31T07:44:02Z</time>
      </trkpt>
      <trkpt lat="42.91314" lon="1.83985">
        <ele>594.71264648438</ele>
        <time>2013-03-31T07:44:08Z</time>
      </trkpt>
      <trkpt lat="42.91304" lon="1.83975">
        <ele>595.193359375</ele>
        <time>2013-03-31T07:44:13Z</time>
      </trkpt>
      <trkpt lat="42.91294" lon="1.83966">
        <ele>595.67407226562</ele>
        <time>2013-03-31T07:44:18Z</time>
      </trkpt>
      <trkpt lat="42.91285" lon="1.83963">
        <ele>598.55786132812</ele>
        <time>2013-03-31T07:44:22Z</time>
      </trkpt>
      <trkpt lat="42.91276" lon="1.83957">
        <ele>599.03857421875</ele>
        <time>2013-03-31T07:44:27Z</time>
      </trkpt>
      <trkpt lat="42.91266" lon="1.83952">
        <ele>600.48071289062</ele>
        <time>2013-03-31T07:44:32Z</time>
      </trkpt>
      <trkpt lat="42.91257" lon="1.83948">
        <ele>600.96118164062</ele>
        <time>2013-03-31T07:44:36Z</time>
      </trkpt>
      <trkpt lat="42.91245" lon="1.83942">
        <ele>601.92260742188</ele>
        <time>2013-03-31T07:44:41Z</time>
      </trkpt>
      <trkpt lat="42.9124" lon="1.8394">
        <ele>601.92260742188</ele>
        <time>2013-03-31T07:44:43Z</time>
      </trkpt>
      <trkpt lat="42.9123" lon="1.83934">
        <ele>603.36450195312</ele>
        <time>2013-03-31T07:44:48Z</time>
      </trkpt>
      <trkpt lat="42.91223" lon="1.83929">
        <ele>604.326171875</ele>
        <time>2013-03-31T07:44:51Z</time>
      </trkpt>
      <trkpt lat="42.91212" lon="1.83923">
        <ele>604.806640625</ele>
        <time>2013-03-31T07:44:56Z</time>
      </trkpt>
      <trkpt lat="42.91199" lon="1.83914">
        <ele>604.806640625</ele>
        <time>2013-03-31T07:45:02Z</time>
      </trkpt>
      <trkpt lat="42.91189" lon="1.83907">
        <ele>605.28735351562</ele>
        <time>2013-03-31T07:45:07Z</time>
      </trkpt>
      <trkpt lat="42.91182" lon="1.83898">
        <ele>605.76806640625</ele>
        <time>2013-03-31T07:45:11Z</time>
      </trkpt>
      <trkpt lat="42.91179" lon="1.83895">
        <ele>606.24853515625</ele>
        <time>2013-03-31T07:45:13Z</time>
      </trkpt>
      <trkpt lat="42.91174" lon="1.83888">
        <ele>605.76806640625</ele>
        <time>2013-03-31T07:45:16Z</time>
      </trkpt>
      <trkpt lat="42.91164" lon="1.83876">
        <ele>604.806640625</ele>
        <time>2013-03-31T07:45:22Z</time>
      </trkpt>
      <trkpt lat="42.91158" lon="1.83868">
        <ele>603.84521484375</ele>
        <time>2013-03-31T07:45:26Z</time>
      </trkpt>
      <trkpt lat="42.9115" lon="1.83861">
        <ele>604.326171875</ele>
        <time>2013-03-31T07:45:30Z</time>
      </trkpt>
      <trkpt lat="42.91139" lon="1.83849">
        <ele>603.36450195312</ele>
        <time>2013-03-31T07:45:36Z</time>
      </trkpt>
      <trkpt lat="42.91129" lon="1.83839">
        <ele>604.326171875</ele>
        <time>2013-03-31T07:45:41Z</time>
      </trkpt>
      <trkpt lat="42.91116" lon="1.83825">
        <ele>603.84521484375</ele>
        <time>2013-03-31T07:45:47Z</time>
      </trkpt>
      <trkpt lat="42.91106" lon="1.83817">
        <ele>604.326171875</ele>
        <time>2013-03-31T07:45:52Z</time>
      </trkpt>
      <trkpt lat="42.91095" lon="1.8381">
        <ele>605.28735351562</ele>
        <time>2013-03-31T07:45:57Z</time>
      </trkpt>
      <trkpt lat="42.91088" lon="1.83804">
        <ele>604.806640625</ele>
        <time>2013-03-31T07:46:00Z</time>
      </trkpt>
      <trkpt lat="42.91074" lon="1.83797">
        <ele>604.326171875</ele>
        <time>2013-03-31T07:46:06Z</time>
      </trkpt>
      <trkpt lat="42.91059" lon="1.83794">
        <ele>603.84521484375</ele>
        <time>2013-03-31T07:46:11Z</time>
      </trkpt>
      <trkpt lat="42.91046" lon="1.83792">
        <ele>603.36450195312</ele>
        <time>2013-03-31T07:46:15Z</time>
      </trkpt>
      <trkpt lat="42.91032" lon="1.8379">
        <ele>603.84521484375</ele>
        <time>2013-03-31T07:46:19Z</time>
      </trkpt>
      <trkpt lat="42.91017" lon="1.83787">
        <ele>603.36450195312</ele>
        <time>2013-03-31T07:46:24Z</time>
      </trkpt>
      <trkpt lat="42.90998" lon="1.83779">
        <ele>602.40307617188</ele>
        <time>2013-03-31T07:46:31Z</time>
      </trkpt>
      <trkpt lat="42.90985" lon="1.83772">
        <ele>603.84521484375</ele>
        <time>2013-03-31T07:46:36Z</time>
      </trkpt>
      <trkpt lat="42.90972" lon="1.83765">
        <ele>604.806640625</ele>
        <time>2013-03-31T07:46:41Z</time>
      </trkpt>
      <trkpt lat="42.90962" lon="1.83759">
        <ele>606.24853515625</ele>
        <time>2013-03-31T07:46:45Z</time>
      </trkpt>
      <trkpt lat="42.9095" lon="1.83753">
        <ele>608.17138671875</ele>
        <time>2013-03-31T07:46:49Z</time>
      </trkpt>
      <trkpt lat="42.90942" lon="1.83745">
        <ele>610.09375</ele>
        <time>2013-03-31T07:46:53Z</time>
      </trkpt>
      <trkpt lat="42.90927" lon="1.83731">
        <ele>609.13256835938</ele>
        <time>2013-03-31T07:46:59Z</time>
      </trkpt>
      <trkpt lat="42.90916" lon="1.83721">
        <ele>607.69067382812</ele>
        <time>2013-03-31T07:47:04Z</time>
      </trkpt>
      <trkpt lat="42.90906" lon="1.83712">
        <ele>606.72924804688</ele>
        <time>2013-03-31T07:47:09Z</time>
      </trkpt>
      <trkpt lat="42.90894" lon="1.83704">
        <ele>606.72924804688</ele>
        <time>2013-03-31T07:47:14Z</time>
      </trkpt>
      <trkpt lat="42.90885" lon="1.83697">
        <ele>608.17138671875</ele>
        <time>2013-03-31T07:47:18Z</time>
      </trkpt>
      <trkpt lat="42.90879" lon="1.83692">
        <ele>608.65185546875</ele>
        <time>2013-03-31T07:47:21Z</time>
      </trkpt>
      <trkpt lat="42.90874" lon="1.83686">
        <ele>608.65185546875</ele>
        <time>2013-03-31T07:47:25Z</time>
      </trkpt>
      <trkpt lat="42.90863" lon="1.83679">
        <ele>609.61328125</ele>
        <time>2013-03-31T07:47:32Z</time>
      </trkpt>
      <trkpt lat="42.9086" lon="1.83679">
        <ele>609.61328125</ele>
        <time>2013-03-31T07:47:34Z</time>
      </trkpt>
      <trkpt lat="42.90863" lon="1.83686">
        <ele>607.69067382812</ele>
        <time>2013-03-31T07:47:40Z</time>
      </trkpt>
      <trkpt lat="42.90863" lon="1.83701">
        <ele>613.45849609375</ele>
        <time>2013-03-31T07:47:48Z</time>
      </trkpt>
      <trkpt lat="42.90865" lon="1.83708">
        <ele>614.41967773438</ele>
        <time>2013-03-31T07:47:51Z</time>
      </trkpt>
      <trkpt lat="42.90863" lon="1.83728">
        <ele>617.7841796875</ele>
        <time>2013-03-31T07:47:58Z</time>
      </trkpt>
      <trkpt lat="42.90862" lon="1.83734">
        <ele>618.74560546875</ele>
        <time>2013-03-31T07:48:00Z</time>
      </trkpt>
      <trkpt lat="42.90864" lon="1.83739">
        <ele>619.22631835938</ele>
        <time>2013-03-31T07:48:04Z</time>
      </trkpt>
      <trkpt lat="42.90864" lon="1.83742">
        <ele>620.18774414062</ele>
        <time>2013-03-31T07:48:06Z</time>
      </trkpt>
      <trkpt lat="42.90866" lon="1.83749">
        <ele>621.62963867188</ele>
        <time>2013-03-31T07:48:10Z</time>
      </trkpt>
      <trkpt lat="42.90868" lon="1.8376">
        <ele>623.07177734375</ele>
        <time>2013-03-31T07:48:16Z</time>
      </trkpt>
      <trkpt lat="42.90868" lon="1.83772">
        <ele>625.47485351562</ele>
        <time>2013-03-31T07:48:21Z</time>
      </trkpt>
      <trkpt lat="42.90868" lon="1.83781">
        <ele>627.87817382812</ele>
        <time>2013-03-31T07:48:26Z</time>
      </trkpt>
      <trkpt lat="42.90868" lon="1.83787">
        <ele>628.83959960938</ele>
        <time>2013-03-31T07:48:30Z</time>
      </trkpt>
      <trkpt lat="42.90869" lon="1.83794">
        <ele>628.35888671875</ele>
        <time>2013-03-31T07:48:37Z</time>
      </trkpt>
      <trkpt lat="42.9087" lon="1.83804">
        <ele>627.39770507812</ele>
        <time>2013-03-31T07:48:43Z</time>
      </trkpt>
      <trkpt lat="42.9087" lon="1.83806">
        <ele>627.39770507812</ele>
        <time>2013-03-31T07:48:45Z</time>
      </trkpt>
      <trkpt lat="42.9087" lon="1.83813">
        <ele>627.87817382812</ele>
        <time>2013-03-31T07:48:50Z</time>
      </trkpt>
      <trkpt lat="42.9087" lon="1.83816">
        <ele>628.83959960938</ele>
        <time>2013-03-31T07:48:52Z</time>
      </trkpt>
      <trkpt lat="42.9087" lon="1.83825">
        <ele>629.32006835938</ele>
        <time>2013-03-31T07:48:58Z</time>
      </trkpt>
      <trkpt lat="42.9087" lon="1.83827">
        <ele>629.32006835938</ele>
        <time>2013-03-31T07:48:59Z</time>
      </trkpt>
      <trkpt lat="42.90868" lon="1.83837">
        <ele>629.80078125</ele>
        <time>2013-03-31T07:49:04Z</time>
      </trkpt>
      <trkpt lat="42.90868" lon="1.83841">
        <ele>630.76220703125</ele>
        <time>2013-03-31T07:49:06Z</time>
      </trkpt>
      <trkpt lat="42.90868" lon="1.83845">
        <ele>631.24291992188</ele>
        <time>2013-03-31T07:49:10Z</time>
      </trkpt>
      <trkpt lat="42.90869" lon="1.83849">
        <ele>630.76220703125</ele>
        <time>2013-03-31T07:49:16Z</time>
      </trkpt>
      <trkpt lat="42.9087" lon="1.83854">
        <ele>630.28149414062</ele>
        <time>2013-03-31T07:49:22Z</time>
      </trkpt>
      <trkpt lat="42.9087" lon="1.83858">
        <ele>630.28149414062</ele>
        <time>2013-03-31T07:49:26Z</time>
      </trkpt>
      <trkpt lat="42.9087" lon="1.83865">
        <ele>632.2041015625</ele>
        <time>2013-03-31T07:49:32Z</time>
      </trkpt>
      <trkpt lat="42.90871" lon="1.83871">
        <ele>633.16528320312</ele>
        <time>2013-03-31T07:49:38Z</time>
      </trkpt>
      <trkpt lat="42.9087" lon="1.83875">
        <ele>634.607421875</ele>
        <time>2013-03-31T07:49:42Z</time>
      </trkpt>
      <trkpt lat="42.90869" lon="1.83886">
        <ele>637.0107421875</ele>
        <time>2013-03-31T07:49:50Z</time>
      </trkpt>
      <trkpt lat="42.90868" lon="1.83891">
        <ele>638.45288085938</ele>
        <time>2013-03-31T07:49:54Z</time>
      </trkpt>
      <trkpt lat="42.90868" lon="1.839">
        <ele>640.37548828125</ele>
        <time>2013-03-31T07:49:59Z</time>
      </trkpt>
      <trkpt lat="42.90866" lon="1.83914">
        <ele>639.89477539062</ele>
        <time>2013-03-31T07:50:06Z</time>
      </trkpt>
      <trkpt lat="42.90865" lon="1.8393">
        <ele>643.25927734375</ele>
        <time>2013-03-31T07:50:11Z</time>
      </trkpt>
      <trkpt lat="42.90863" lon="1.83942">
        <ele>644.701171875</ele>
        <time>2013-03-31T07:50:15Z</time>
      </trkpt>
      <trkpt lat="42.90862" lon="1.83945">
        <ele>644.701171875</ele>
        <time>2013-03-31T07:50:16Z</time>
      </trkpt>
      <trkpt lat="42.90862" lon="1.83955">
        <ele>644.701171875</ele>
        <time>2013-03-31T07:50:20Z</time>
      </trkpt>
      <trkpt lat="42.90854" lon="1.83957">
        <ele>644.220703125</ele>
        <time>2013-03-31T07:50:24Z</time>
      </trkpt>
      <trkpt lat="42.90844" lon="1.83952">
        <ele>643.25927734375</ele>
        <time>2013-03-31T07:50:29Z</time>
      </trkpt>
      <trkpt lat="42.90834" lon="1.83947">
        <ele>641.8173828125</ele>
        <time>2013-03-31T07:50:35Z</time>
      </trkpt>
      <trkpt lat="42.90828" lon="1.83942">
        <ele>642.77880859375</ele>
        <time>2013-03-31T07:50:38Z</time>
      </trkpt>
      <trkpt lat="42.90827" lon="1.83941">
        <ele>642.29809570312</ele>
        <time>2013-03-31T07:50:39Z</time>
      </trkpt>
      <trkpt lat="42.90818" lon="1.83939">
        <ele>641.33666992188</ele>
        <time>2013-03-31T07:50:44Z</time>
      </trkpt>
      <trkpt lat="42.90802" lon="1.83934">
        <ele>641.33666992188</ele>
        <time>2013-03-31T07:50:50Z</time>
      </trkpt>
      <trkpt lat="42.90794" lon="1.83928">
        <ele>639.89477539062</ele>
        <time>2013-03-31T07:50:54Z</time>
      </trkpt>
      <trkpt lat="42.90789" lon="1.83925">
        <ele>640.37548828125</ele>
        <time>2013-03-31T07:50:58Z</time>
      </trkpt>
      <trkpt lat="42.90784" lon="1.83917">
        <ele>642.77880859375</ele>
        <time>2013-03-31T07:51:03Z</time>
      </trkpt>
      <trkpt lat="42.90779" lon="1.83914">
        <ele>642.77880859375</ele>
        <time>2013-03-31T07:51:06Z</time>
      </trkpt>
      <trkpt lat="42.90774" lon="1.83909">
        <ele>642.29809570312</ele>
        <time>2013-03-31T07:51:10Z</time>
      </trkpt>
      <trkpt lat="42.90767" lon="1.83903">
        <ele>641.8173828125</ele>
        <time>2013-03-31T07:51:15Z</time>
      </trkpt>
      <trkpt lat="42.9076" lon="1.83899">
        <ele>639.4140625</ele>
        <time>2013-03-31T07:51:18Z</time>
      </trkpt>
      <trkpt lat="42.90754" lon="1.8389">
        <ele>637.49145507812</ele>
        <time>2013-03-31T07:51:25Z</time>
      </trkpt>
      <trkpt lat="42.90753" lon="1.83888">
        <ele>637.49145507812</ele>
        <time>2013-03-31T07:51:26Z</time>
      </trkpt>
      <trkpt lat="42.90749" lon="1.83883">
        <ele>637.97216796875</ele>
        <time>2013-03-31T07:51:30Z</time>
      </trkpt>
      <trkpt lat="42.90745" lon="1.83879">
        <ele>638.45288085938</ele>
        <time>2013-03-31T07:51:35Z</time>
      </trkpt>
      <trkpt lat="42.90742" lon="1.83876">
        <ele>637.49145507812</ele>
        <time>2013-03-31T07:51:39Z</time>
      </trkpt>
      <trkpt lat="42.90739" lon="1.83871">
        <ele>638.45288085938</ele>
        <time>2013-03-31T07:51:45Z</time>
      </trkpt>
      <trkpt lat="42.90731" lon="1.83867">
        <ele>646.14331054688</ele>
        <time>2013-03-31T07:51:52Z</time>
      </trkpt>
      <trkpt lat="42.90728" lon="1.83865">
        <ele>647.58520507812</ele>
        <time>2013-03-31T07:51:55Z</time>
      </trkpt>
      <trkpt lat="42.90727" lon="1.83863">
        <ele>648.06591796875</ele>
        <time>2013-03-31T07:51:57Z</time>
      </trkpt>
      <trkpt lat="42.90724" lon="1.83861">
        <ele>648.54638671875</ele>
        <time>2013-03-31T07:52:00Z</time>
      </trkpt>
      <trkpt lat="42.90719" lon="1.83855">
        <ele>649.02709960938</ele>
        <time>2013-03-31T07:52:07Z</time>
      </trkpt>
      <trkpt lat="42.90717" lon="1.83852">
        <ele>648.06591796875</ele>
        <time>2013-03-31T07:52:12Z</time>
      </trkpt>
      <trkpt lat="42.90714" lon="1.83847">
        <ele>648.54638671875</ele>
        <time>2013-03-31T07:52:15Z</time>
      </trkpt>
      <trkpt lat="42.90708" lon="1.83841">
        <ele>648.54638671875</ele>
        <time>2013-03-31T07:52:20Z</time>
      </trkpt>
      <trkpt lat="42.90699" lon="1.83835">
        <ele>649.5078125</ele>
        <time>2013-03-31T07:52:25Z</time>
      </trkpt>
      <trkpt lat="42.90689" lon="1.8383">
        <ele>650.46923828125</ele>
        <time>2013-03-31T07:52:29Z</time>
      </trkpt>
      <trkpt lat="42.90671" lon="1.83823">
        <ele>652.87255859375</ele>
        <time>2013-03-31T07:52:36Z</time>
      </trkpt>
      <trkpt lat="42.90662" lon="1.83823">
        <ele>652.87255859375</ele>
        <time>2013-03-31T07:52:40Z</time>
      </trkpt>
      <trkpt lat="42.90661" lon="1.83822">
        <ele>652.39184570312</ele>
        <time>2013-03-31T07:52:41Z</time>
      </trkpt>
      <trkpt lat="42.90652" lon="1.8382">
        <ele>649.98852539062</ele>
        <time>2013-03-31T07:52:46Z</time>
      </trkpt>
      <trkpt lat="42.90642" lon="1.83817">
        <ele>646.6240234375</ele>
        <time>2013-03-31T07:52:51Z</time>
      </trkpt>
      <trkpt lat="42.90635" lon="1.83816">
        <ele>644.220703125</ele>
        <time>2013-03-31T07:52:55Z</time>
      </trkpt>
      <trkpt lat="42.90623" lon="1.83813">
        <ele>643.25927734375</ele>
        <time>2013-03-31T07:53:01Z</time>
      </trkpt>
      <trkpt lat="42.90616" lon="1.8381">
        <ele>642.29809570312</ele>
        <time>2013-03-31T07:53:04Z</time>
      </trkpt>
      <trkpt lat="42.90607" lon="1.83808">
        <ele>640.85595703125</ele>
        <time>2013-03-31T07:53:09Z</time>
      </trkpt>
      <trkpt lat="42.90598" lon="1.83805">
        <ele>638.93359375</ele>
        <time>2013-03-31T07:53:13Z</time>
      </trkpt>
      <trkpt lat="42.90588" lon="1.83803">
        <ele>637.0107421875</ele>
        <time>2013-03-31T07:53:19Z</time>
      </trkpt>
      <trkpt lat="42.90582" lon="1.838">
        <ele>634.607421875</ele>
        <time>2013-03-31T07:53:23Z</time>
      </trkpt>
      <trkpt lat="42.90575" lon="1.83798">
        <ele>629.32006835938</ele>
        <time>2013-03-31T07:53:28Z</time>
      </trkpt>
      <trkpt lat="42.90569" lon="1.83797">
        <ele>627.39770507812</ele>
        <time>2013-03-31T07:53:31Z</time>
      </trkpt>
      <trkpt lat="42.90554" lon="1.83794">
        <ele>626.43627929688</ele>
        <time>2013-03-31T07:53:36Z</time>
      </trkpt>
      <trkpt lat="42.90539" lon="1.8379">
        <ele>627.39770507812</ele>
        <time>2013-03-31T07:53:41Z</time>
      </trkpt>
      <trkpt lat="42.90524" lon="1.83785">
        <ele>626.43627929688</ele>
        <time>2013-03-31T07:53:47Z</time>
      </trkpt>
      <trkpt lat="42.90511" lon="1.83782">
        <ele>627.87817382812</ele>
        <time>2013-03-31T07:53:53Z</time>
      </trkpt>
      <trkpt lat="42.90508" lon="1.83782">
        <ele>627.87817382812</ele>
        <time>2013-03-31T07:53:55Z</time>
      </trkpt>
      <trkpt lat="42.90506" lon="1.83775">
        <ele>627.39770507812</ele>
        <time>2013-03-31T07:53:59Z</time>
      </trkpt>
      <trkpt lat="42.90512" lon="1.83747">
        <ele>627.39770507812</ele>
        <time>2013-03-31T07:54:06Z</time>
      </trkpt>
      <trkpt lat="42.90521" lon="1.8373">
        <ele>627.39770507812</ele>
        <time>2013-03-31T07:54:11Z</time>
      </trkpt>
      <trkpt lat="42.90528" lon="1.83712">
        <ele>628.35888671875</ele>
        <time>2013-03-31T07:54:16Z</time>
      </trkpt>
      <trkpt lat="42.90528" lon="1.83705">
        <ele>628.35888671875</ele>
        <time>2013-03-31T07:54:18Z</time>
      </trkpt>
      <trkpt lat="42.9052" lon="1.83703">
        <ele>630.76220703125</ele>
        <time>2013-03-31T07:54:22Z</time>
      </trkpt>
      <trkpt lat="42.90507" lon="1.83708">
        <ele>632.68481445312</ele>
        <time>2013-03-31T07:54:27Z</time>
      </trkpt>
      <trkpt lat="42.90502" lon="1.8371">
        <ele>633.16528320312</ele>
        <time>2013-03-31T07:54:29Z</time>
      </trkpt>
      <trkpt lat="42.90487" lon="1.83717">
        <ele>633.16528320312</ele>
        <time>2013-03-31T07:54:35Z</time>
      </trkpt>
      <trkpt lat="42.90475" lon="1.8372">
        <ele>632.68481445312</ele>
        <time>2013-03-31T07:54:40Z</time>
      </trkpt>
      <trkpt lat="42.90461" lon="1.83727">
        <ele>635.08813476562</ele>
        <time>2013-03-31T07:54:46Z</time>
      </trkpt>
      <trkpt lat="42.9045" lon="1.83735">
        <ele>637.0107421875</ele>
        <time>2013-03-31T07:54:51Z</time>
      </trkpt>
      <trkpt lat="42.90438" lon="1.83741">
        <ele>638.45288085938</ele>
        <time>2013-03-31T07:54:56Z</time>
      </trkpt>
      <trkpt lat="42.90427" lon="1.83745">
        <ele>639.89477539062</ele>
        <time>2013-03-31T07:55:01Z</time>
      </trkpt>
      <trkpt lat="42.90421" lon="1.83747">
        <ele>639.89477539062</ele>
        <time>2013-03-31T07:55:04Z</time>
      </trkpt>
      <trkpt lat="42.9041" lon="1.83748">
        <ele>639.89477539062</ele>
        <time>2013-03-31T07:55:09Z</time>
      </trkpt>
      <trkpt lat="42.90398" lon="1.83753">
        <ele>640.37548828125</ele>
        <time>2013-03-31T07:55:14Z</time>
      </trkpt>
      <trkpt lat="42.90385" lon="1.8376">
        <ele>643.25927734375</ele>
        <time>2013-03-31T07:55:20Z</time>
      </trkpt>
      <trkpt lat="42.90374" lon="1.83764">
        <ele>644.220703125</ele>
        <time>2013-03-31T07:55:25Z</time>
      </trkpt>
      <trkpt lat="42.90361" lon="1.83769">
        <ele>645.66259765625</ele>
        <time>2013-03-31T07:55:31Z</time>
      </trkpt>
      <trkpt lat="42.9035" lon="1.83772">
        <ele>647.1044921875</ele>
        <time>2013-03-31T07:55:36Z</time>
      </trkpt>
      <trkpt lat="42.9034" lon="1.83775">
        <ele>647.58520507812</ele>
        <time>2013-03-31T07:55:41Z</time>
      </trkpt>
      <trkpt lat="42.90332" lon="1.83778">
        <ele>648.54638671875</ele>
        <time>2013-03-31T07:55:45Z</time>
      </trkpt>
      <trkpt lat="42.90324" lon="1.83779">
        <ele>648.06591796875</ele>
        <time>2013-03-31T07:55:51Z</time>
      </trkpt>
      <trkpt lat="42.90317" lon="1.8378">
        <ele>649.02709960938</ele>
        <time>2013-03-31T07:55:57Z</time>
      </trkpt>
      <trkpt lat="42.9031" lon="1.8378">
        <ele>649.02709960938</ele>
        <time>2013-03-31T07:56:03Z</time>
      </trkpt>
      <trkpt lat="42.90304" lon="1.8378">
        <ele>649.98852539062</ele>
        <time>2013-03-31T07:56:08Z</time>
      </trkpt>
      <trkpt lat="42.90293" lon="1.83778">
        <ele>649.02709960938</ele>
        <time>2013-03-31T07:56:15Z</time>
      </trkpt>
      <trkpt lat="42.90283" lon="1.83778">
        <ele>649.5078125</ele>
        <time>2013-03-31T07:56:20Z</time>
      </trkpt>
      <trkpt lat="42.90272" lon="1.83777">
        <ele>650.46923828125</ele>
        <time>2013-03-31T07:56:26Z</time>
      </trkpt>
      <trkpt lat="42.90261" lon="1.83777">
        <ele>651.9111328125</ele>
        <time>2013-03-31T07:56:32Z</time>
      </trkpt>
      <trkpt lat="42.90253" lon="1.83777">
        <ele>653.35327148438</ele>
        <time>2013-03-31T07:56:37Z</time>
      </trkpt>
      <trkpt lat="42.90242" lon="1.83776">
        <ele>654.79516601562</ele>
        <time>2013-03-31T07:56:43Z</time>
      </trkpt>
      <trkpt lat="42.90235" lon="1.83774">
        <ele>655.27587890625</ele>
        <time>2013-03-31T07:56:48Z</time>
      </trkpt>
      <trkpt lat="42.90228" lon="1.83774">
        <ele>656.23706054688</ele>
        <time>2013-03-31T07:56:52Z</time>
      </trkpt>
      <trkpt lat="42.90218" lon="1.83771">
        <ele>657.19848632812</ele>
        <time>2013-03-31T07:56:57Z</time>
      </trkpt>
      <trkpt lat="42.9021" lon="1.83768">
        <ele>657.19848632812</ele>
        <time>2013-03-31T07:57:01Z</time>
      </trkpt>
      <trkpt lat="42.90202" lon="1.83767">
        <ele>657.67919921875</ele>
        <time>2013-03-31T07:57:06Z</time>
      </trkpt>
      <trkpt lat="42.90201" lon="1.83767">
        <ele>657.67919921875</ele>
        <time>2013-03-31T07:57:07Z</time>
      </trkpt>
      <trkpt lat="42.90195" lon="1.83766">
        <ele>657.67919921875</ele>
        <time>2013-03-31T07:57:12Z</time>
      </trkpt>
      <trkpt lat="42.90192" lon="1.83763">
        <ele>656.7177734375</ele>
        <time>2013-03-31T07:57:15Z</time>
      </trkpt>
      <trkpt lat="42.90187" lon="1.83761">
        <ele>657.19848632812</ele>
        <time>2013-03-31T07:57:19Z</time>
      </trkpt>
      <trkpt lat="42.90176" lon="1.83754">
        <ele>657.67919921875</ele>
        <time>2013-03-31T07:57:27Z</time>
      </trkpt>
      <trkpt lat="42.9017" lon="1.83752">
        <ele>657.67919921875</ele>
        <time>2013-03-31T07:57:31Z</time>
      </trkpt>
      <trkpt lat="42.90163" lon="1.83747">
        <ele>657.19848632812</ele>
        <time>2013-03-31T07:57:36Z</time>
      </trkpt>
      <trkpt lat="42.9016" lon="1.8374">
        <ele>657.19848632812</ele>
        <time>2013-03-31T07:57:40Z</time>
      </trkpt>
      <trkpt lat="42.90153" lon="1.83737">
        <ele>659.12109375</ele>
        <time>2013-03-31T07:57:44Z</time>
      </trkpt>
      <trkpt lat="42.90149" lon="1.83735">
        <ele>659.12109375</ele>
        <time>2013-03-31T07:57:47Z</time>
      </trkpt>
      <trkpt lat="42.90146" lon="1.83734">
        <ele>657.19848632812</ele>
        <time>2013-03-31T07:57:50Z</time>
      </trkpt>
      <trkpt lat="42.90144" lon="1.83727">
        <ele>654.31469726562</ele>
        <time>2013-03-31T07:57:56Z</time>
      </trkpt>
      <trkpt lat="42.90142" lon="1.83724">
        <ele>655.27587890625</ele>
        <time>2013-03-31T07:58:00Z</time>
      </trkpt>
      <trkpt lat="42.90137" lon="1.83721">
        <ele>656.7177734375</ele>
        <time>2013-03-31T07:58:04Z</time>
      </trkpt>
      <trkpt lat="42.90132" lon="1.83713">
        <ele>660.08227539062</ele>
        <time>2013-03-31T07:58:10Z</time>
      </trkpt>
      <trkpt lat="42.90126" lon="1.83711">
        <ele>662.96630859375</ele>
        <time>2013-03-31T07:58:16Z</time>
      </trkpt>
      <trkpt lat="42.90118" lon="1.83709">
        <ele>665.36962890625</ele>
        <time>2013-03-31T07:58:21Z</time>
      </trkpt>
      <trkpt lat="42.90118" lon="1.83707">
        <ele>664.88891601562</ele>
        <time>2013-03-31T07:58:22Z</time>
      </trkpt>
      <trkpt lat="42.90115" lon="1.83705">
        <ele>665.36962890625</ele>
        <time>2013-03-31T07:58:25Z</time>
      </trkpt>
      <trkpt lat="42.9011" lon="1.83699">
        <ele>665.36962890625</ele>
        <time>2013-03-31T07:58:30Z</time>
      </trkpt>
      <trkpt lat="42.9011" lon="1.83693">
        <ele>665.85034179688</ele>
        <time>2013-03-31T07:58:34Z</time>
      </trkpt>
      <trkpt lat="42.9011" lon="1.83689">
        <ele>665.85034179688</ele>
        <time>2013-03-31T07:58:36Z</time>
      </trkpt>
      <trkpt lat="42.9011" lon="1.83687">
        <ele>672.57958984375</ele>
        <time>2013-03-31T07:58:42Z</time>
      </trkpt>
      <trkpt lat="42.90117" lon="1.8368">
        <ele>676.4248046875</ele>
        <time>2013-03-31T07:58:52Z</time>
      </trkpt>
      <trkpt lat="42.90119" lon="1.83672">
        <ele>678.34741210938</ele>
        <time>2013-03-31T07:58:57Z</time>
      </trkpt>
      <trkpt lat="42.90123" lon="1.83663">
        <ele>678.828125</ele>
        <time>2013-03-31T07:59:03Z</time>
      </trkpt>
      <trkpt lat="42.90119" lon="1.83659">
        <ele>678.34741210938</ele>
        <time>2013-03-31T07:59:08Z</time>
      </trkpt>
      <trkpt lat="42.9012" lon="1.83654">
        <ele>677.86669921875</ele>
        <time>2013-03-31T07:59:11Z</time>
      </trkpt>
      <trkpt lat="42.90117" lon="1.83646">
        <ele>681.7119140625</ele>
        <time>2013-03-31T07:59:17Z</time>
      </trkpt>
      <trkpt lat="42.90113" lon="1.83638">
        <ele>683.63452148438</ele>
        <time>2013-03-31T07:59:23Z</time>
      </trkpt>
      <trkpt lat="42.90108" lon="1.83634">
        <ele>684.59619140625</ele>
        <time>2013-03-31T07:59:28Z</time>
      </trkpt>
      <trkpt lat="42.90104" lon="1.83635">
        <ele>688.44140625</ele>
        <time>2013-03-31T07:59:32Z</time>
      </trkpt>
      <trkpt lat="42.90102" lon="1.83634">
        <ele>690.84448242188</ele>
        <time>2013-03-31T07:59:34Z</time>
      </trkpt>
      <trkpt lat="42.90098" lon="1.83627">
        <ele>690.84448242188</ele>
        <time>2013-03-31T07:59:41Z</time>
      </trkpt>
      <trkpt lat="42.90092" lon="1.83625">
        <ele>692.28662109375</ele>
        <time>2013-03-31T07:59:48Z</time>
      </trkpt>
      <trkpt lat="42.90088" lon="1.83621">
        <ele>691.3251953125</ele>
        <time>2013-03-31T07:59:52Z</time>
      </trkpt>
      <trkpt lat="42.90084" lon="1.83618">
        <ele>693.24780273438</ele>
        <time>2013-03-31T07:59:56Z</time>
      </trkpt>
      <trkpt lat="42.90079" lon="1.83613">
        <ele>693.728515625</ele>
        <time>2013-03-31T08:00:02Z</time>
      </trkpt>
      <trkpt lat="42.90076" lon="1.83612">
        <ele>694.20922851562</ele>
        <time>2013-03-31T08:00:05Z</time>
      </trkpt>
      <trkpt lat="42.90069" lon="1.83609">
        <ele>696.61254882812</ele>
        <time>2013-03-31T08:00:11Z</time>
      </trkpt>
      <trkpt lat="42.90067" lon="1.8361">
        <ele>698.05444335938</ele>
        <time>2013-03-31T08:00:13Z</time>
      </trkpt>
      <trkpt lat="42.90062" lon="1.83606">
        <ele>697.57373046875</ele>
        <time>2013-03-31T08:00:20Z</time>
      </trkpt>
      <trkpt lat="42.90061" lon="1.83605">
        <ele>698.05444335938</ele>
        <time>2013-03-31T08:00:21Z</time>
      </trkpt>
      <trkpt lat="42.90058" lon="1.83601">
        <ele>696.1318359375</ele>
        <time>2013-03-31T08:00:26Z</time>
      </trkpt>
      <trkpt lat="42.90056" lon="1.83591">
        <ele>695.17041015625</ele>
        <time>2013-03-31T08:00:32Z</time>
      </trkpt>
      <trkpt lat="42.90054" lon="1.83585">
        <ele>695.65112304688</ele>
        <time>2013-03-31T08:00:37Z</time>
      </trkpt>
      <trkpt lat="42.90055" lon="1.83576">
        <ele>695.17041015625</ele>
        <time>2013-03-31T08:00:42Z</time>
      </trkpt>
      <trkpt lat="42.90053" lon="1.8357">
        <ele>695.65112304688</ele>
        <time>2013-03-31T08:00:46Z</time>
      </trkpt>
      <trkpt lat="42.90055" lon="1.83561">
        <ele>695.17041015625</ele>
        <time>2013-03-31T08:00:50Z</time>
      </trkpt>
      <trkpt lat="42.90052" lon="1.83548">
        <ele>698.53491210938</ele>
        <time>2013-03-31T08:00:54Z</time>
      </trkpt>
      <trkpt lat="42.90051" lon="1.83545">
        <ele>699.49633789062</ele>
        <time>2013-03-31T08:00:55Z</time>
      </trkpt>
      <trkpt lat="42.90049" lon="1.83541">
        <ele>699.97705078125</ele>
        <time>2013-03-31T08:00:57Z</time>
      </trkpt>
      <trkpt lat="42.90041" lon="1.83531">
        <ele>703.82250976562</ele>
        <time>2013-03-31T08:01:02Z</time>
      </trkpt>
      <trkpt lat="42.90036" lon="1.83526">
        <ele>707.18701171875</ele>
        <time>2013-03-31T08:01:06Z</time>
      </trkpt>
      <trkpt lat="42.90032" lon="1.83526">
        <ele>707.66772460938</ele>
        <time>2013-03-31T08:01:08Z</time>
      </trkpt>
      <trkpt lat="42.90024" lon="1.83525">
        <ele>712.47412109375</ele>
        <time>2013-03-31T08:01:14Z</time>
      </trkpt>
      <trkpt lat="42.90012" lon="1.83525">
        <ele>722.08740234375</ele>
        <time>2013-03-31T08:01:21Z</time>
      </trkpt>
      <trkpt lat="42.90004" lon="1.83523">
        <ele>724.49072265625</ele>
        <time>2013-03-31T08:01:28Z</time>
      </trkpt>
      <trkpt lat="42.89997" lon="1.8352">
        <ele>723.52954101562</ele>
        <time>2013-03-31T08:01:34Z</time>
      </trkpt>
      <trkpt lat="42.89993" lon="1.83516">
        <ele>721.12622070312</ele>
        <time>2013-03-31T08:01:38Z</time>
      </trkpt>
      <trkpt lat="42.89985" lon="1.83513">
        <ele>723.048828125</ele>
        <time>2013-03-31T08:01:42Z</time>
      </trkpt>
      <trkpt lat="42.89977" lon="1.83508">
        <ele>725.45190429688</ele>
        <time>2013-03-31T08:01:46Z</time>
      </trkpt>
      <trkpt lat="42.89973" lon="1.83504">
        <ele>725.45190429688</ele>
        <time>2013-03-31T08:01:49Z</time>
      </trkpt>
      <trkpt lat="42.89968" lon="1.83503">
        <ele>727.37475585938</ele>
        <time>2013-03-31T08:01:53Z</time>
      </trkpt>
      <trkpt lat="42.89966" lon="1.83496">
        <ele>725.9326171875</ele>
        <time>2013-03-31T08:01:59Z</time>
      </trkpt>
      <trkpt lat="42.89964" lon="1.8349">
        <ele>723.52954101562</ele>
        <time>2013-03-31T08:02:04Z</time>
      </trkpt>
      <trkpt lat="42.89959" lon="1.83485">
        <ele>725.9326171875</ele>
        <time>2013-03-31T08:02:10Z</time>
      </trkpt>
      <trkpt lat="42.89951" lon="1.83482">
        <ele>726.89404296875</ele>
        <time>2013-03-31T08:02:17Z</time>
      </trkpt>
      <trkpt lat="42.89949" lon="1.83481">
        <ele>726.89404296875</ele>
        <time>2013-03-31T08:02:19Z</time>
      </trkpt>
      <trkpt lat="42.89949" lon="1.83477">
        <ele>726.89404296875</ele>
        <time>2013-03-31T08:02:21Z</time>
      </trkpt>
      <trkpt lat="42.89949" lon="1.83471">
        <ele>730.7392578125</ele>
        <time>2013-03-31T08:02:27Z</time>
      </trkpt>
      <trkpt lat="42.89952" lon="1.8347">
        <ele>735.0654296875</ele>
        <time>2013-03-31T08:02:33Z</time>
      </trkpt>
      <trkpt lat="42.89956" lon="1.83461">
        <ele>736.98779296875</ele>
        <time>2013-03-31T08:02:38Z</time>
      </trkpt>
      <trkpt lat="42.89958" lon="1.8345">
        <ele>737.46850585938</ele>
        <time>2013-03-31T08:02:44Z</time>
      </trkpt>
      <trkpt lat="42.89954" lon="1.8345">
        <ele>738.91064453125</ele>
        <time>2013-03-31T08:02:47Z</time>
      </trkpt>
      <trkpt lat="42.89952" lon="1.83445">
        <ele>738.91064453125</ele>
        <time>2013-03-31T08:02:51Z</time>
      </trkpt>
      <trkpt lat="42.89948" lon="1.8344">
        <ele>737.94921875</ele>
        <time>2013-03-31T08:02:56Z</time>
      </trkpt>
      <trkpt lat="42.89946" lon="1.83435">
        <ele>738.42993164062</ele>
        <time>2013-03-31T08:03:01Z</time>
      </trkpt>
      <trkpt lat="42.89942" lon="1.83432">
        <ele>736.50732421875</ele>
        <time>2013-03-31T08:03:06Z</time>
      </trkpt>
      <trkpt lat="42.89938" lon="1.83427">
        <ele>737.46850585938</ele>
        <time>2013-03-31T08:03:11Z</time>
      </trkpt>
      <trkpt lat="42.89936" lon="1.83422">
        <ele>736.98779296875</ele>
        <time>2013-03-31T08:03:16Z</time>
      </trkpt>
      <trkpt lat="42.89934" lon="1.83417">
        <ele>735.0654296875</ele>
        <time>2013-03-31T08:03:21Z</time>
      </trkpt>
      <trkpt lat="42.8993" lon="1.83408">
        <ele>734.10400390625</ele>
        <time>2013-03-31T08:03:28Z</time>
      </trkpt>
      <trkpt lat="42.89929" lon="1.834">
        <ele>735.5458984375</ele>
        <time>2013-03-31T08:03:34Z</time>
      </trkpt>
      <trkpt lat="42.89928" lon="1.83394">
        <ele>737.46850585938</ele>
        <time>2013-03-31T08:03:39Z</time>
      </trkpt>
      <trkpt lat="42.89924" lon="1.83385">
        <ele>743.71704101562</ele>
        <time>2013-03-31T08:03:45Z</time>
      </trkpt>
      <trkpt lat="42.89922" lon="1.83385">
        <ele>744.67822265625</ele>
        <time>2013-03-31T08:03:46Z</time>
      </trkpt>
      <trkpt lat="42.89921" lon="1.83384">
        <ele>746.60107421875</ele>
        <time>2013-03-31T08:03:48Z</time>
      </trkpt>
      <trkpt lat="42.89918" lon="1.83375">
        <ele>749.48510742188</ele>
        <time>2013-03-31T08:03:54Z</time>
      </trkpt>
      <trkpt lat="42.89917" lon="1.83373">
        <ele>749.9658203125</ele>
        <time>2013-03-31T08:03:55Z</time>
      </trkpt>
      <trkpt lat="42.89908" lon="1.83366">
        <ele>756.69482421875</ele>
        <time>2013-03-31T08:04:02Z</time>
      </trkpt>
      <trkpt lat="42.89901" lon="1.83363">
        <ele>760.05932617188</ele>
        <time>2013-03-31T08:04:09Z</time>
      </trkpt>
      <trkpt lat="42.89895" lon="1.83363">
        <ele>761.50146484375</ele>
        <time>2013-03-31T08:04:15Z</time>
      </trkpt>
      <trkpt lat="42.89893" lon="1.83363">
        <ele>762.46264648438</ele>
        <time>2013-03-31T08:04:19Z</time>
      </trkpt>
      <trkpt lat="42.8989" lon="1.83362">
        <ele>761.98217773438</ele>
        <time>2013-03-31T08:04:24Z</time>
      </trkpt>
      <trkpt lat="42.89885" lon="1.83362">
        <ele>762.46264648438</ele>
        <time>2013-03-31T08:04:29Z</time>
      </trkpt>
      <trkpt lat="42.8988" lon="1.83361">
        <ele>762.46264648438</ele>
        <time>2013-03-31T08:04:35Z</time>
      </trkpt>
      <trkpt lat="42.89875" lon="1.83358">
        <ele>761.98217773438</ele>
        <time>2013-03-31T08:04:41Z</time>
      </trkpt>
      <trkpt lat="42.89871" lon="1.83353">
        <ele>763.42407226562</ele>
        <time>2013-03-31T08:04:47Z</time>
      </trkpt>
      <trkpt lat="42.89869" lon="1.8335">
        <ele>766.30810546875</ele>
        <time>2013-03-31T08:04:53Z</time>
      </trkpt>
      <trkpt lat="42.89864" lon="1.83342">
        <ele>769.19213867188</ele>
        <time>2013-03-31T08:04:59Z</time>
      </trkpt>
      <trkpt lat="42.89861" lon="1.83337">
        <ele>771.59521484375</ele>
        <time>2013-03-31T08:05:04Z</time>
      </trkpt>
      <trkpt lat="42.89857" lon="1.83335">
        <ele>774.47924804688</ele>
        <time>2013-03-31T08:05:09Z</time>
      </trkpt>
      <trkpt lat="42.89852" lon="1.83335">
        <ele>776.88256835938</ele>
        <time>2013-03-31T08:05:15Z</time>
      </trkpt>
      <trkpt lat="42.89848" lon="1.83334">
        <ele>776.40185546875</ele>
        <time>2013-03-31T08:05:20Z</time>
      </trkpt>
      <trkpt lat="42.89843" lon="1.83333">
        <ele>774.47924804688</ele>
        <time>2013-03-31T08:05:26Z</time>
      </trkpt>
      <trkpt lat="42.8984" lon="1.8333">
        <ele>773.99853515625</ele>
        <time>2013-03-31T08:05:31Z</time>
      </trkpt>
      <trkpt lat="42.89834" lon="1.8333">
        <ele>775.4404296875</ele>
        <time>2013-03-31T08:05:37Z</time>
      </trkpt>
      <trkpt lat="42.89828" lon="1.83331">
        <ele>777.84375</ele>
        <time>2013-03-31T08:05:42Z</time>
      </trkpt>
      <trkpt lat="42.89827" lon="1.83331">
        <ele>779.28564453125</ele>
        <time>2013-03-31T08:05:43Z</time>
      </trkpt>
      <trkpt lat="42.89822" lon="1.83332">
        <ele>783.61181640625</ele>
        <time>2013-03-31T08:05:51Z</time>
      </trkpt>
      <trkpt lat="42.89817" lon="1.83333">
        <ele>786.49584960938</ele>
        <time>2013-03-31T08:05:56Z</time>
      </trkpt>
      <trkpt lat="42.89813" lon="1.83333">
        <ele>787.93774414062</ele>
        <time>2013-03-31T08:06:00Z</time>
      </trkpt>
      <trkpt lat="42.89803" lon="1.83336">
        <ele>786.97631835938</ele>
        <time>2013-03-31T08:06:09Z</time>
      </trkpt>
      <trkpt lat="42.89798" lon="1.83335">
        <ele>787.93774414062</ele>
        <time>2013-03-31T08:06:13Z</time>
      </trkpt>
      <trkpt lat="42.89793" lon="1.83331">
        <ele>789.8603515625</ele>
        <time>2013-03-31T08:06:19Z</time>
      </trkpt>
      <trkpt lat="42.89789" lon="1.83327">
        <ele>789.8603515625</ele>
        <time>2013-03-31T08:06:25Z</time>
      </trkpt>
      <trkpt lat="42.89784" lon="1.8332">
        <ele>793.70556640625</ele>
        <time>2013-03-31T08:06:31Z</time>
      </trkpt>
      <trkpt lat="42.89781" lon="1.83319">
        <ele>796.10913085938</ele>
        <time>2013-03-31T08:06:34Z</time>
      </trkpt>
      <trkpt lat="42.89775" lon="1.83321">
        <ele>797.55102539062</ele>
        <time>2013-03-31T08:06:41Z</time>
      </trkpt>
      <trkpt lat="42.89773" lon="1.83322">
        <ele>797.0703125</ele>
        <time>2013-03-31T08:06:46Z</time>
      </trkpt>
      <trkpt lat="42.89772" lon="1.83324">
        <ele>797.55102539062</ele>
        <time>2013-03-31T08:06:47Z</time>
      </trkpt>
      <trkpt lat="42.89764" lon="1.83327">
        <ele>799.4736328125</ele>
        <time>2013-03-31T08:06:54Z</time>
      </trkpt>
      <trkpt lat="42.8976" lon="1.83328">
        <ele>802.357421875</ele>
        <time>2013-03-31T08:06:59Z</time>
      </trkpt>
      <trkpt lat="42.89757" lon="1.83329">
        <ele>801.39624023438</ele>
        <time>2013-03-31T08:07:02Z</time>
      </trkpt>
      <trkpt lat="42.89752" lon="1.83328">
        <ele>800.91552734375</ele>
        <time>2013-03-31T08:07:07Z</time>
      </trkpt>
      <trkpt lat="42.89745" lon="1.83327">
        <ele>799.4736328125</ele>
        <time>2013-03-31T08:07:14Z</time>
      </trkpt>
      <trkpt lat="42.89742" lon="1.83326">
        <ele>799.95434570312</ele>
        <time>2013-03-31T08:07:17Z</time>
      </trkpt>
      <trkpt lat="42.89738" lon="1.8332">
        <ele>803.31884765625</ele>
        <time>2013-03-31T08:07:23Z</time>
      </trkpt>
      <trkpt lat="42.89733" lon="1.83318">
        <ele>806.20263671875</ele>
        <time>2013-03-31T08:07:29Z</time>
      </trkpt>
      <trkpt lat="42.89722" lon="1.83323">
        <ele>809.08666992188</ele>
        <time>2013-03-31T08:07:35Z</time>
      </trkpt>
      <trkpt lat="42.89716" lon="1.83325">
        <ele>810.52856445312</ele>
        <time>2013-03-31T08:07:39Z</time>
      </trkpt>
      <trkpt lat="42.89707" lon="1.83331">
        <ele>813.41284179688</ele>
        <time>2013-03-31T08:07:44Z</time>
      </trkpt>
      <trkpt lat="42.897" lon="1.83334">
        <ele>814.85473632812</ele>
        <time>2013-03-31T08:07:48Z</time>
      </trkpt>
      <trkpt lat="42.89691" lon="1.83334">
        <ele>815.81616210938</ele>
        <time>2013-03-31T08:07:52Z</time>
      </trkpt>
      <trkpt lat="42.8968" lon="1.83337">
        <ele>817.73852539062</ele>
        <time>2013-03-31T08:07:58Z</time>
      </trkpt>
      <trkpt lat="42.89673" lon="1.83333">
        <ele>819.1806640625</ele>
        <time>2013-03-31T08:08:05Z</time>
      </trkpt>
      <trkpt lat="42.89665" lon="1.83331">
        <ele>814.85473632812</ele>
        <time>2013-03-31T08:08:12Z</time>
      </trkpt>
      <trkpt lat="42.89658" lon="1.83329">
        <ele>813.89331054688</ele>
        <time>2013-03-31T08:08:18Z</time>
      </trkpt>
      <trkpt lat="42.89653" lon="1.83324">
        <ele>815.81616210938</ele>
        <time>2013-03-31T08:08:25Z</time>
      </trkpt>
      <trkpt lat="42.89653" lon="1.83322">
        <ele>816.77734375</ele>
        <time>2013-03-31T08:08:27Z</time>
      </trkpt>
      <trkpt lat="42.8965" lon="1.83318">
        <ele>820.14184570312</ele>
        <time>2013-03-31T08:08:30Z</time>
      </trkpt>
      <trkpt lat="42.89647" lon="1.83316">
        <ele>821.10327148438</ele>
        <time>2013-03-31T08:08:33Z</time>
      </trkpt>
      <trkpt lat="42.89645" lon="1.83307">
        <ele>823.98706054688</ele>
        <time>2013-03-31T08:08:39Z</time>
      </trkpt>
      <trkpt lat="42.89643" lon="1.83301">
        <ele>826.39038085938</ele>
        <time>2013-03-31T08:08:43Z</time>
      </trkpt>
      <trkpt lat="42.89642" lon="1.833">
        <ele>827.35180664062</ele>
        <time>2013-03-31T08:08:45Z</time>
      </trkpt>
      <trkpt lat="42.89634" lon="1.83299">
        <ele>829.75512695312</ele>
        <time>2013-03-31T08:08:51Z</time>
      </trkpt>
      <trkpt lat="42.89628" lon="1.83298">
        <ele>830.71655273438</ele>
        <time>2013-03-31T08:08:55Z</time>
      </trkpt>
      <trkpt lat="42.89626" lon="1.83296">
        <ele>831.197265625</ele>
        <time>2013-03-31T08:08:57Z</time>
      </trkpt>
      <trkpt lat="42.89624" lon="1.83294">
        <ele>831.677734375</ele>
        <time>2013-03-31T08:08:59Z</time>
      </trkpt>
      <trkpt lat="42.89619" lon="1.83289">
        <ele>833.11962890625</ele>
        <time>2013-03-31T08:09:06Z</time>
      </trkpt>
      <trkpt lat="42.89614" lon="1.83282">
        <ele>834.0810546875</ele>
        <time>2013-03-31T08:09:12Z</time>
      </trkpt>
      <trkpt lat="42.89612" lon="1.83281">
        <ele>834.0810546875</ele>
        <time>2013-03-31T08:09:16Z</time>
      </trkpt>
      <trkpt lat="42.89604" lon="1.83272">
        <ele>840.81005859375</ele>
        <time>2013-03-31T08:09:23Z</time>
      </trkpt>
      <trkpt lat="42.89599" lon="1.83268">
        <ele>843.69409179688</ele>
        <time>2013-03-31T08:09:29Z</time>
      </trkpt>
      <trkpt lat="42.89598" lon="1.83266">
        <ele>843.21337890625</ele>
        <time>2013-03-31T08:09:31Z</time>
      </trkpt>
      <trkpt lat="42.89597" lon="1.83264">
        <ele>846.57836914062</ele>
        <time>2013-03-31T08:09:37Z</time>
      </trkpt>
      <trkpt lat="42.8959" lon="1.83262">
        <ele>847.53955078125</ele>
        <time>2013-03-31T08:09:42Z</time>
      </trkpt>
      <trkpt lat="42.89585" lon="1.83262">
        <ele>845.61694335938</ele>
        <time>2013-03-31T08:09:46Z</time>
      </trkpt>
      <trkpt lat="42.89582" lon="1.8326">
        <ele>844.17504882812</ele>
        <time>2013-03-31T08:09:49Z</time>
      </trkpt>
      <trkpt lat="42.89579" lon="1.83255">
        <ele>848.02026367188</ele>
        <time>2013-03-31T08:09:53Z</time>
      </trkpt>
      <trkpt lat="42.89572" lon="1.83253">
        <ele>850.90405273438</ele>
        <time>2013-03-31T08:10:00Z</time>
      </trkpt>
      <trkpt lat="42.89569" lon="1.83251">
        <ele>851.384765625</ele>
        <time>2013-03-31T08:10:05Z</time>
      </trkpt>
      <trkpt lat="42.8956" lon="1.83251">
        <ele>850.90405273438</ele>
        <time>2013-03-31T08:10:11Z</time>
      </trkpt>
      <trkpt lat="42.89558" lon="1.8325">
        <ele>849.46215820312</ele>
        <time>2013-03-31T08:10:12Z</time>
      </trkpt>
      <trkpt lat="42.89549" lon="1.83249">
        <ele>845.13623046875</ele>
        <time>2013-03-31T08:10:19Z</time>
      </trkpt>
      <trkpt lat="42.89544" lon="1.83246">
        <ele>844.65551757812</ele>
        <time>2013-03-31T08:10:26Z</time>
      </trkpt>
      <trkpt lat="42.89541" lon="1.83242">
        <ele>847.53955078125</ele>
        <time>2013-03-31T08:10:33Z</time>
      </trkpt>
      <trkpt lat="42.89536" lon="1.83236">
        <ele>846.09765625</ele>
        <time>2013-03-31T08:10:39Z</time>
      </trkpt>
      <trkpt lat="42.89529" lon="1.83231">
        <ele>846.09765625</ele>
        <time>2013-03-31T08:10:46Z</time>
      </trkpt>
      <trkpt lat="42.89523" lon="1.83228">
        <ele>846.57836914062</ele>
        <time>2013-03-31T08:10:51Z</time>
      </trkpt>
      <trkpt lat="42.89522" lon="1.83228">
        <ele>846.57836914062</ele>
        <time>2013-03-31T08:10:52Z</time>
      </trkpt>
      <trkpt lat="42.89518" lon="1.83226">
        <ele>845.61694335938</ele>
        <time>2013-03-31T08:10:57Z</time>
      </trkpt>
      <trkpt lat="42.89511" lon="1.83223">
        <ele>844.65551757812</ele>
        <time>2013-03-31T08:11:04Z</time>
      </trkpt>
      <trkpt lat="42.89505" lon="1.83219">
        <ele>845.61694335938</ele>
        <time>2013-03-31T08:11:10Z</time>
      </trkpt>
      <trkpt lat="42.89502" lon="1.83219">
        <ele>846.57836914062</ele>
        <time>2013-03-31T08:11:12Z</time>
      </trkpt>
      <trkpt lat="42.89496" lon="1.83218">
        <ele>845.61694335938</ele>
        <time>2013-03-31T08:11:18Z</time>
      </trkpt>
      <trkpt lat="42.8949" lon="1.83211">
        <ele>845.61694335938</ele>
        <time>2013-03-31T08:11:25Z</time>
      </trkpt>
      <trkpt lat="42.89487" lon="1.83205">
        <ele>845.61694335938</ele>
        <time>2013-03-31T08:11:30Z</time>
      </trkpt>
      <trkpt lat="42.89486" lon="1.83204">
        <ele>845.61694335938</ele>
        <time>2013-03-31T08:11:31Z</time>
      </trkpt>
      <trkpt lat="42.89482" lon="1.832">
        <ele>844.17504882812</ele>
        <time>2013-03-31T08:11:35Z</time>
      </trkpt>
      <trkpt lat="42.8948" lon="1.83198">
        <ele>845.13623046875</ele>
        <time>2013-03-31T08:11:37Z</time>
      </trkpt>
      <trkpt lat="42.89475" lon="1.83192">
        <ele>847.05883789062</ele>
        <time>2013-03-31T08:11:41Z</time>
      </trkpt>
      <trkpt lat="42.89473" lon="1.83186">
        <ele>849.46215820312</ele>
        <time>2013-03-31T08:11:47Z</time>
      </trkpt>
      <trkpt lat="42.89473" lon="1.83183">
        <ele>849.94287109375</ele>
        <time>2013-03-31T08:11:50Z</time>
      </trkpt>
      <trkpt lat="42.89471" lon="1.83178">
        <ele>848.9814453125</ele>
        <time>2013-03-31T08:11:53Z</time>
      </trkpt>
      <trkpt lat="42.89468" lon="1.83175">
        <ele>850.42358398438</ele>
        <time>2013-03-31T08:11:56Z</time>
      </trkpt>
      <trkpt lat="42.89462" lon="1.83167">
        <ele>848.50073242188</ele>
        <time>2013-03-31T08:12:03Z</time>
      </trkpt>
      <trkpt lat="42.89454" lon="1.83159">
        <ele>852.34594726562</ele>
        <time>2013-03-31T08:12:11Z</time>
      </trkpt>
      <trkpt lat="42.8945" lon="1.83154">
        <ele>855.71069335938</ele>
        <time>2013-03-31T08:12:16Z</time>
      </trkpt>
      <trkpt lat="42.89448" lon="1.83151">
        <ele>858.59448242188</ele>
        <time>2013-03-31T08:12:21Z</time>
      </trkpt>
      <trkpt lat="42.89449" lon="1.83148">
        <ele>860.03662109375</ele>
        <time>2013-03-31T08:12:23Z</time>
      </trkpt>
      <trkpt lat="42.89447" lon="1.83141">
        <ele>862.92065429688</ele>
        <time>2013-03-31T08:12:28Z</time>
      </trkpt>
      <trkpt lat="42.89444" lon="1.83133">
        <ele>869.64990234375</ele>
        <time>2013-03-31T08:12:34Z</time>
      </trkpt>
      <trkpt lat="42.89438" lon="1.83123">
        <ele>876.37915039062</ele>
        <time>2013-03-31T08:12:40Z</time>
      </trkpt>
      <trkpt lat="42.89432" lon="1.83113">
        <ele>878.78247070312</ele>
        <time>2013-03-31T08:12:46Z</time>
      </trkpt>
      <trkpt lat="42.8943" lon="1.83112">
        <ele>878.3017578125</ele>
        <time>2013-03-31T08:12:48Z</time>
      </trkpt>
      <trkpt lat="42.89423" lon="1.83105">
        <ele>879.26293945312</ele>
        <time>2013-03-31T08:12:54Z</time>
      </trkpt>
      <trkpt lat="42.89417" lon="1.83098">
        <ele>878.78247070312</ele>
        <time>2013-03-31T08:13:01Z</time>
      </trkpt>
      <trkpt lat="42.89412" lon="1.83093">
        <ele>875.89819335938</ele>
        <time>2013-03-31T08:13:07Z</time>
      </trkpt>
      <trkpt lat="42.89407" lon="1.83088">
        <ele>875.41748046875</ele>
        <time>2013-03-31T08:13:13Z</time>
      </trkpt>
      <trkpt lat="42.89405" lon="1.83081">
        <ele>873.4951171875</ele>
        <time>2013-03-31T08:13:18Z</time>
      </trkpt>
      <trkpt lat="42.894" lon="1.83072">
        <ele>874.45629882812</ele>
        <time>2013-03-31T08:13:26Z</time>
      </trkpt>
      <trkpt lat="42.89399" lon="1.83068">
        <ele>876.37915039062</ele>
        <time>2013-03-31T08:13:29Z</time>
      </trkpt>
      <trkpt lat="42.89398" lon="1.83065">
        <ele>877.34057617188</ele>
        <time>2013-03-31T08:13:31Z</time>
      </trkpt>
      <trkpt lat="42.89395" lon="1.8306">
        <ele>879.26293945312</ele>
        <time>2013-03-31T08:13:36Z</time>
      </trkpt>
      <trkpt lat="42.89391" lon="1.83055">
        <ele>880.705078125</ele>
        <time>2013-03-31T08:13:41Z</time>
      </trkpt>
      <trkpt lat="42.89387" lon="1.83048">
        <ele>883.10815429688</ele>
        <time>2013-03-31T08:13:47Z</time>
      </trkpt>
      <trkpt lat="42.89384" lon="1.83041">
        <ele>886.95336914062</ele>
        <time>2013-03-31T08:13:53Z</time>
      </trkpt>
      <trkpt lat="42.8938" lon="1.83035">
        <ele>886.95336914062</ele>
        <time>2013-03-31T08:13:59Z</time>
      </trkpt>
      <trkpt lat="42.89378" lon="1.83034">
        <ele>886.95336914062</ele>
        <time>2013-03-31T08:14:00Z</time>
      </trkpt>
      <trkpt lat="42.89375" lon="1.83028">
        <ele>887.91479492188</ele>
        <time>2013-03-31T08:14:06Z</time>
      </trkpt>
      <trkpt lat="42.8937" lon="1.83022">
        <ele>888.3955078125</ele>
        <time>2013-03-31T08:14:12Z</time>
      </trkpt>
      <trkpt lat="42.8937" lon="1.8302">
        <ele>887.91479492188</ele>
        <time>2013-03-31T08:14:14Z</time>
      </trkpt>
      <trkpt lat="42.89366" lon="1.83005">
        <ele>888.3955078125</ele>
        <time>2013-03-31T08:14:23Z</time>
      </trkpt>
      <trkpt lat="42.89365" lon="1.83004">
        <ele>889.35668945312</ele>
        <time>2013-03-31T08:14:24Z</time>
      </trkpt>
      <trkpt lat="42.89362" lon="1.82999">
        <ele>889.83740234375</ele>
        <time>2013-03-31T08:14:30Z</time>
      </trkpt>
      <trkpt lat="42.89355" lon="1.8299">
        <ele>891.76000976562</ele>
        <time>2013-03-31T08:14:38Z</time>
      </trkpt>
      <trkpt lat="42.89355" lon="1.82988">
        <ele>891.76000976562</ele>
        <time>2013-03-31T08:14:39Z</time>
      </trkpt>
      <trkpt lat="42.89354" lon="1.8298">
        <ele>891.76000976562</ele>
        <time>2013-03-31T08:14:44Z</time>
      </trkpt>
      <trkpt lat="42.89352" lon="1.82973">
        <ele>890.31811523438</ele>
        <time>2013-03-31T08:14:49Z</time>
      </trkpt>
      <trkpt lat="42.8935" lon="1.8297">
        <ele>898.0087890625</ele>
        <time>2013-03-31T08:14:55Z</time>
      </trkpt>
      <trkpt lat="42.89349" lon="1.82976">
        <ele>901.85400390625</ele>
        <time>2013-03-31T08:15:00Z</time>
      </trkpt>
      <trkpt lat="42.89348" lon="1.82994">
        <ele>906.1796875</ele>
        <time>2013-03-31T08:15:06Z</time>
      </trkpt>
      <trkpt lat="42.89348" lon="1.83004">
        <ele>907.62182617188</ele>
        <time>2013-03-31T08:15:10Z</time>
      </trkpt>
      <trkpt lat="42.89348" lon="1.83006">
        <ele>908.10278320312</ele>
        <time>2013-03-31T08:15:11Z</time>
      </trkpt>
      <trkpt lat="42.89342" lon="1.83022">
        <ele>908.10278320312</ele>
        <time>2013-03-31T08:15:18Z</time>
      </trkpt>
      <trkpt lat="42.89338" lon="1.83031">
        <ele>908.10278320312</ele>
        <time>2013-03-31T08:15:22Z</time>
      </trkpt>
      <trkpt lat="42.89332" lon="1.83041">
        <ele>907.62182617188</ele>
        <time>2013-03-31T08:15:27Z</time>
      </trkpt>
      <trkpt lat="42.89331" lon="1.83045">
        <ele>908.58325195312</ele>
        <time>2013-03-31T08:15:29Z</time>
      </trkpt>
      <trkpt lat="42.89329" lon="1.83053">
        <ele>911.94799804688</ele>
        <time>2013-03-31T08:15:32Z</time>
      </trkpt>
      <trkpt lat="42.89323" lon="1.83064">
        <ele>915.3125</ele>
        <time>2013-03-31T08:15:37Z</time>
      </trkpt>
      <trkpt lat="42.89318" lon="1.83075">
        <ele>917.71557617188</ele>
        <time>2013-03-31T08:15:43Z</time>
      </trkpt>
      <trkpt lat="42.8931" lon="1.83088">
        <ele>921.08032226562</ele>
        <time>2013-03-31T08:15:48Z</time>
      </trkpt>
      <trkpt lat="42.89308" lon="1.83094">
        <ele>923.0029296875</ele>
        <time>2013-03-31T08:15:50Z</time>
      </trkpt>
      <trkpt lat="42.89308" lon="1.83102">
        <ele>926.36767578125</ele>
        <time>2013-03-31T08:15:53Z</time>
      </trkpt>
      <trkpt lat="42.89299" lon="1.83111">
        <ele>928.29028320312</ele>
        <time>2013-03-31T08:15:58Z</time>
      </trkpt>
      <trkpt lat="42.89291" lon="1.83118">
        <ele>929.25146484375</ele>
        <time>2013-03-31T08:16:02Z</time>
      </trkpt>
      <trkpt lat="42.89284" lon="1.83126">
        <ele>926.36767578125</ele>
        <time>2013-03-31T08:16:05Z</time>
      </trkpt>
      <trkpt lat="42.89273" lon="1.83144">
        <ele>922.52221679688</ele>
        <time>2013-03-31T08:16:11Z</time>
      </trkpt>
      <trkpt lat="42.89266" lon="1.83157">
        <ele>918.1962890625</ele>
        <time>2013-03-31T08:16:16Z</time>
      </trkpt>
      <trkpt lat="42.89264" lon="1.83158">
        <ele>917.71557617188</ele>
        <time>2013-03-31T08:16:17Z</time>
      </trkpt>
      <trkpt lat="42.89259" lon="1.83167">
        <ele>918.67700195312</ele>
        <time>2013-03-31T08:16:22Z</time>
      </trkpt>
      <trkpt lat="42.89251" lon="1.83179">
        <ele>917.23510742188</ele>
        <time>2013-03-31T08:16:26Z</time>
      </trkpt>
      <trkpt lat="42.89246" lon="1.8319">
        <ele>917.23510742188</ele>
        <time>2013-03-31T08:16:30Z</time>
      </trkpt>
      <trkpt lat="42.89242" lon="1.83203">
        <ele>916.75439453125</ele>
        <time>2013-03-31T08:16:34Z</time>
      </trkpt>
      <trkpt lat="42.89237" lon="1.83224">
        <ele>921.08032226562</ele>
        <time>2013-03-31T08:16:40Z</time>
      </trkpt>
      <trkpt lat="42.89235" lon="1.83234">
        <ele>919.15771484375</ele>
        <time>2013-03-31T08:16:43Z</time>
      </trkpt>
      <trkpt lat="42.89229" lon="1.83248">
        <ele>916.27368164062</ele>
        <time>2013-03-31T08:16:48Z</time>
      </trkpt>
      <trkpt lat="42.8922" lon="1.83261">
        <ele>914.35107421875</ele>
        <time>2013-03-31T08:16:53Z</time>
      </trkpt>
      <trkpt lat="42.89219" lon="1.83264">
        <ele>915.3125</ele>
        <time>2013-03-31T08:16:54Z</time>
      </trkpt>
      <trkpt lat="42.89205" lon="1.8328">
        <ele>912.9091796875</ele>
        <time>2013-03-31T08:17:00Z</time>
      </trkpt>
      <trkpt lat="42.89198" lon="1.83288">
        <ele>915.79321289062</ele>
        <time>2013-03-31T08:17:03Z</time>
      </trkpt>
      <trkpt lat="42.89185" lon="1.83302">
        <ele>915.3125</ele>
        <time>2013-03-31T08:17:09Z</time>
      </trkpt>
      <trkpt lat="42.89182" lon="1.83306">
        <ele>915.3125</ele>
        <time>2013-03-31T08:17:11Z</time>
      </trkpt>
      <trkpt lat="42.89172" lon="1.83317">
        <ele>911.94799804688</ele>
        <time>2013-03-31T08:17:16Z</time>
      </trkpt>
      <trkpt lat="42.89165" lon="1.83328">
        <ele>912.42846679688</ele>
        <time>2013-03-31T08:17:21Z</time>
      </trkpt>
      <trkpt lat="42.89164" lon="1.8333">
        <ele>912.42846679688</ele>
        <time>2013-03-31T08:17:22Z</time>
      </trkpt>
      <trkpt lat="42.8916" lon="1.83338">
        <ele>916.27368164062</ele>
        <time>2013-03-31T08:17:28Z</time>
      </trkpt>
      <trkpt lat="42.89158" lon="1.83341">
        <ele>916.75439453125</ele>
        <time>2013-03-31T08:17:29Z</time>
      </trkpt>
      <trkpt lat="42.89145" lon="1.83345">
        <ele>922.04150390625</ele>
        <time>2013-03-31T08:17:35Z</time>
      </trkpt>
      <trkpt lat="42.89133" lon="1.83344">
        <ele>923.96411132812</ele>
        <time>2013-03-31T08:17:39Z</time>
      </trkpt>
      <trkpt lat="42.89121" lon="1.83338">
        <ele>923.96411132812</ele>
        <time>2013-03-31T08:17:44Z</time>
      </trkpt>
      <trkpt lat="42.89114" lon="1.83336">
        <ele>922.04150390625</ele>
        <time>2013-03-31T08:17:48Z</time>
      </trkpt>
      <trkpt lat="42.89101" lon="1.83332">
        <ele>920.599609375</ele>
        <time>2013-03-31T08:17:53Z</time>
      </trkpt>
      <trkpt lat="42.89096" lon="1.8332">
        <ele>916.27368164062</ele>
        <time>2013-03-31T08:17:59Z</time>
      </trkpt>
      <trkpt lat="42.89087" lon="1.83312">
        <ele>913.87036132812</ele>
        <time>2013-03-31T08:18:03Z</time>
      </trkpt>
      <trkpt lat="42.89085" lon="1.8331">
        <ele>912.9091796875</ele>
        <time>2013-03-31T08:18:04Z</time>
      </trkpt>
      <trkpt lat="42.89079" lon="1.83302">
        <ele>911.94799804688</ele>
        <time>2013-03-31T08:18:08Z</time>
      </trkpt>
      <trkpt lat="42.89072" lon="1.83295">
        <ele>910.02514648438</ele>
        <time>2013-03-31T08:18:12Z</time>
      </trkpt>
      <trkpt lat="42.89065" lon="1.8329">
        <ele>909.06396484375</ele>
        <time>2013-03-31T08:18:17Z</time>
      </trkpt>
      <trkpt lat="42.89055" lon="1.83285">
        <ele>909.54467773438</ele>
        <time>2013-03-31T08:18:22Z</time>
      </trkpt>
      <trkpt lat="42.89047" lon="1.83278">
        <ele>910.02514648438</ele>
        <time>2013-03-31T08:18:28Z</time>
      </trkpt>
      <trkpt lat="42.89043" lon="1.83273">
        <ele>908.58325195312</ele>
        <time>2013-03-31T08:18:31Z</time>
      </trkpt>
      <trkpt lat="42.89035" lon="1.83266">
        <ele>908.10278320312</ele>
        <time>2013-03-31T08:18:35Z</time>
      </trkpt>
      <trkpt lat="42.89021" lon="1.83254">
        <ele>908.10278320312</ele>
        <time>2013-03-31T08:18:41Z</time>
      </trkpt>
      <trkpt lat="42.89014" lon="1.83245">
        <ele>909.54467773438</ele>
        <time>2013-03-31T08:18:45Z</time>
      </trkpt>
      <trkpt lat="42.89009" lon="1.83239">
        <ele>911.46728515625</ele>
        <time>2013-03-31T08:18:48Z</time>
      </trkpt>
      <trkpt lat="42.88999" lon="1.83233">
        <ele>913.87036132812</ele>
        <time>2013-03-31T08:18:54Z</time>
      </trkpt>
      <trkpt lat="42.88989" lon="1.83231">
        <ele>914.35107421875</ele>
        <time>2013-03-31T08:18:58Z</time>
      </trkpt>
      <trkpt lat="42.88977" lon="1.83229">
        <ele>916.27368164062</ele>
        <time>2013-03-31T08:19:03Z</time>
      </trkpt>
      <trkpt lat="42.88973" lon="1.8323">
        <ele>917.23510742188</ele>
        <time>2013-03-31T08:19:06Z</time>
      </trkpt>
      <trkpt lat="42.88963" lon="1.83228">
        <ele>918.67700195312</ele>
        <time>2013-03-31T08:19:10Z</time>
      </trkpt>
      <trkpt lat="42.88953" lon="1.83225">
        <ele>919.15771484375</ele>
        <time>2013-03-31T08:19:14Z</time>
      </trkpt>
      <trkpt lat="42.88935" lon="1.83222">
        <ele>920.599609375</ele>
        <time>2013-03-31T08:19:21Z</time>
      </trkpt>
      <trkpt lat="42.88921" lon="1.83221">
        <ele>921.56079101562</ele>
        <time>2013-03-31T08:19:27Z</time>
      </trkpt>
      <trkpt lat="42.88913" lon="1.83219">
        <ele>922.04150390625</ele>
        <time>2013-03-31T08:19:31Z</time>
      </trkpt>
      <trkpt lat="42.88901" lon="1.83217">
        <ele>922.52221679688</ele>
        <time>2013-03-31T08:19:36Z</time>
      </trkpt>
      <trkpt lat="42.88889" lon="1.83216">
        <ele>923.0029296875</ele>
        <time>2013-03-31T08:19:41Z</time>
      </trkpt>
      <trkpt lat="42.88885" lon="1.83216">
        <ele>923.0029296875</ele>
        <time>2013-03-31T08:19:43Z</time>
      </trkpt>
      <trkpt lat="42.88876" lon="1.8321">
        <ele>922.52221679688</ele>
        <time>2013-03-31T08:19:49Z</time>
      </trkpt>
      <trkpt lat="42.88866" lon="1.83206">
        <ele>923.0029296875</ele>
        <time>2013-03-31T08:19:54Z</time>
      </trkpt>
      <trkpt lat="42.88861" lon="1.83208">
        <ele>923.48364257812</ele>
        <time>2013-03-31T08:19:58Z</time>
      </trkpt>
      <trkpt lat="42.88848" lon="1.83212">
        <ele>923.0029296875</ele>
        <time>2013-03-31T08:20:04Z</time>
      </trkpt>
      <trkpt lat="42.88839" lon="1.83213">
        <ele>922.04150390625</ele>
        <time>2013-03-31T08:20:08Z</time>
      </trkpt>
      <trkpt lat="42.88829" lon="1.83214">
        <ele>920.599609375</ele>
        <time>2013-03-31T08:20:13Z</time>
      </trkpt>
      <trkpt lat="42.88818" lon="1.83217">
        <ele>919.15771484375</ele>
        <time>2013-03-31T08:20:18Z</time>
      </trkpt>
      <trkpt lat="42.88803" lon="1.83212">
        <ele>916.27368164062</ele>
        <time>2013-03-31T08:20:25Z</time>
      </trkpt>
      <trkpt lat="42.88794" lon="1.83204">
        <ele>912.9091796875</ele>
        <time>2013-03-31T08:20:30Z</time>
      </trkpt>
      <trkpt lat="42.88784" lon="1.83196">
        <ele>910.505859375</ele>
        <time>2013-03-31T08:20:35Z</time>
      </trkpt>
      <trkpt lat="42.88781" lon="1.83192">
        <ele>910.02514648438</ele>
        <time>2013-03-31T08:20:37Z</time>
      </trkpt>
      <trkpt lat="42.88774" lon="1.83183">
        <ele>909.06396484375</ele>
        <time>2013-03-31T08:20:41Z</time>
      </trkpt>
      <trkpt lat="42.88765" lon="1.83173">
        <ele>907.14111328125</ele>
        <time>2013-03-31T08:20:45Z</time>
      </trkpt>
      <trkpt lat="42.88762" lon="1.83168">
        <ele>906.1796875</ele>
        <time>2013-03-31T08:20:47Z</time>
      </trkpt>
      <trkpt lat="42.88754" lon="1.83163">
        <ele>903.77661132812</ele>
        <time>2013-03-31T08:20:51Z</time>
      </trkpt>
      <trkpt lat="42.8875" lon="1.83161">
        <ele>902.33447265625</ele>
        <time>2013-03-31T08:20:53Z</time>
      </trkpt>
      <trkpt lat="42.88739" lon="1.83147">
        <ele>898.4892578125</ele>
        <time>2013-03-31T08:21:00Z</time>
      </trkpt>
      <trkpt lat="42.88728" lon="1.83132">
        <ele>897.04736328125</ele>
        <time>2013-03-31T08:21:05Z</time>
      </trkpt>
      <trkpt lat="42.88718" lon="1.83116">
        <ele>894.64404296875</ele>
        <time>2013-03-31T08:21:10Z</time>
      </trkpt>
      <trkpt lat="42.88716" lon="1.8311">
        <ele>893.2021484375</ele>
        <time>2013-03-31T08:21:12Z</time>
      </trkpt>
      <trkpt lat="42.88705" lon="1.83095">
        <ele>889.83740234375</ele>
        <time>2013-03-31T08:21:18Z</time>
      </trkpt>
      <trkpt lat="42.88703" lon="1.83089">
        <ele>888.87622070312</ele>
        <time>2013-03-31T08:21:20Z</time>
      </trkpt>
      <trkpt lat="42.88697" lon="1.8308">
        <ele>886.95336914062</ele>
        <time>2013-03-31T08:21:24Z</time>
      </trkpt>
      <trkpt lat="42.88691" lon="1.83069">
        <ele>885.03100585938</ele>
        <time>2013-03-31T08:21:29Z</time>
      </trkpt>
      <trkpt lat="42.8869" lon="1.83067">
        <ele>884.55029296875</ele>
        <time>2013-03-31T08:21:30Z</time>
      </trkpt>
      <trkpt lat="42.88684" lon="1.83064">
        <ele>883.5888671875</ele>
        <time>2013-03-31T08:21:35Z</time>
      </trkpt>
      <trkpt lat="42.88671" lon="1.83066">
        <ele>879.74365234375</ele>
        <time>2013-03-31T08:21:42Z</time>
      </trkpt>
      <trkpt lat="42.88664" lon="1.8307">
        <ele>877.34057617188</ele>
        <time>2013-03-31T08:21:46Z</time>
      </trkpt>
      <trkpt lat="42.88657" lon="1.8308">
        <ele>875.89819335938</ele>
        <time>2013-03-31T08:21:50Z</time>
      </trkpt>
      <trkpt lat="42.88646" lon="1.83082">
        <ele>874.93701171875</ele>
        <time>2013-03-31T08:21:54Z</time>
      </trkpt>
      <trkpt lat="42.88628" lon="1.83084">
        <ele>873.01440429688</ele>
        <time>2013-03-31T08:22:00Z</time>
      </trkpt>
      <trkpt lat="42.88613" lon="1.83084">
        <ele>872.53369140625</ele>
        <time>2013-03-31T08:22:05Z</time>
      </trkpt>
      <trkpt lat="42.88611" lon="1.83083">
        <ele>872.05297851562</ele>
        <time>2013-03-31T08:22:06Z</time>
      </trkpt>
      <trkpt lat="42.886" lon="1.83079">
        <ele>870.61108398438</ele>
        <time>2013-03-31T08:22:11Z</time>
      </trkpt>
      <trkpt lat="42.88588" lon="1.83084">
        <ele>870.13037109375</ele>
        <time>2013-03-31T08:22:15Z</time>
      </trkpt>
      <trkpt lat="42.88575" lon="1.8309">
        <ele>866.76586914062</ele>
        <time>2013-03-31T08:22:20Z</time>
      </trkpt>
      <trkpt lat="42.88561" lon="1.83094">
        <ele>865.32397460938</ele>
        <time>2013-03-31T08:22:26Z</time>
      </trkpt>
      <trkpt lat="42.88548" lon="1.83097">
        <ele>866.28515625</ele>
        <time>2013-03-31T08:22:31Z</time>
      </trkpt>
      <trkpt lat="42.88538" lon="1.83101">
        <ele>868.6884765625</ele>
        <time>2013-03-31T08:22:35Z</time>
      </trkpt>
      <trkpt lat="42.88524" lon="1.83106">
        <ele>871.091796875</ele>
        <time>2013-03-31T08:22:40Z</time>
      </trkpt>
      <trkpt lat="42.88514" lon="1.83112">
        <ele>871.572265625</ele>
        <time>2013-03-31T08:22:44Z</time>
      </trkpt>
      <trkpt lat="42.88513" lon="1.83112">
        <ele>872.05297851562</ele>
        <time>2013-03-31T08:22:45Z</time>
      </trkpt>
      <trkpt lat="42.88502" lon="1.83112">
        <ele>873.4951171875</ele>
        <time>2013-03-31T08:22:50Z</time>
      </trkpt>
      <trkpt lat="42.88493" lon="1.83108">
        <ele>872.53369140625</ele>
        <time>2013-03-31T08:22:55Z</time>
      </trkpt>
      <trkpt lat="42.88486" lon="1.83106">
        <ele>871.572265625</ele>
        <time>2013-03-31T08:22:58Z</time>
      </trkpt>
      <trkpt lat="42.88475" lon="1.83103">
        <ele>870.13037109375</ele>
        <time>2013-03-31T08:23:04Z</time>
      </trkpt>
      <trkpt lat="42.88466" lon="1.83103">
        <ele>869.16918945312</ele>
        <time>2013-03-31T08:23:09Z</time>
      </trkpt>
      <trkpt lat="42.88459" lon="1.83102">
        <ele>869.16918945312</ele>
        <time>2013-03-31T08:23:14Z</time>
      </trkpt>
      <trkpt lat="42.88456" lon="1.831">
        <ele>869.64990234375</ele>
        <time>2013-03-31T08:23:17Z</time>
      </trkpt>
      <trkpt lat="42.88443" lon="1.83098">
        <ele>870.13037109375</ele>
        <time>2013-03-31T08:23:22Z</time>
      </trkpt>
      <trkpt lat="42.8843" lon="1.83092">
        <ele>872.05297851562</ele>
        <time>2013-03-31T08:23:31Z</time>
      </trkpt>
      <trkpt lat="42.88427" lon="1.83091">
        <ele>872.53369140625</ele>
        <time>2013-03-31T08:23:33Z</time>
      </trkpt>
      <trkpt lat="42.88418" lon="1.83084">
        <ele>872.05297851562</ele>
        <time>2013-03-31T08:23:39Z</time>
      </trkpt>
      <trkpt lat="42.88411" lon="1.83077">
        <ele>873.4951171875</ele>
        <time>2013-03-31T08:23:43Z</time>
      </trkpt>
      <trkpt lat="42.88404" lon="1.83074">
        <ele>877.34057617188</ele>
        <time>2013-03-31T08:23:47Z</time>
      </trkpt>
      <trkpt lat="42.884" lon="1.83073">
        <ele>878.3017578125</ele>
        <time>2013-03-31T08:23:49Z</time>
      </trkpt>
      <trkpt lat="42.88391" lon="1.83067">
        <ele>880.22436523438</ele>
        <time>2013-03-31T08:23:54Z</time>
      </trkpt>
      <trkpt lat="42.88377" lon="1.8306">
        <ele>882.14697265625</ele>
        <time>2013-03-31T08:23:59Z</time>
      </trkpt>
      <trkpt lat="42.88367" lon="1.83054">
        <ele>883.10815429688</ele>
        <time>2013-03-31T08:24:05Z</time>
      </trkpt>
      <trkpt lat="42.8836" lon="1.83054">
        <ele>885.03100585938</ele>
        <time>2013-03-31T08:24:10Z</time>
      </trkpt>
      <trkpt lat="42.88353" lon="1.83053">
        <ele>885.51147460938</ele>
        <time>2013-03-31T08:24:17Z</time>
      </trkpt>
      <trkpt lat="42.88351" lon="1.83053">
        <ele>886.95336914062</ele>
        <time>2013-03-31T08:24:19Z</time>
      </trkpt>
      <trkpt lat="42.88345" lon="1.83052">
        <ele>885.51147460938</ele>
        <time>2013-03-31T08:24:23Z</time>
      </trkpt>
      <trkpt lat="42.88335" lon="1.83052">
        <ele>886.47290039062</ele>
        <time>2013-03-31T08:24:28Z</time>
      </trkpt>
      <trkpt lat="42.88326" lon="1.83047">
        <ele>886.95336914062</ele>
        <time>2013-03-31T08:24:34Z</time>
      </trkpt>
      <trkpt lat="42.88322" lon="1.83044">
        <ele>887.43408203125</ele>
        <time>2013-03-31T08:24:36Z</time>
      </trkpt>
      <trkpt lat="42.88318" lon="1.83039">
        <ele>887.91479492188</ele>
        <time>2013-03-31T08:24:39Z</time>
      </trkpt>
      <trkpt lat="42.88309" lon="1.83023">
        <ele>887.43408203125</ele>
        <time>2013-03-31T08:24:46Z</time>
      </trkpt>
      <trkpt lat="42.88308" lon="1.83021">
        <ele>887.43408203125</ele>
        <time>2013-03-31T08:24:47Z</time>
      </trkpt>
      <trkpt lat="42.88303" lon="1.83008">
        <ele>887.43408203125</ele>
        <time>2013-03-31T08:24:52Z</time>
      </trkpt>
      <trkpt lat="42.883" lon="1.83001">
        <ele>886.95336914062</ele>
        <time>2013-03-31T08:24:55Z</time>
      </trkpt>
      <trkpt lat="42.883" lon="1.82993">
        <ele>890.79858398438</ele>
        <time>2013-03-31T08:24:59Z</time>
      </trkpt>
      <trkpt lat="42.88297" lon="1.82986">
        <ele>894.64404296875</ele>
        <time>2013-03-31T08:25:02Z</time>
      </trkpt>
      <trkpt lat="42.88297" lon="1.82983">
        <ele>895.12475585938</ele>
        <time>2013-03-31T08:25:04Z</time>
      </trkpt>
      <trkpt lat="42.88296" lon="1.82979">
        <ele>892.24096679688</ele>
        <time>2013-03-31T08:25:07Z</time>
      </trkpt>
      <trkpt lat="42.88294" lon="1.82974">
        <ele>889.83740234375</ele>
        <time>2013-03-31T08:25:10Z</time>
      </trkpt>
      <trkpt lat="42.88291" lon="1.82967">
        <ele>890.31811523438</ele>
        <time>2013-03-31T08:25:15Z</time>
      </trkpt>
      <trkpt lat="42.88287" lon="1.82961">
        <ele>890.31811523438</ele>
        <time>2013-03-31T08:25:20Z</time>
      </trkpt>
      <trkpt lat="42.88286" lon="1.82955">
        <ele>891.76000976562</ele>
        <time>2013-03-31T08:25:24Z</time>
      </trkpt>
      <trkpt lat="42.88284" lon="1.82946">
        <ele>894.16357421875</ele>
        <time>2013-03-31T08:25:29Z</time>
      </trkpt>
      <trkpt lat="42.88282" lon="1.82936">
        <ele>895.12475585938</ele>
        <time>2013-03-31T08:25:35Z</time>
      </trkpt>
      <trkpt lat="42.88281" lon="1.82934">
        <ele>896.08618164062</ele>
        <time>2013-03-31T08:25:37Z</time>
      </trkpt>
      <trkpt lat="42.88278" lon="1.82927">
        <ele>898.0087890625</ele>
        <time>2013-03-31T08:25:43Z</time>
      </trkpt>
      <trkpt lat="42.88276" lon="1.82921">
        <ele>898.4892578125</ele>
        <time>2013-03-31T08:25:47Z</time>
      </trkpt>
      <trkpt lat="42.88274" lon="1.82919">
        <ele>898.4892578125</ele>
        <time>2013-03-31T08:25:49Z</time>
      </trkpt>
      <trkpt lat="42.88268" lon="1.82911">
        <ele>900.892578125</ele>
        <time>2013-03-31T08:25:55Z</time>
      </trkpt>
      <trkpt lat="42.88268" lon="1.8291">
        <ele>901.37329101562</ele>
        <time>2013-03-31T08:25:56Z</time>
      </trkpt>
      <trkpt lat="42.88265" lon="1.82904">
        <ele>902.33447265625</ele>
        <time>2013-03-31T08:26:00Z</time>
      </trkpt>
      <trkpt lat="42.88264" lon="1.82901">
        <ele>902.81518554688</ele>
        <time>2013-03-31T08:26:04Z</time>
      </trkpt>
      <trkpt lat="42.88259" lon="1.82893">
        <ele>905.21850585938</ele>
        <time>2013-03-31T08:26:12Z</time>
      </trkpt>
      <trkpt lat="42.88253" lon="1.82886">
        <ele>908.10278320312</ele>
        <time>2013-03-31T08:26:18Z</time>
      </trkpt>
      <trkpt lat="42.88248" lon="1.82879">
        <ele>910.98657226562</ele>
        <time>2013-03-31T08:26:23Z</time>
      </trkpt>
      <trkpt lat="42.88242" lon="1.82874">
        <ele>913.87036132812</ele>
        <time>2013-03-31T08:26:29Z</time>
      </trkpt>
      <trkpt lat="42.88234" lon="1.8287">
        <ele>917.71557617188</ele>
        <time>2013-03-31T08:26:35Z</time>
      </trkpt>
      <trkpt lat="42.88233" lon="1.8287">
        <ele>919.63842773438</ele>
        <time>2013-03-31T08:26:36Z</time>
      </trkpt>
      <trkpt lat="42.88228" lon="1.82869">
        <ele>923.48364257812</ele>
        <time>2013-03-31T08:26:40Z</time>
      </trkpt>
      <trkpt lat="42.88222" lon="1.82864">
        <ele>924.44506835938</ele>
        <time>2013-03-31T08:26:46Z</time>
      </trkpt>
      <trkpt lat="42.88217" lon="1.82863">
        <ele>928.77099609375</ele>
        <time>2013-03-31T08:26:51Z</time>
      </trkpt>
      <trkpt lat="42.88214" lon="1.82863">
        <ele>928.29028320312</ele>
        <time>2013-03-31T08:26:54Z</time>
      </trkpt>
      <trkpt lat="42.88208" lon="1.8286">
        <ele>930.212890625</ele>
        <time>2013-03-31T08:27:00Z</time>
      </trkpt>
      <trkpt lat="42.88207" lon="1.8286">
        <ele>930.69360351562</ele>
        <time>2013-03-31T08:27:01Z</time>
      </trkpt>
      <trkpt lat="42.88203" lon="1.82858">
        <ele>930.69360351562</ele>
        <time>2013-03-31T08:27:04Z</time>
      </trkpt>
      <trkpt lat="42.882" lon="1.82857">
        <ele>928.29028320312</ele>
        <time>2013-03-31T08:27:08Z</time>
      </trkpt>
      <trkpt lat="42.88195" lon="1.82858">
        <ele>930.212890625</ele>
        <time>2013-03-31T08:27:14Z</time>
      </trkpt>
      <trkpt lat="42.8819" lon="1.82855">
        <ele>930.212890625</ele>
        <time>2013-03-31T08:27:19Z</time>
      </trkpt>
      <trkpt lat="42.88187" lon="1.82853">
        <ele>929.73217773438</ele>
        <time>2013-03-31T08:27:23Z</time>
      </trkpt>
      <trkpt lat="42.88181" lon="1.82855">
        <ele>930.212890625</ele>
        <time>2013-03-31T08:27:30Z</time>
      </trkpt>
      <trkpt lat="42.88179" lon="1.82856">
        <ele>931.17431640625</ele>
        <time>2013-03-31T08:27:32Z</time>
      </trkpt>
      <trkpt lat="42.88172" lon="1.82859">
        <ele>933.0966796875</ele>
        <time>2013-03-31T08:27:37Z</time>
      </trkpt>
      <trkpt lat="42.88163" lon="1.82853">
        <ele>935.5</ele>
        <time>2013-03-31T08:27:44Z</time>
      </trkpt>
      <trkpt lat="42.88155" lon="1.82851">
        <ele>936.94189453125</ele>
        <time>2013-03-31T08:27:48Z</time>
      </trkpt>
      <trkpt lat="42.88144" lon="1.82845">
        <ele>939.34521484375</ele>
        <time>2013-03-31T08:27:53Z</time>
      </trkpt>
      <trkpt lat="42.88136" lon="1.82842">
        <ele>943.19067382812</ele>
        <time>2013-03-31T08:27:57Z</time>
      </trkpt>
      <trkpt lat="42.88126" lon="1.82836">
        <ele>948.47778320312</ele>
        <time>2013-03-31T08:28:03Z</time>
      </trkpt>
      <trkpt lat="42.88121" lon="1.82835">
        <ele>950.88110351562</ele>
        <time>2013-03-31T08:28:06Z</time>
      </trkpt>
      <trkpt lat="42.88116" lon="1.82831">
        <ele>951.84252929688</ele>
        <time>2013-03-31T08:28:09Z</time>
      </trkpt>
      <trkpt lat="42.88104" lon="1.82827">
        <ele>953.76513671875</ele>
        <time>2013-03-31T08:28:14Z</time>
      </trkpt>
      <trkpt lat="42.88102" lon="1.82827">
        <ele>954.24584960938</ele>
        <time>2013-03-31T08:28:15Z</time>
      </trkpt>
      <trkpt lat="42.88092" lon="1.82827">
        <ele>953.76513671875</ele>
        <time>2013-03-31T08:28:21Z</time>
      </trkpt>
      <trkpt lat="42.88079" lon="1.82828">
        <ele>952.32299804688</ele>
        <time>2013-03-31T08:28:26Z</time>
      </trkpt>
      <trkpt lat="42.88063" lon="1.8283">
        <ele>951.84252929688</ele>
        <time>2013-03-31T08:28:30Z</time>
      </trkpt>
      <trkpt lat="42.88057" lon="1.82831">
        <ele>951.36181640625</ele>
        <time>2013-03-31T08:28:35Z</time>
      </trkpt>
      <trkpt lat="42.8805" lon="1.8283">
        <ele>952.8037109375</ele>
        <time>2013-03-31T08:28:41Z</time>
      </trkpt>
      <trkpt lat="42.88047" lon="1.82829">
        <ele>954.24584960938</ele>
        <time>2013-03-31T08:28:45Z</time>
      </trkpt>
      <trkpt lat="42.88039" lon="1.82832">
        <ele>955.20703125</ele>
        <time>2013-03-31T08:28:50Z</time>
      </trkpt>
      <trkpt lat="42.88037" lon="1.8283">
        <ele>954.24584960938</ele>
        <time>2013-03-31T08:28:52Z</time>
      </trkpt>
      <trkpt lat="42.88036" lon="1.82827">
        <ele>953.76513671875</ele>
        <time>2013-03-31T08:28:55Z</time>
      </trkpt>
      <trkpt lat="42.88035" lon="1.82824">
        <ele>952.32299804688</ele>
        <time>2013-03-31T08:28:57Z</time>
      </trkpt>
      <trkpt lat="42.8803" lon="1.82819">
        <ele>947.03588867188</ele>
        <time>2013-03-31T08:28:59Z</time>
      </trkpt>
      <trkpt lat="42.88028" lon="1.82818">
        <ele>946.55541992188</ele>
        <time>2013-03-31T08:29:01Z</time>
      </trkpt>
      <trkpt lat="42.88025" lon="1.82812">
        <ele>944.63256835938</ele>
        <time>2013-03-31T08:29:05Z</time>
      </trkpt>
      <trkpt lat="42.88013" lon="1.82808">
        <ele>941.74877929688</ele>
        <time>2013-03-31T08:29:11Z</time>
      </trkpt>
      <trkpt lat="42.88011" lon="1.82806">
        <ele>941.26806640625</ele>
        <time>2013-03-31T08:29:12Z</time>
      </trkpt>
      <trkpt lat="42.88005" lon="1.82792">
        <ele>937.42260742188</ele>
        <time>2013-03-31T08:29:18Z</time>
      </trkpt>
      <trkpt lat="42.88003" lon="1.82789">
        <ele>935.5</ele>
        <time>2013-03-31T08:29:20Z</time>
      </trkpt>
      <trkpt lat="42.87994" lon="1.82776">
        <ele>933.0966796875</ele>
        <time>2013-03-31T08:29:26Z</time>
      </trkpt>
      <trkpt lat="42.87983" lon="1.82762">
        <ele>930.69360351562</ele>
        <time>2013-03-31T08:29:32Z</time>
      </trkpt>
      <trkpt lat="42.87976" lon="1.82746">
        <ele>928.77099609375</ele>
        <time>2013-03-31T08:29:37Z</time>
      </trkpt>
      <trkpt lat="42.87968" lon="1.82733">
        <ele>929.73217773438</ele>
        <time>2013-03-31T08:29:41Z</time>
      </trkpt>
      <trkpt lat="42.87961" lon="1.82721">
        <ele>929.73217773438</ele>
        <time>2013-03-31T08:29:45Z</time>
      </trkpt>
      <trkpt lat="42.87955" lon="1.82711">
        <ele>930.212890625</ele>
        <time>2013-03-31T08:29:49Z</time>
      </trkpt>
      <trkpt lat="42.87952" lon="1.82705">
        <ele>930.69360351562</ele>
        <time>2013-03-31T08:29:51Z</time>
      </trkpt>
      <trkpt lat="42.87945" lon="1.82684">
        <ele>929.73217773438</ele>
        <time>2013-03-31T08:29:57Z</time>
      </trkpt>
      <trkpt lat="42.87942" lon="1.82679">
        <ele>930.212890625</ele>
        <time>2013-03-31T08:29:59Z</time>
      </trkpt>
      <trkpt lat="42.87937" lon="1.8267">
        <ele>931.17431640625</ele>
        <time>2013-03-31T08:30:03Z</time>
      </trkpt>
      <trkpt lat="42.87934" lon="1.82664">
        <ele>931.65478515625</ele>
        <time>2013-03-31T08:30:06Z</time>
      </trkpt>
      <trkpt lat="42.87933" lon="1.82658">
        <ele>932.13549804688</ele>
        <time>2013-03-31T08:30:10Z</time>
      </trkpt>
      <trkpt lat="42.87931" lon="1.8265">
        <ele>932.13549804688</ele>
        <time>2013-03-31T08:30:13Z</time>
      </trkpt>
      <trkpt lat="42.87921" lon="1.82636">
        <ele>929.73217773438</ele>
        <time>2013-03-31T08:30:18Z</time>
      </trkpt>
      <trkpt lat="42.87915" lon="1.82617">
        <ele>926.84838867188</ele>
        <time>2013-03-31T08:30:24Z</time>
      </trkpt>
      <trkpt lat="42.87906" lon="1.82602">
        <ele>930.69360351562</ele>
        <time>2013-03-31T08:30:30Z</time>
      </trkpt>
      <trkpt lat="42.87902" lon="1.82594">
        <ele>931.65478515625</ele>
        <time>2013-03-31T08:30:32Z</time>
      </trkpt>
      <trkpt lat="42.87894" lon="1.8258">
        <ele>935.5</ele>
        <time>2013-03-31T08:30:37Z</time>
      </trkpt>
      <trkpt lat="42.87889" lon="1.82576">
        <ele>937.42260742188</ele>
        <time>2013-03-31T08:30:40Z</time>
      </trkpt>
      <trkpt lat="42.87887" lon="1.82574">
        <ele>938.38403320312</ele>
        <time>2013-03-31T08:30:42Z</time>
      </trkpt>
      <trkpt lat="42.87878" lon="1.82572">
        <ele>941.74877929688</ele>
        <time>2013-03-31T08:30:47Z</time>
      </trkpt>
      <trkpt lat="42.87875" lon="1.8257">
        <ele>946.55541992188</ele>
        <time>2013-03-31T08:30:51Z</time>
      </trkpt>
      <trkpt lat="42.87874" lon="1.8257">
        <ele>947.99731445312</ele>
        <time>2013-03-31T08:30:52Z</time>
      </trkpt>
      <trkpt lat="42.87869" lon="1.82568">
        <ele>952.8037109375</ele>
        <time>2013-03-31T08:30:57Z</time>
      </trkpt>
      <trkpt lat="42.87867" lon="1.82576">
        <ele>958.09130859375</ele>
        <time>2013-03-31T08:31:01Z</time>
      </trkpt>
      <trkpt lat="42.87862" lon="1.82581">
        <ele>959.05249023438</ele>
        <time>2013-03-31T08:31:05Z</time>
      </trkpt>
      <trkpt lat="42.87858" lon="1.82592">
        <ele>964.8203125</ele>
        <time>2013-03-31T08:31:12Z</time>
      </trkpt>
      <trkpt lat="42.87851" lon="1.826">
        <ele>967.7041015625</ele>
        <time>2013-03-31T08:31:17Z</time>
      </trkpt>
      <trkpt lat="42.87847" lon="1.82606">
        <ele>967.2236328125</ele>
        <time>2013-03-31T08:31:21Z</time>
      </trkpt>
      <trkpt lat="42.87833" lon="1.82614">
        <ele>971.54931640625</ele>
        <time>2013-03-31T08:31:28Z</time>
      </trkpt>
      <trkpt lat="42.87833" lon="1.82614">
        <ele>971.54931640625</ele>
        <time>2013-03-31T08:31:29Z</time>
      </trkpt>
      <trkpt lat="42.87831" lon="1.82614">
        <ele>970.58813476562</ele>
        <time>2013-03-31T08:31:32Z</time>
      </trkpt>
      <trkpt lat="42.87827" lon="1.82616">
        <ele>969.626953125</ele>
        <time>2013-03-31T08:31:40Z</time>
      </trkpt>
      <trkpt lat="42.87825" lon="1.82619">
        <ele>969.626953125</ele>
        <time>2013-03-31T08:31:45Z</time>
      </trkpt>
      <trkpt lat="42.87818" lon="1.82622">
        <ele>968.18481445312</ele>
        <time>2013-03-31T08:31:51Z</time>
      </trkpt>
      <trkpt lat="42.87811" lon="1.82631">
        <ele>969.14624023438</ele>
        <time>2013-03-31T08:31:56Z</time>
      </trkpt>
      <trkpt lat="42.87805" lon="1.82641">
        <ele>970.58813476562</ele>
        <time>2013-03-31T08:32:01Z</time>
      </trkpt>
      <trkpt lat="42.87805" lon="1.82643">
        <ele>971.06884765625</ele>
        <time>2013-03-31T08:32:02Z</time>
      </trkpt>
      <trkpt lat="42.87796" lon="1.82658">
        <ele>973.95288085938</ele>
        <time>2013-03-31T08:32:08Z</time>
      </trkpt>
      <trkpt lat="42.87792" lon="1.82663">
        <ele>974.91430664062</ele>
        <time>2013-03-31T08:32:10Z</time>
      </trkpt>
      <trkpt lat="42.87778" lon="1.82676">
        <ele>975.87548828125</ele>
        <time>2013-03-31T08:32:16Z</time>
      </trkpt>
      <trkpt lat="42.87769" lon="1.82691">
        <ele>974.43359375</ele>
        <time>2013-03-31T08:32:21Z</time>
      </trkpt>
      <trkpt lat="42.87769" lon="1.82693">
        <ele>973.95288085938</ele>
        <time>2013-03-31T08:32:22Z</time>
      </trkpt>
      <trkpt lat="42.87765" lon="1.82699">
        <ele>973.47241210938</ele>
        <time>2013-03-31T08:32:26Z</time>
      </trkpt>
      <trkpt lat="42.87756" lon="1.82707">
        <ele>971.54931640625</ele>
        <time>2013-03-31T08:32:30Z</time>
      </trkpt>
      <trkpt lat="42.87745" lon="1.82717">
        <ele>968.18481445312</ele>
        <time>2013-03-31T08:32:37Z</time>
      </trkpt>
      <trkpt lat="42.87743" lon="1.82721">
        <ele>967.7041015625</ele>
        <time>2013-03-31T08:32:39Z</time>
      </trkpt>
      <trkpt lat="42.87735" lon="1.82729">
        <ele>965.78173828125</ele>
        <time>2013-03-31T08:32:44Z</time>
      </trkpt>
      <trkpt lat="42.8773" lon="1.82736">
        <ele>965.30102539062</ele>
        <time>2013-03-31T08:32:48Z</time>
      </trkpt>
      <trkpt lat="42.87728" lon="1.82745">
        <ele>972.0302734375</ele>
        <time>2013-03-31T08:32:56Z</time>
      </trkpt>
      <trkpt lat="42.87725" lon="1.82748">
        <ele>978.75952148438</ele>
        <time>2013-03-31T08:33:02Z</time>
      </trkpt>
      <trkpt lat="42.87721" lon="1.82749">
        <ele>981.16284179688</ele>
        <time>2013-03-31T08:33:06Z</time>
      </trkpt>
      <trkpt lat="42.87717" lon="1.82751">
        <ele>986.44995117188</ele>
        <time>2013-03-31T08:33:11Z</time>
      </trkpt>
      <trkpt lat="42.87712" lon="1.82754">
        <ele>989.81469726562</ele>
        <time>2013-03-31T08:33:16Z</time>
      </trkpt>
      <trkpt lat="42.87711" lon="1.82755">
        <ele>989.333984375</ele>
        <time>2013-03-31T08:33:17Z</time>
      </trkpt>
      <trkpt lat="42.87709" lon="1.82758">
        <ele>988.853515625</ele>
        <time>2013-03-31T08:33:19Z</time>
      </trkpt>
      <trkpt lat="42.87711" lon="1.82765">
        <ele>992.69873046875</ele>
        <time>2013-03-31T08:33:25Z</time>
      </trkpt>
      <trkpt lat="42.87711" lon="1.82774">
        <ele>991.25659179688</ele>
        <time>2013-03-31T08:33:31Z</time>
      </trkpt>
      <trkpt lat="42.87711" lon="1.82776">
        <ele>991.25659179688</ele>
        <time>2013-03-31T08:33:32Z</time>
      </trkpt>
      <trkpt lat="42.87708" lon="1.82786">
        <ele>987.89184570312</ele>
        <time>2013-03-31T08:33:40Z</time>
      </trkpt>
      <trkpt lat="42.87709" lon="1.82791">
        <ele>984.52734375</ele>
        <time>2013-03-31T08:33:46Z</time>
      </trkpt>
      <trkpt lat="42.87711" lon="1.82798">
        <ele>984.52734375</ele>
        <time>2013-03-31T08:33:51Z</time>
      </trkpt>
      <trkpt lat="42.87712" lon="1.82807">
        <ele>986.93041992188</ele>
        <time>2013-03-31T08:33:57Z</time>
      </trkpt>
      <trkpt lat="42.87716" lon="1.82817">
        <ele>989.81469726562</ele>
        <time>2013-03-31T08:34:04Z</time>
      </trkpt>
      <trkpt lat="42.87717" lon="1.82823">
        <ele>988.853515625</ele>
        <time>2013-03-31T08:34:09Z</time>
      </trkpt>
      <trkpt lat="42.87718" lon="1.82826">
        <ele>989.333984375</ele>
        <time>2013-03-31T08:34:11Z</time>
      </trkpt>
      <trkpt lat="42.87718" lon="1.82828">
        <ele>989.333984375</ele>
        <time>2013-03-31T08:34:13Z</time>
      </trkpt>
      <trkpt lat="42.87711" lon="1.82826">
        <ele>986.93041992188</ele>
        <time>2013-03-31T08:34:19Z</time>
      </trkpt>
      <trkpt lat="42.87709" lon="1.82824">
        <ele>986.93041992188</ele>
        <time>2013-03-31T08:34:21Z</time>
      </trkpt>
      <trkpt lat="42.87707" lon="1.82821">
        <ele>987.4111328125</ele>
        <time>2013-03-31T08:34:24Z</time>
      </trkpt>
      <trkpt lat="42.87704" lon="1.82819">
        <ele>987.89184570312</ele>
        <time>2013-03-31T08:34:30Z</time>
      </trkpt>
      <trkpt lat="42.87701" lon="1.82816">
        <ele>988.37280273438</ele>
        <time>2013-03-31T08:34:33Z</time>
      </trkpt>
      <trkpt lat="42.87697" lon="1.82811">
        <ele>986.44995117188</ele>
        <time>2013-03-31T08:34:39Z</time>
      </trkpt>
      <trkpt lat="42.87695" lon="1.8281">
        <ele>985.48852539062</ele>
        <time>2013-03-31T08:34:41Z</time>
      </trkpt>
      <trkpt lat="42.87691" lon="1.82803">
        <ele>982.60473632812</ele>
        <time>2013-03-31T08:34:47Z</time>
      </trkpt>
      <trkpt lat="42.87687" lon="1.82797">
        <ele>982.1240234375</ele>
        <time>2013-03-31T08:34:53Z</time>
      </trkpt>
      <trkpt lat="42.87683" lon="1.82793">
        <ele>982.60473632812</ele>
        <time>2013-03-31T08:34:58Z</time>
      </trkpt>
      <trkpt lat="42.87679" lon="1.82791">
        <ele>983.56591796875</ele>
        <time>2013-03-31T08:35:03Z</time>
      </trkpt>
      <trkpt lat="42.87675" lon="1.82788">
        <ele>986.44995117188</ele>
        <time>2013-03-31T08:35:07Z</time>
      </trkpt>
      <trkpt lat="42.87672" lon="1.82782">
        <ele>994.62109375</ele>
        <time>2013-03-31T08:35:12Z</time>
      </trkpt>
      <trkpt lat="42.87666" lon="1.8278">
        <ele>999.90844726562</ele>
        <time>2013-03-31T08:35:17Z</time>
      </trkpt>
      <trkpt lat="42.8766" lon="1.82778">
        <ele>1002.3115234375</ele>
        <time>2013-03-31T08:35:21Z</time>
      </trkpt>
      <trkpt lat="42.87655" lon="1.82772">
        <ele>1011.4443359375</ele>
        <time>2013-03-31T08:35:26Z</time>
      </trkpt>
      <trkpt lat="42.87648" lon="1.82769">
        <ele>1011.9250488281</ele>
        <time>2013-03-31T08:35:30Z</time>
      </trkpt>
      <trkpt lat="42.87649" lon="1.82773">
        <ele>1015.7702636719</ele>
        <time>2013-03-31T08:35:34Z</time>
      </trkpt>
      <trkpt lat="42.87659" lon="1.82785">
        <ele>1017.2121582031</ele>
        <time>2013-03-31T08:35:42Z</time>
      </trkpt>
      <trkpt lat="42.87659" lon="1.82788">
        <ele>1015.2895507812</ele>
        <time>2013-03-31T08:35:44Z</time>
      </trkpt>
      <trkpt lat="42.8766" lon="1.82793">
        <ele>1017.6926269531</ele>
        <time>2013-03-31T08:35:48Z</time>
      </trkpt>
      <trkpt lat="42.87663" lon="1.82802">
        <ele>1011.4443359375</ele>
        <time>2013-03-31T08:35:53Z</time>
      </trkpt>
      <trkpt lat="42.87663" lon="1.82805">
        <ele>1007.5991210938</ele>
        <time>2013-03-31T08:35:56Z</time>
      </trkpt>
      <trkpt lat="42.87666" lon="1.8281">
        <ele>1006.6376953125</ele>
        <time>2013-03-31T08:36:03Z</time>
      </trkpt>
      <trkpt lat="42.87668" lon="1.82817">
        <ele>1005.6765136719</ele>
        <time>2013-03-31T08:36:09Z</time>
      </trkpt>
      <trkpt lat="42.87663" lon="1.82818">
        <ele>1010.0021972656</ele>
        <time>2013-03-31T08:36:15Z</time>
      </trkpt>
      <trkpt lat="42.87658" lon="1.82817">
        <ele>1013.3669433594</ele>
        <time>2013-03-31T08:36:20Z</time>
      </trkpt>
      <trkpt lat="42.87652" lon="1.82813">
        <ele>1020.5769042969</ele>
        <time>2013-03-31T08:36:29Z</time>
      </trkpt>
      <trkpt lat="42.8765" lon="1.82812">
        <ele>1021.0576171875</ele>
        <time>2013-03-31T08:36:30Z</time>
      </trkpt>
      <trkpt lat="42.87646" lon="1.82808">
        <ele>1023.94140625</ele>
        <time>2013-03-31T08:36:35Z</time>
      </trkpt>
      <trkpt lat="42.87639" lon="1.82805">
        <ele>1028.748046875</ele>
        <time>2013-03-31T08:36:39Z</time>
      </trkpt>
      <trkpt lat="42.87634" lon="1.828">
        <ele>1033.0737304688</ele>
        <time>2013-03-31T08:36:44Z</time>
      </trkpt>
      <trkpt lat="42.87629" lon="1.82798">
        <ele>1031.1513671875</ele>
        <time>2013-03-31T08:36:49Z</time>
      </trkpt>
      <trkpt lat="42.87624" lon="1.82799">
        <ele>1030.6706542969</ele>
        <time>2013-03-31T08:36:53Z</time>
      </trkpt>
      <trkpt lat="42.8762" lon="1.82796">
        <ele>1031.6318359375</ele>
        <time>2013-03-31T08:36:57Z</time>
      </trkpt>
      <trkpt lat="42.87613" lon="1.82792">
        <ele>1033.5544433594</ele>
        <time>2013-03-31T08:37:02Z</time>
      </trkpt>
      <trkpt lat="42.87609" lon="1.82792">
        <ele>1032.1125488281</ele>
        <time>2013-03-31T08:37:06Z</time>
      </trkpt>
      <trkpt lat="42.87606" lon="1.82792">
        <ele>1030.6706542969</ele>
        <time>2013-03-31T08:37:10Z</time>
      </trkpt>
      <trkpt lat="42.87601" lon="1.82792">
        <ele>1025.3833007812</ele>
        <time>2013-03-31T08:37:16Z</time>
      </trkpt>
      <trkpt lat="42.87597" lon="1.8279">
        <ele>1024.9028320312</ele>
        <time>2013-03-31T08:37:20Z</time>
      </trkpt>
      <trkpt lat="42.8759" lon="1.82786">
        <ele>1026.8254394531</ele>
        <time>2013-03-31T08:37:26Z</time>
      </trkpt>
      <trkpt lat="42.87583" lon="1.82783">
        <ele>1031.1513671875</ele>
        <time>2013-03-31T08:37:31Z</time>
      </trkpt>
      <trkpt lat="42.87577" lon="1.82778">
        <ele>1034.5158691406</ele>
        <time>2013-03-31T08:37:37Z</time>
      </trkpt>
      <trkpt lat="42.87573" lon="1.82779">
        <ele>1034.9965820312</ele>
        <time>2013-03-31T08:37:41Z</time>
      </trkpt>
      <trkpt lat="42.87564" lon="1.82782">
        <ele>1037.8806152344</ele>
        <time>2013-03-31T08:37:51Z</time>
      </trkpt>
      <trkpt lat="42.87559" lon="1.82784">
        <ele>1040.7644042969</ele>
        <time>2013-03-31T08:37:56Z</time>
      </trkpt>
      <trkpt lat="42.87554" lon="1.82782">
        <ele>1042.6872558594</ele>
        <time>2013-03-31T08:38:00Z</time>
      </trkpt>
      <trkpt lat="42.87548" lon="1.82781">
        <ele>1041.7258300781</ele>
        <time>2013-03-31T08:38:05Z</time>
      </trkpt>
      <trkpt lat="42.87543" lon="1.8278">
        <ele>1041.2451171875</ele>
        <time>2013-03-31T08:38:09Z</time>
      </trkpt>
      <trkpt lat="42.87539" lon="1.82783">
        <ele>1040.2839355469</ele>
        <time>2013-03-31T08:38:13Z</time>
      </trkpt>
      <trkpt lat="42.87531" lon="1.82785">
        <ele>1042.2065429688</ele>
        <time>2013-03-31T08:38:21Z</time>
      </trkpt>
      <trkpt lat="42.87526" lon="1.82785">
        <ele>1042.2065429688</ele>
        <time>2013-03-31T08:38:26Z</time>
      </trkpt>
      <trkpt lat="42.87519" lon="1.82786">
        <ele>1042.2065429688</ele>
        <time>2013-03-31T08:38:31Z</time>
      </trkpt>
      <trkpt lat="42.87514" lon="1.82787">
        <ele>1042.2065429688</ele>
        <time>2013-03-31T08:38:35Z</time>
      </trkpt>
      <trkpt lat="42.87506" lon="1.82787">
        <ele>1045.0903320312</ele>
        <time>2013-03-31T08:38:41Z</time>
      </trkpt>
      <trkpt lat="42.87502" lon="1.82786">
        <ele>1044.6096191406</ele>
        <time>2013-03-31T08:38:44Z</time>
      </trkpt>
      <trkpt lat="42.87497" lon="1.82788">
        <ele>1045.0903320312</ele>
        <time>2013-03-31T08:38:50Z</time>
      </trkpt>
      <trkpt lat="42.87493" lon="1.82792">
        <ele>1045.0903320312</ele>
        <time>2013-03-31T08:38:55Z</time>
      </trkpt>
      <trkpt lat="42.87492" lon="1.82796">
        <ele>1045.0903320312</ele>
        <time>2013-03-31T08:38:58Z</time>
      </trkpt>
      <trkpt lat="42.87488" lon="1.82804">
        <ele>1046.0517578125</ele>
        <time>2013-03-31T08:39:03Z</time>
      </trkpt>
      <trkpt lat="42.87487" lon="1.82818">
        <ele>1046.5324707031</ele>
        <time>2013-03-31T08:39:11Z</time>
      </trkpt>
      <trkpt lat="42.87488" lon="1.82834">
        <ele>1046.0517578125</ele>
        <time>2013-03-31T08:39:20Z</time>
      </trkpt>
      <trkpt lat="42.8749" lon="1.82843">
        <ele>1046.5324707031</ele>
        <time>2013-03-31T08:39:25Z</time>
      </trkpt>
      <trkpt lat="42.8749" lon="1.82849">
        <ele>1047.4936523438</ele>
        <time>2013-03-31T08:39:29Z</time>
      </trkpt>
      <trkpt lat="42.87491" lon="1.82857">
        <ele>1048.4548339844</ele>
        <time>2013-03-31T08:39:34Z</time>
      </trkpt>
      <trkpt lat="42.87487" lon="1.82865">
        <ele>1048.935546875</ele>
        <time>2013-03-31T08:39:40Z</time>
      </trkpt>
      <trkpt lat="42.87488" lon="1.82874">
        <ele>1050.3776855469</ele>
        <time>2013-03-31T08:39:47Z</time>
      </trkpt>
      <trkpt lat="42.87492" lon="1.82884">
        <ele>1050.3776855469</ele>
        <time>2013-03-31T08:39:53Z</time>
      </trkpt>
      <trkpt lat="42.87494" lon="1.82888">
        <ele>1051.8195800781</ele>
        <time>2013-03-31T08:39:57Z</time>
      </trkpt>
      <trkpt lat="42.87497" lon="1.82896">
        <ele>1054.2231445312</ele>
        <time>2013-03-31T08:40:03Z</time>
      </trkpt>
      <trkpt lat="42.87499" lon="1.82906">
        <ele>1054.2231445312</ele>
        <time>2013-03-31T08:40:10Z</time>
      </trkpt>
      <trkpt lat="42.87501" lon="1.82912">
        <ele>1054.2231445312</ele>
        <time>2013-03-31T08:40:15Z</time>
      </trkpt>
      <trkpt lat="42.87505" lon="1.82921">
        <ele>1053.7424316406</ele>
        <time>2013-03-31T08:40:23Z</time>
      </trkpt>
      <trkpt lat="42.87508" lon="1.82927">
        <ele>1056.1455078125</ele>
        <time>2013-03-31T08:40:29Z</time>
      </trkpt>
      <trkpt lat="42.87512" lon="1.82931">
        <ele>1058.548828125</ele>
        <time>2013-03-31T08:40:35Z</time>
      </trkpt>
      <trkpt lat="42.87515" lon="1.82936">
        <ele>1061.4328613281</ele>
        <time>2013-03-31T08:40:40Z</time>
      </trkpt>
      <trkpt lat="42.87516" lon="1.82938">
        <ele>1063.35546875</ele>
        <time>2013-03-31T08:40:45Z</time>
      </trkpt>
      <trkpt lat="42.87516" lon="1.82939">
        <ele>1063.8359375</ele>
        <time>2013-03-31T08:41:01Z</time>
      </trkpt>
      <trkpt lat="42.87514" lon="1.82939">
        <ele>1063.8359375</ele>
        <time>2013-03-31T08:41:17Z</time>
      </trkpt>
      <trkpt lat="42.87513" lon="1.82938">
        <ele>1064.3166503906</ele>
        <time>2013-03-31T08:41:33Z</time>
      </trkpt>
      <trkpt lat="42.87514" lon="1.82935">
        <ele>1063.8359375</ele>
        <time>2013-03-31T08:41:55Z</time>
      </trkpt>
      <trkpt lat="42.87518" lon="1.82931">
        <ele>1066.2392578125</ele>
        <time>2013-03-31T08:41:59Z</time>
      </trkpt>
      <trkpt lat="42.87519" lon="1.82933">
        <ele>1067.2006835938</ele>
        <time>2013-03-31T08:42:01Z</time>
      </trkpt>
      <trkpt lat="42.87523" lon="1.82939">
        <ele>1072.4880371094</ele>
        <time>2013-03-31T08:42:07Z</time>
      </trkpt>
      <trkpt lat="42.87525" lon="1.82942">
        <ele>1073.9299316406</ele>
        <time>2013-03-31T08:42:10Z</time>
      </trkpt>
      <trkpt lat="42.87529" lon="1.82942">
        <ele>1076.3332519531</ele>
        <time>2013-03-31T08:42:14Z</time>
      </trkpt>
      <trkpt lat="42.87529" lon="1.8294">
        <ele>1077.7751464844</ele>
        <time>2013-03-31T08:42:19Z</time>
      </trkpt>
      <trkpt lat="42.87529" lon="1.8294">
        <ele>1074.8913574219</ele>
        <time>2013-03-31T08:42:27Z</time>
      </trkpt>
      <trkpt lat="42.87537" lon="1.82943">
        <ele>1072.96875</ele>
        <time>2013-03-31T08:42:32Z</time>
      </trkpt>
      <trkpt lat="42.8754" lon="1.82945">
        <ele>1072.96875</ele>
        <time>2013-03-31T08:42:35Z</time>
      </trkpt>
      <trkpt lat="42.87542" lon="1.82946">
        <ele>1072.4880371094</ele>
        <time>2013-03-31T08:42:37Z</time>
      </trkpt>
      <trkpt lat="42.87547" lon="1.8295">
        <ele>1074.4106445312</ele>
        <time>2013-03-31T08:42:43Z</time>
      </trkpt>
      <trkpt lat="42.87552" lon="1.82953">
        <ele>1074.4106445312</ele>
        <time>2013-03-31T08:42:47Z</time>
      </trkpt>
      <trkpt lat="42.87558" lon="1.82958">
        <ele>1074.8913574219</ele>
        <time>2013-03-31T08:42:52Z</time>
      </trkpt>
      <trkpt lat="42.87556" lon="1.82964">
        <ele>1075.3718261719</ele>
        <time>2013-03-31T08:43:02Z</time>
      </trkpt>
      <trkpt lat="42.87548" lon="1.82974">
        <ele>1082.5817871094</ele>
        <time>2013-03-31T08:43:12Z</time>
      </trkpt>
      <trkpt lat="42.87544" lon="1.82976">
        <ele>1086.9077148438</ele>
        <time>2013-03-31T08:43:15Z</time>
      </trkpt>
      <trkpt lat="42.8754" lon="1.8298">
        <ele>1088.8305664062</ele>
        <time>2013-03-31T08:43:19Z</time>
      </trkpt>
      <trkpt lat="42.87533" lon="1.82984">
        <ele>1089.3110351562</ele>
        <time>2013-03-31T08:43:25Z</time>
      </trkpt>
      <trkpt lat="42.87532" lon="1.82985">
        <ele>1089.3110351562</ele>
        <time>2013-03-31T08:43:26Z</time>
      </trkpt>
      <trkpt lat="42.87527" lon="1.82989">
        <ele>1090.2724609375</ele>
        <time>2013-03-31T08:43:31Z</time>
      </trkpt>
      <trkpt lat="42.87527" lon="1.82994">
        <ele>1092.1950683594</ele>
        <time>2013-03-31T08:43:36Z</time>
      </trkpt>
      <trkpt lat="42.8752" lon="1.83007">
        <ele>1100.3664550781</ele>
        <time>2013-03-31T08:43:54Z</time>
      </trkpt>
      <trkpt lat="42.87519" lon="1.83014">
        <ele>1100.8469238281</ele>
        <time>2013-03-31T08:44:00Z</time>
      </trkpt>
      <trkpt lat="42.87521" lon="1.8302">
        <ele>1099.4047851562</ele>
        <time>2013-03-31T08:44:05Z</time>
      </trkpt>
      <trkpt lat="42.87516" lon="1.83028">
        <ele>1101.3276367188</ele>
        <time>2013-03-31T08:44:18Z</time>
      </trkpt>
      <trkpt lat="42.87512" lon="1.83032">
        <ele>1103.2502441406</ele>
        <time>2013-03-31T08:44:23Z</time>
      </trkpt>
      <trkpt lat="42.8751" lon="1.83034">
        <ele>1104.2116699219</ele>
        <time>2013-03-31T08:44:25Z</time>
      </trkpt>
      <trkpt lat="42.87506" lon="1.8304">
        <ele>1106.1340332031</ele>
        <time>2013-03-31T08:44:32Z</time>
      </trkpt>
      <trkpt lat="42.87503" lon="1.83047">
        <ele>1107.576171875</ele>
        <time>2013-03-31T08:44:40Z</time>
      </trkpt>
      <trkpt lat="42.87502" lon="1.83052">
        <ele>1109.0180664062</ele>
        <time>2013-03-31T08:44:45Z</time>
      </trkpt>
      <trkpt lat="42.87497" lon="1.8306">
        <ele>1113.3439941406</ele>
        <time>2013-03-31T08:44:55Z</time>
      </trkpt>
      <trkpt lat="42.87494" lon="1.83065">
        <ele>1115.7473144531</ele>
        <time>2013-03-31T08:45:01Z</time>
      </trkpt>
      <trkpt lat="42.87493" lon="1.8307">
        <ele>1116.2280273438</ele>
        <time>2013-03-31T08:45:06Z</time>
      </trkpt>
      <trkpt lat="42.87493" lon="1.83076">
        <ele>1114.3051757812</ele>
        <time>2013-03-31T08:45:11Z</time>
      </trkpt>
      <trkpt lat="42.87492" lon="1.83082">
        <ele>1113.3439941406</ele>
        <time>2013-03-31T08:45:16Z</time>
      </trkpt>
      <trkpt lat="42.87486" lon="1.83088">
        <ele>1113.8244628906</ele>
        <time>2013-03-31T08:45:23Z</time>
      </trkpt>
      <trkpt lat="42.87481" lon="1.83099">
        <ele>1118.1506347656</ele>
        <time>2013-03-31T08:45:34Z</time>
      </trkpt>
      <trkpt lat="42.87481" lon="1.83105">
        <ele>1118.1506347656</ele>
        <time>2013-03-31T08:45:39Z</time>
      </trkpt>
      <trkpt lat="42.87481" lon="1.8311">
        <ele>1118.1506347656</ele>
        <time>2013-03-31T08:45:45Z</time>
      </trkpt>
      <trkpt lat="42.87479" lon="1.83117">
        <ele>1117.189453125</ele>
        <time>2013-03-31T08:45:50Z</time>
      </trkpt>
      <trkpt lat="42.87477" lon="1.83123">
        <ele>1116.7087402344</ele>
        <time>2013-03-31T08:45:55Z</time>
      </trkpt>
      <trkpt lat="42.87475" lon="1.83127">
        <ele>1117.189453125</ele>
        <time>2013-03-31T08:45:58Z</time>
      </trkpt>
      <trkpt lat="42.87477" lon="1.83132">
        <ele>1121.9958496094</ele>
        <time>2013-03-31T08:46:04Z</time>
      </trkpt>
      <trkpt lat="42.87482" lon="1.83131">
        <ele>1124.3991699219</ele>
        <time>2013-03-31T08:46:12Z</time>
      </trkpt>
      <trkpt lat="42.87484" lon="1.83132">
        <ele>1126.8024902344</ele>
        <time>2013-03-31T08:46:18Z</time>
      </trkpt>
      <trkpt lat="42.87486" lon="1.83132">
        <ele>1128.2443847656</ele>
        <time>2013-03-31T08:46:23Z</time>
      </trkpt>
      <trkpt lat="42.8749" lon="1.8313">
        <ele>1131.1284179688</ele>
        <time>2013-03-31T08:46:29Z</time>
      </trkpt>
      <trkpt lat="42.87493" lon="1.83132">
        <ele>1131.6088867188</ele>
        <time>2013-03-31T08:46:34Z</time>
      </trkpt>
      <trkpt lat="42.87494" lon="1.83135">
        <ele>1132.5705566406</ele>
        <time>2013-03-31T08:46:40Z</time>
      </trkpt>
      <trkpt lat="42.87494" lon="1.83139">
        <ele>1133.0510253906</ele>
        <time>2013-03-31T08:46:47Z</time>
      </trkpt>
      <trkpt lat="42.87497" lon="1.83141">
        <ele>1134.4931640625</ele>
        <time>2013-03-31T08:46:54Z</time>
      </trkpt>
      <trkpt lat="42.87501" lon="1.83141">
        <ele>1136.4157714844</ele>
        <time>2013-03-31T08:47:01Z</time>
      </trkpt>
      <trkpt lat="42.87503" lon="1.8314">
        <ele>1136.8962402344</ele>
        <time>2013-03-31T08:47:05Z</time>
      </trkpt>
      <trkpt lat="42.87506" lon="1.83142">
        <ele>1137.376953125</ele>
        <time>2013-03-31T08:47:11Z</time>
      </trkpt>
      <trkpt lat="42.87507" lon="1.83147">
        <ele>1138.8190917969</ele>
        <time>2013-03-31T08:47:19Z</time>
      </trkpt>
      <trkpt lat="42.87507" lon="1.83152">
        <ele>1138.8190917969</ele>
        <time>2013-03-31T08:47:27Z</time>
      </trkpt>
      <trkpt lat="42.87506" lon="1.83157">
        <ele>1139.7802734375</ele>
        <time>2013-03-31T08:47:33Z</time>
      </trkpt>
      <trkpt lat="42.87505" lon="1.83162">
        <ele>1142.18359375</ele>
        <time>2013-03-31T08:47:38Z</time>
      </trkpt>
      <trkpt lat="42.87504" lon="1.83169">
        <ele>1146.5095214844</ele>
        <time>2013-03-31T08:47:46Z</time>
      </trkpt>
      <trkpt lat="42.87502" lon="1.83175">
        <ele>1147.9514160156</ele>
        <time>2013-03-31T08:47:51Z</time>
      </trkpt>
      <trkpt lat="42.87503" lon="1.83184">
        <ele>1149.3935546875</ele>
        <time>2013-03-31T08:47:57Z</time>
      </trkpt>
      <trkpt lat="42.87505" lon="1.8319">
        <ele>1151.3161621094</ele>
        <time>2013-03-31T08:48:04Z</time>
      </trkpt>
      <trkpt lat="42.87505" lon="1.83194">
        <ele>1152.7580566406</ele>
        <time>2013-03-31T08:48:09Z</time>
      </trkpt>
      <trkpt lat="42.87507" lon="1.83197">
        <ele>1154.6806640625</ele>
        <time>2013-03-31T08:48:16Z</time>
      </trkpt>
      <trkpt lat="42.8751" lon="1.83196">
        <ele>1156.6032714844</ele>
        <time>2013-03-31T08:48:24Z</time>
      </trkpt>
      <trkpt lat="42.87514" lon="1.83195">
        <ele>1158.0454101562</ele>
        <time>2013-03-31T08:48:31Z</time>
      </trkpt>
      <trkpt lat="42.87519" lon="1.83197">
        <ele>1159.0065917969</ele>
        <time>2013-03-31T08:48:35Z</time>
      </trkpt>
      <trkpt lat="42.87521" lon="1.83196">
        <ele>1159.9677734375</ele>
        <time>2013-03-31T08:48:38Z</time>
      </trkpt>
      <trkpt lat="42.87523" lon="1.83189">
        <ele>1160.9291992188</ele>
        <time>2013-03-31T08:48:43Z</time>
      </trkpt>
      <trkpt lat="42.87524" lon="1.83189">
        <ele>1161.890625</ele>
        <time>2013-03-31T08:48:47Z</time>
      </trkpt>
      <trkpt lat="42.87526" lon="1.83184">
        <ele>1162.37109375</ele>
        <time>2013-03-31T08:48:51Z</time>
      </trkpt>
      <trkpt lat="42.87528" lon="1.83182">
        <ele>1164.7746582031</ele>
        <time>2013-03-31T08:48:56Z</time>
      </trkpt>
      <trkpt lat="42.87532" lon="1.8318">
        <ele>1165.7360839844</ele>
        <time>2013-03-31T08:49:01Z</time>
      </trkpt>
      <trkpt lat="42.87537" lon="1.83176">
        <ele>1166.697265625</ele>
        <time>2013-03-31T08:49:07Z</time>
      </trkpt>
      <trkpt lat="42.8754" lon="1.83172">
        <ele>1167.6584472656</ele>
        <time>2013-03-31T08:49:12Z</time>
      </trkpt>
      <trkpt lat="42.87544" lon="1.83167">
        <ele>1168.1391601562</ele>
        <time>2013-03-31T08:49:18Z</time>
      </trkpt>
      <trkpt lat="42.87548" lon="1.83168">
        <ele>1169.1005859375</ele>
        <time>2013-03-31T08:49:23Z</time>
      </trkpt>
      <trkpt lat="42.87548" lon="1.83171">
        <ele>1170.5424804688</ele>
        <time>2013-03-31T08:49:27Z</time>
      </trkpt>
      <trkpt lat="42.87548" lon="1.83174">
        <ele>1170.0617675781</ele>
        <time>2013-03-31T08:49:32Z</time>
      </trkpt>
      <trkpt lat="42.87547" lon="1.83177">
        <ele>1170.0617675781</ele>
        <time>2013-03-31T08:49:36Z</time>
      </trkpt>
      <trkpt lat="42.87547" lon="1.8318">
        <ele>1169.5812988281</ele>
        <time>2013-03-31T08:49:41Z</time>
      </trkpt>
      <trkpt lat="42.87547" lon="1.83185">
        <ele>1168.6198730469</ele>
        <time>2013-03-31T08:49:47Z</time>
      </trkpt>
      <trkpt lat="42.87548" lon="1.83189">
        <ele>1172.4650878906</ele>
        <time>2013-03-31T08:49:53Z</time>
      </trkpt>
      <trkpt lat="42.8755" lon="1.83188">
        <ele>1175.8295898438</ele>
        <time>2013-03-31T08:49:59Z</time>
      </trkpt>
      <trkpt lat="42.87551" lon="1.83183">
        <ele>1177.2717285156</ele>
        <time>2013-03-31T08:50:04Z</time>
      </trkpt>
      <trkpt lat="42.87555" lon="1.83182">
        <ele>1179.1940917969</ele>
        <time>2013-03-31T08:50:09Z</time>
      </trkpt>
      <trkpt lat="42.87556" lon="1.83184">
        <ele>1180.6364746094</ele>
        <time>2013-03-31T08:50:14Z</time>
      </trkpt>
      <trkpt lat="42.87556" lon="1.83189">
        <ele>1180.1557617188</ele>
        <time>2013-03-31T08:50:22Z</time>
      </trkpt>
      <trkpt lat="42.87557" lon="1.83193">
        <ele>1180.6364746094</ele>
        <time>2013-03-31T08:50:27Z</time>
      </trkpt>
      <trkpt lat="42.87558" lon="1.83198">
        <ele>1181.1171875</ele>
        <time>2013-03-31T08:50:34Z</time>
      </trkpt>
      <trkpt lat="42.87558" lon="1.83201">
        <ele>1182.0783691406</ele>
        <time>2013-03-31T08:50:38Z</time>
      </trkpt>
      <trkpt lat="42.87558" lon="1.83207">
        <ele>1184.0009765625</ele>
        <time>2013-03-31T08:50:45Z</time>
      </trkpt>
      <trkpt lat="42.87557" lon="1.83211">
        <ele>1185.4428710938</ele>
        <time>2013-03-31T08:50:50Z</time>
      </trkpt>
      <trkpt lat="42.87556" lon="1.83216">
        <ele>1187.3654785156</ele>
        <time>2013-03-31T08:50:56Z</time>
      </trkpt>
      <trkpt lat="42.87556" lon="1.83219">
        <ele>1188.8076171875</ele>
        <time>2013-03-31T08:51:00Z</time>
      </trkpt>
      <trkpt lat="42.87555" lon="1.83226">
        <ele>1190.7299804688</ele>
        <time>2013-03-31T08:51:07Z</time>
      </trkpt>
      <trkpt lat="42.87555" lon="1.83231">
        <ele>1193.6140136719</ele>
        <time>2013-03-31T08:51:14Z</time>
      </trkpt>
      <trkpt lat="42.87553" lon="1.83235">
        <ele>1196.4982910156</ele>
        <time>2013-03-31T08:51:21Z</time>
      </trkpt>
      <trkpt lat="42.87551" lon="1.83239">
        <ele>1198.9013671875</ele>
        <time>2013-03-31T08:51:26Z</time>
      </trkpt>
      <trkpt lat="42.87552" lon="1.83243">
        <ele>1200.3435058594</ele>
        <time>2013-03-31T08:51:33Z</time>
      </trkpt>
      <trkpt lat="42.87556" lon="1.83247">
        <ele>1201.7854003906</ele>
        <time>2013-03-31T08:51:39Z</time>
      </trkpt>
      <trkpt lat="42.87559" lon="1.83246">
        <ele>1202.2658691406</ele>
        <time>2013-03-31T08:51:43Z</time>
      </trkpt>
      <trkpt lat="42.8756" lon="1.83244">
        <ele>1202.7465820312</ele>
        <time>2013-03-31T08:51:45Z</time>
      </trkpt>
      <trkpt lat="42.87566" lon="1.83236">
        <ele>1201.7854003906</ele>
        <time>2013-03-31T08:51:51Z</time>
      </trkpt>
      <trkpt lat="42.87565" lon="1.83238">
        <ele>1202.2658691406</ele>
        <time>2013-03-31T08:51:54Z</time>
      </trkpt>
      <trkpt lat="42.87562" lon="1.83241">
        <ele>1205.6306152344</ele>
        <time>2013-03-31T08:52:00Z</time>
      </trkpt>
      <trkpt lat="42.87562" lon="1.83248">
        <ele>1205.1499023438</ele>
        <time>2013-03-31T08:52:04Z</time>
      </trkpt>
      <trkpt lat="42.87568" lon="1.8326">
        <ele>1205.6306152344</ele>
        <time>2013-03-31T08:52:09Z</time>
      </trkpt>
      <trkpt lat="42.87573" lon="1.83269">
        <ele>1208.9951171875</ele>
        <time>2013-03-31T08:52:13Z</time>
      </trkpt>
      <trkpt lat="42.87575" lon="1.83271">
        <ele>1208.9951171875</ele>
        <time>2013-03-31T08:52:15Z</time>
      </trkpt>
      <trkpt lat="42.8758" lon="1.8326">
        <ele>1207.5532226562</ele>
        <time>2013-03-31T08:52:19Z</time>
      </trkpt>
      <trkpt lat="42.87586" lon="1.83254">
        <ele>1208.5144042969</ele>
        <time>2013-03-31T08:52:23Z</time>
      </trkpt>
      <trkpt lat="42.87587" lon="1.8325">
        <ele>1209.4758300781</ele>
        <time>2013-03-31T08:52:27Z</time>
      </trkpt>
      <trkpt lat="42.87586" lon="1.83246">
        <ele>1210.9177246094</ele>
        <time>2013-03-31T08:52:30Z</time>
      </trkpt>
      <trkpt lat="42.87586" lon="1.83245">
        <ele>1210.9177246094</ele>
        <time>2013-03-31T08:52:31Z</time>
      </trkpt>
      <trkpt lat="42.87587" lon="1.8324">
        <ele>1210.4370117188</ele>
        <time>2013-03-31T08:52:36Z</time>
      </trkpt>
      <trkpt lat="42.87589" lon="1.83238">
        <ele>1210.4370117188</ele>
        <time>2013-03-31T08:52:40Z</time>
      </trkpt>
      <trkpt lat="42.87592" lon="1.83235">
        <ele>1212.3598632812</ele>
        <time>2013-03-31T08:52:43Z</time>
      </trkpt>
      <trkpt lat="42.87597" lon="1.8322">
        <ele>1214.7631835938</ele>
        <time>2013-03-31T08:52:49Z</time>
      </trkpt>
      <trkpt lat="42.87594" lon="1.83217">
        <ele>1216.205078125</ele>
        <time>2013-03-31T08:52:51Z</time>
      </trkpt>
      <trkpt lat="42.87582" lon="1.8321">
        <ele>1218.1276855469</ele>
        <time>2013-03-31T08:52:55Z</time>
      </trkpt>
      <trkpt lat="42.87578" lon="1.83212">
        <ele>1217.1665039062</ele>
        <time>2013-03-31T08:53:00Z</time>
      </trkpt>
      <trkpt lat="42.87577" lon="1.83214">
        <ele>1215.2438964844</ele>
        <time>2013-03-31T08:53:05Z</time>
      </trkpt>
      <trkpt lat="42.87576" lon="1.83216">
        <ele>1211.8791503906</ele>
        <time>2013-03-31T08:53:10Z</time>
      </trkpt>
      <trkpt lat="42.87574" lon="1.83214">
        <ele>1210.4370117188</ele>
        <time>2013-03-31T08:53:13Z</time>
      </trkpt>
      <trkpt lat="42.87573" lon="1.83214">
        <ele>1208.5144042969</ele>
        <time>2013-03-31T08:53:15Z</time>
      </trkpt>
      <trkpt lat="42.87566" lon="1.83232">
        <ele>1205.1499023438</ele>
        <time>2013-03-31T08:53:21Z</time>
      </trkpt>
      <trkpt lat="42.87566" lon="1.83237">
        <ele>1203.7080078125</ele>
        <time>2013-03-31T08:53:23Z</time>
      </trkpt>
      <trkpt lat="42.8756" lon="1.83247">
        <ele>1201.3046875</ele>
        <time>2013-03-31T08:53:29Z</time>
      </trkpt>
      <trkpt lat="42.87553" lon="1.83244">
        <ele>1198.9013671875</ele>
        <time>2013-03-31T08:53:33Z</time>
      </trkpt>
      <trkpt lat="42.87552" lon="1.83243">
        <ele>1198.4206542969</ele>
        <time>2013-03-31T08:53:34Z</time>
      </trkpt>
      <trkpt lat="42.87553" lon="1.83238">
        <ele>1196.9787597656</ele>
        <time>2013-03-31T08:53:39Z</time>
      </trkpt>
      <trkpt lat="42.87553" lon="1.83236">
        <ele>1196.4982910156</ele>
        <time>2013-03-31T08:53:40Z</time>
      </trkpt>
      <trkpt lat="42.87553" lon="1.83228">
        <ele>1194.5751953125</ele>
        <time>2013-03-31T08:53:45Z</time>
      </trkpt>
      <trkpt lat="42.87553" lon="1.8322">
        <ele>1193.6140136719</ele>
        <time>2013-03-31T08:53:49Z</time>
      </trkpt>
      <trkpt lat="42.87554" lon="1.83214">
        <ele>1191.2106933594</ele>
        <time>2013-03-31T08:53:53Z</time>
      </trkpt>
      <trkpt lat="42.87556" lon="1.83208">
        <ele>1188.8076171875</ele>
        <time>2013-03-31T08:53:58Z</time>
      </trkpt>
      <trkpt lat="42.87555" lon="1.83202">
        <ele>1186.884765625</ele>
        <time>2013-03-31T08:54:04Z</time>
      </trkpt>
      <trkpt lat="42.87556" lon="1.832">
        <ele>1186.884765625</ele>
        <time>2013-03-31T08:54:08Z</time>
      </trkpt>
      <trkpt lat="42.87553" lon="1.83197">
        <ele>1186.404296875</ele>
        <time>2013-03-31T08:54:12Z</time>
      </trkpt>
      <trkpt lat="42.87553" lon="1.83193">
        <ele>1184.9624023438</ele>
        <time>2013-03-31T08:54:16Z</time>
      </trkpt>
      <trkpt lat="42.87553" lon="1.83191">
        <ele>1184.4816894531</ele>
        <time>2013-03-31T08:54:18Z</time>
      </trkpt>
      <trkpt lat="42.87555" lon="1.83184">
        <ele>1182.0783691406</ele>
        <time>2013-03-31T08:54:24Z</time>
      </trkpt>
      <trkpt lat="42.87553" lon="1.83181">
        <ele>1181.1171875</ele>
        <time>2013-03-31T08:54:28Z</time>
      </trkpt>
      <trkpt lat="42.8755" lon="1.83185">
        <ele>1180.6364746094</ele>
        <time>2013-03-31T08:54:32Z</time>
      </trkpt>
      <trkpt lat="42.87545" lon="1.83193">
        <ele>1178.2329101562</ele>
        <time>2013-03-31T08:54:38Z</time>
      </trkpt>
      <trkpt lat="42.87544" lon="1.83189">
        <ele>1174.8684082031</ele>
        <time>2013-03-31T08:54:45Z</time>
      </trkpt>
      <trkpt lat="42.87545" lon="1.83185">
        <ele>1173.4265136719</ele>
        <time>2013-03-31T08:54:50Z</time>
      </trkpt>
      <trkpt lat="42.87547" lon="1.83179">
        <ele>1172.9458007812</ele>
        <time>2013-03-31T08:54:55Z</time>
      </trkpt>
      <trkpt lat="42.87548" lon="1.83173">
        <ele>1171.984375</ele>
        <time>2013-03-31T08:55:00Z</time>
      </trkpt>
      <trkpt lat="42.87547" lon="1.83169">
        <ele>1170.0617675781</ele>
        <time>2013-03-31T08:55:04Z</time>
      </trkpt>
      <trkpt lat="42.87545" lon="1.83168">
        <ele>1169.5812988281</ele>
        <time>2013-03-31T08:55:08Z</time>
      </trkpt>
      <trkpt lat="42.87544" lon="1.83169">
        <ele>1169.1005859375</ele>
        <time>2013-03-31T08:55:10Z</time>
      </trkpt>
      <trkpt lat="42.8754" lon="1.83175">
        <ele>1166.697265625</ele>
        <time>2013-03-31T08:55:15Z</time>
      </trkpt>
      <trkpt lat="42.87534" lon="1.8318">
        <ele>1164.7746582031</ele>
        <time>2013-03-31T08:55:20Z</time>
      </trkpt>
      <trkpt lat="42.87532" lon="1.8318">
        <ele>1164.2939453125</ele>
        <time>2013-03-31T08:55:22Z</time>
      </trkpt>
      <trkpt lat="42.87531" lon="1.83181">
        <ele>1163.3325195312</ele>
        <time>2013-03-31T08:55:25Z</time>
      </trkpt>
      <trkpt lat="42.87527" lon="1.83188">
        <ele>1160.4484863281</ele>
        <time>2013-03-31T08:55:32Z</time>
      </trkpt>
      <trkpt lat="42.87525" lon="1.8319">
        <ele>1158.5258789062</ele>
        <time>2013-03-31T08:55:36Z</time>
      </trkpt>
      <trkpt lat="42.87521" lon="1.83192">
        <ele>1156.6032714844</ele>
        <time>2013-03-31T08:55:41Z</time>
      </trkpt>
      <trkpt lat="42.87517" lon="1.83196">
        <ele>1155.1613769531</ele>
        <time>2013-03-31T08:55:45Z</time>
      </trkpt>
      <trkpt lat="42.87514" lon="1.83197">
        <ele>1154.6806640625</ele>
        <time>2013-03-31T08:55:50Z</time>
      </trkpt>
      <trkpt lat="42.87512" lon="1.83197">
        <ele>1153.2387695312</ele>
        <time>2013-03-31T08:55:54Z</time>
      </trkpt>
      <trkpt lat="42.87508" lon="1.83195">
        <ele>1151.3161621094</ele>
        <time>2013-03-31T08:55:59Z</time>
      </trkpt>
      <trkpt lat="42.87506" lon="1.83189">
        <ele>1150.3549804688</ele>
        <time>2013-03-31T08:56:05Z</time>
      </trkpt>
      <trkpt lat="42.87504" lon="1.83186">
        <ele>1149.8742675781</ele>
        <time>2013-03-31T08:56:07Z</time>
      </trkpt>
      <trkpt lat="42.87503" lon="1.83171">
        <ele>1146.9899902344</ele>
        <time>2013-03-31T08:56:13Z</time>
      </trkpt>
      <trkpt lat="42.87504" lon="1.83167">
        <ele>1146.0288085938</ele>
        <time>2013-03-31T08:56:16Z</time>
      </trkpt>
      <trkpt lat="42.87505" lon="1.83162">
        <ele>1144.1062011719</ele>
        <time>2013-03-31T08:56:21Z</time>
      </trkpt>
      <trkpt lat="42.87505" lon="1.83161">
        <ele>1143.6254882812</ele>
        <time>2013-03-31T08:56:22Z</time>
      </trkpt>
      <trkpt lat="42.87507" lon="1.83156">
        <ele>1142.6643066406</ele>
        <time>2013-03-31T08:56:26Z</time>
      </trkpt>
      <trkpt lat="42.87508" lon="1.83152">
        <ele>1139.2995605469</ele>
        <time>2013-03-31T08:56:31Z</time>
      </trkpt>
      <trkpt lat="42.87508" lon="1.83147">
        <ele>1136.8962402344</ele>
        <time>2013-03-31T08:56:37Z</time>
      </trkpt>
      <trkpt lat="42.87504" lon="1.83145">
        <ele>1135.4543457031</ele>
        <time>2013-03-31T08:56:42Z</time>
      </trkpt>
      <trkpt lat="42.87502" lon="1.83144">
        <ele>1134.4931640625</ele>
        <time>2013-03-31T08:56:47Z</time>
      </trkpt>
      <trkpt lat="42.87497" lon="1.83145">
        <ele>1133.5317382812</ele>
        <time>2013-03-31T08:56:51Z</time>
      </trkpt>
      <trkpt lat="42.87495" lon="1.83142">
        <ele>1132.08984375</ele>
        <time>2013-03-31T08:56:55Z</time>
      </trkpt>
      <trkpt lat="42.87496" lon="1.83138">
        <ele>1130.1669921875</ele>
        <time>2013-03-31T08:57:01Z</time>
      </trkpt>
      <trkpt lat="42.87495" lon="1.83133">
        <ele>1128.7250976562</ele>
        <time>2013-03-31T08:57:05Z</time>
      </trkpt>
      <trkpt lat="42.87492" lon="1.83131">
        <ele>1126.8024902344</ele>
        <time>2013-03-31T08:57:10Z</time>
      </trkpt>
      <trkpt lat="42.8749" lon="1.83132">
        <ele>1125.8410644531</ele>
        <time>2013-03-31T08:57:14Z</time>
      </trkpt>
      <trkpt lat="42.87489" lon="1.83133">
        <ele>1125.8410644531</ele>
        <time>2013-03-31T08:57:15Z</time>
      </trkpt>
      <trkpt lat="42.87482" lon="1.83133">
        <ele>1122.9572753906</ele>
        <time>2013-03-31T08:57:23Z</time>
      </trkpt>
      <trkpt lat="42.87477" lon="1.83133">
        <ele>1120.0732421875</ele>
        <time>2013-03-31T08:57:30Z</time>
      </trkpt>
      <trkpt lat="42.87477" lon="1.83128">
        <ele>1118.1506347656</ele>
        <time>2013-03-31T08:57:33Z</time>
      </trkpt>
      <trkpt lat="42.87481" lon="1.8312">
        <ele>1115.2666015625</ele>
        <time>2013-03-31T08:57:37Z</time>
      </trkpt>
      <trkpt lat="42.87484" lon="1.83114">
        <ele>1112.3825683594</ele>
        <time>2013-03-31T08:57:41Z</time>
      </trkpt>
      <trkpt lat="42.87486" lon="1.83108">
        <ele>1109.0180664062</ele>
        <time>2013-03-31T08:57:47Z</time>
      </trkpt>
      <trkpt lat="42.87487" lon="1.83105">
        <ele>1107.576171875</ele>
        <time>2013-03-31T08:57:49Z</time>
      </trkpt>
      <trkpt lat="42.87489" lon="1.83099">
        <ele>1104.6921386719</ele>
        <time>2013-03-31T08:57:53Z</time>
      </trkpt>
      <trkpt lat="42.87491" lon="1.83095">
        <ele>1103.7309570312</ele>
        <time>2013-03-31T08:57:56Z</time>
      </trkpt>
      <trkpt lat="42.87491" lon="1.83092">
        <ele>1103.7309570312</ele>
        <time>2013-03-31T08:57:59Z</time>
      </trkpt>
      <trkpt lat="42.87492" lon="1.83088">
        <ele>1103.7309570312</ele>
        <time>2013-03-31T08:58:02Z</time>
      </trkpt>
      <trkpt lat="42.87493" lon="1.83079">
        <ele>1103.7309570312</ele>
        <time>2013-03-31T08:58:08Z</time>
      </trkpt>
      <trkpt lat="42.87494" lon="1.83075">
        <ele>1103.2502441406</ele>
        <time>2013-03-31T08:58:12Z</time>
      </trkpt>
      <trkpt lat="42.87494" lon="1.83067">
        <ele>1101.8083496094</ele>
        <time>2013-03-31T08:58:17Z</time>
      </trkpt>
      <trkpt lat="42.87495" lon="1.83063">
        <ele>1103.2502441406</ele>
        <time>2013-03-31T08:58:21Z</time>
      </trkpt>
      <trkpt lat="42.87498" lon="1.83056">
        <ele>1101.3276367188</ele>
        <time>2013-03-31T08:58:27Z</time>
      </trkpt>
      <trkpt lat="42.87498" lon="1.83054">
        <ele>1101.3276367188</ele>
        <time>2013-03-31T08:58:28Z</time>
      </trkpt>
      <trkpt lat="42.87502" lon="1.83047">
        <ele>1097.4821777344</ele>
        <time>2013-03-31T08:58:32Z</time>
      </trkpt>
      <trkpt lat="42.87513" lon="1.83037">
        <ele>1094.5981445312</ele>
        <time>2013-03-31T08:58:39Z</time>
      </trkpt>
      <trkpt lat="42.87516" lon="1.83034">
        <ele>1094.1176757812</ele>
        <time>2013-03-31T08:58:42Z</time>
      </trkpt>
      <trkpt lat="42.87515" lon="1.83027">
        <ele>1094.1176757812</ele>
        <time>2013-03-31T08:58:49Z</time>
      </trkpt>
      <trkpt lat="42.87516" lon="1.83022">
        <ele>1091.7143554688</ele>
        <time>2013-03-31T08:58:54Z</time>
      </trkpt>
      <trkpt lat="42.87518" lon="1.83018">
        <ele>1087.3884277344</ele>
        <time>2013-03-31T08:58:59Z</time>
      </trkpt>
      <trkpt lat="42.87521" lon="1.83011">
        <ele>1084.9853515625</ele>
        <time>2013-03-31T08:59:04Z</time>
      </trkpt>
      <trkpt lat="42.87524" lon="1.83006">
        <ele>1084.9853515625</ele>
        <time>2013-03-31T08:59:07Z</time>
      </trkpt>
      <trkpt lat="42.87527" lon="1.82998">
        <ele>1083.54296875</ele>
        <time>2013-03-31T08:59:11Z</time>
      </trkpt>
      <trkpt lat="42.87537" lon="1.82986">
        <ele>1080.6591796875</ele>
        <time>2013-03-31T08:59:18Z</time>
      </trkpt>
      <trkpt lat="42.87539" lon="1.82982">
        <ele>1079.2170410156</ele>
        <time>2013-03-31T08:59:21Z</time>
      </trkpt>
      <trkpt lat="42.87546" lon="1.82976">
        <ele>1077.7751464844</ele>
        <time>2013-03-31T08:59:27Z</time>
      </trkpt>
      <trkpt lat="42.87548" lon="1.82974">
        <ele>1077.2946777344</ele>
        <time>2013-03-31T08:59:29Z</time>
      </trkpt>
      <trkpt lat="42.87556" lon="1.82967">
        <ele>1075.3718261719</ele>
        <time>2013-03-31T08:59:35Z</time>
      </trkpt>
      <trkpt lat="42.87556" lon="1.82965">
        <ele>1074.4106445312</ele>
        <time>2013-03-31T08:59:38Z</time>
      </trkpt>
      <trkpt lat="42.87548" lon="1.82956">
        <ele>1072.4880371094</ele>
        <time>2013-03-31T08:59:44Z</time>
      </trkpt>
      <trkpt lat="42.87548" lon="1.82954">
        <ele>1072.96875</ele>
        <time>2013-03-31T08:59:45Z</time>
      </trkpt>
      <trkpt lat="42.87542" lon="1.82949">
        <ele>1070.0847167969</ele>
        <time>2013-03-31T08:59:52Z</time>
      </trkpt>
      <trkpt lat="42.87535" lon="1.82944">
        <ele>1067.6811523438</ele>
        <time>2013-03-31T08:59:56Z</time>
      </trkpt>
      <trkpt lat="42.87529" lon="1.82944">
        <ele>1065.7587890625</ele>
        <time>2013-03-31T09:00:00Z</time>
      </trkpt>
      <trkpt lat="42.87525" lon="1.82939">
        <ele>1064.7973632812</ele>
        <time>2013-03-31T09:00:05Z</time>
      </trkpt>
      <trkpt lat="42.87521" lon="1.82936">
        <ele>1063.35546875</ele>
        <time>2013-03-31T09:00:09Z</time>
      </trkpt>
      <trkpt lat="42.87514" lon="1.82931">
        <ele>1061.9135742188</ele>
        <time>2013-03-31T09:00:14Z</time>
      </trkpt>
      <trkpt lat="42.87505" lon="1.82925">
        <ele>1058.068359375</ele>
        <time>2013-03-31T09:00:19Z</time>
      </trkpt>
      <trkpt lat="42.87502" lon="1.82918">
        <ele>1056.1455078125</ele>
        <time>2013-03-31T09:00:21Z</time>
      </trkpt>
      <trkpt lat="42.87494" lon="1.82896">
        <ele>1050.3776855469</ele>
        <time>2013-03-31T09:00:27Z</time>
      </trkpt>
      <trkpt lat="42.8749" lon="1.82883">
        <ele>1047.4936523438</ele>
        <time>2013-03-31T09:00:30Z</time>
      </trkpt>
      <trkpt lat="42.87485" lon="1.82864">
        <ele>1044.1291503906</ele>
        <time>2013-03-31T09:00:35Z</time>
      </trkpt>
      <trkpt lat="42.87484" lon="1.82845">
        <ele>1043.1677246094</ele>
        <time>2013-03-31T09:00:39Z</time>
      </trkpt>
      <trkpt lat="42.87482" lon="1.82828">
        <ele>1042.6872558594</ele>
        <time>2013-03-31T09:00:43Z</time>
      </trkpt>
      <trkpt lat="42.87481" lon="1.82813">
        <ele>1041.7258300781</ele>
        <time>2013-03-31T09:00:48Z</time>
      </trkpt>
      <trkpt lat="42.87481" lon="1.82804">
        <ele>1041.2451171875</ele>
        <time>2013-03-31T09:00:52Z</time>
      </trkpt>
      <trkpt lat="42.87479" lon="1.82799">
        <ele>1041.7258300781</ele>
        <time>2013-03-31T09:00:54Z</time>
      </trkpt>
      <trkpt lat="42.87486" lon="1.82779">
        <ele>1043.1677246094</ele>
        <time>2013-03-31T09:01:01Z</time>
      </trkpt>
      <trkpt lat="42.87489" lon="1.8277">
        <ele>1044.1291503906</ele>
        <time>2013-03-31T09:01:05Z</time>
      </trkpt>
      <trkpt lat="42.87493" lon="1.82756">
        <ele>1045.5710449219</ele>
        <time>2013-03-31T09:01:11Z</time>
      </trkpt>
      <trkpt lat="42.87495" lon="1.82749">
        <ele>1046.0517578125</ele>
        <time>2013-03-31T09:01:13Z</time>
      </trkpt>
      <trkpt lat="42.87508" lon="1.82738">
        <ele>1045.0903320312</ele>
        <time>2013-03-31T09:01:19Z</time>
      </trkpt>
      <trkpt lat="42.87518" lon="1.82719">
        <ele>1044.6096191406</ele>
        <time>2013-03-31T09:01:25Z</time>
      </trkpt>
      <trkpt lat="42.87526" lon="1.82703">
        <ele>1044.6096191406</ele>
        <time>2013-03-31T09:01:30Z</time>
      </trkpt>
      <trkpt lat="42.87532" lon="1.82692">
        <ele>1045.0903320312</ele>
        <time>2013-03-31T09:01:34Z</time>
      </trkpt>
      <trkpt lat="42.87535" lon="1.82676">
        <ele>1046.0517578125</ele>
        <time>2013-03-31T09:01:38Z</time>
      </trkpt>
      <trkpt lat="42.87535" lon="1.82673">
        <ele>1045.5710449219</ele>
        <time>2013-03-31T09:01:39Z</time>
      </trkpt>
      <trkpt lat="42.87537" lon="1.82651">
        <ele>1044.1291503906</ele>
        <time>2013-03-31T09:01:44Z</time>
      </trkpt>
      <trkpt lat="42.8754" lon="1.82634">
        <ele>1044.6096191406</ele>
        <time>2013-03-31T09:01:49Z</time>
      </trkpt>
      <trkpt lat="42.87541" lon="1.82618">
        <ele>1045.0903320312</ele>
        <time>2013-03-31T09:01:53Z</time>
      </trkpt>
      <trkpt lat="42.87544" lon="1.82598">
        <ele>1045.0903320312</ele>
        <time>2013-03-31T09:01:58Z</time>
      </trkpt>
      <trkpt lat="42.87547" lon="1.8259">
        <ele>1045.5710449219</ele>
        <time>2013-03-31T09:02:01Z</time>
      </trkpt>
      <trkpt lat="42.87551" lon="1.82582">
        <ele>1045.5710449219</ele>
        <time>2013-03-31T09:02:05Z</time>
      </trkpt>
      <trkpt lat="42.87557" lon="1.82571">
        <ele>1047.9743652344</ele>
        <time>2013-03-31T09:02:09Z</time>
      </trkpt>
      <trkpt lat="42.87577" lon="1.82555">
        <ele>1052.3002929688</ele>
        <time>2013-03-31T09:02:15Z</time>
      </trkpt>
      <trkpt lat="42.87582" lon="1.8255">
        <ele>1052.3002929688</ele>
        <time>2013-03-31T09:02:17Z</time>
      </trkpt>
      <trkpt lat="42.87595" lon="1.82547">
        <ele>1055.6650390625</ele>
        <time>2013-03-31T09:02:22Z</time>
      </trkpt>
      <trkpt lat="42.87599" lon="1.82546">
        <ele>1054.2231445312</ele>
        <time>2013-03-31T09:02:24Z</time>
      </trkpt>
      <trkpt lat="42.87609" lon="1.82542">
        <ele>1052.7810058594</ele>
        <time>2013-03-31T09:02:29Z</time>
      </trkpt>
      <trkpt lat="42.87618" lon="1.82535">
        <ele>1054.7036132812</ele>
        <time>2013-03-31T09:02:34Z</time>
      </trkpt>
      <trkpt lat="42.87624" lon="1.82528">
        <ele>1055.1843261719</ele>
        <time>2013-03-31T09:02:37Z</time>
      </trkpt>
      <trkpt lat="42.87635" lon="1.82516">
        <ele>1054.2231445312</ele>
        <time>2013-03-31T09:02:43Z</time>
      </trkpt>
      <trkpt lat="42.87645" lon="1.82499">
        <ele>1056.1455078125</ele>
        <time>2013-03-31T09:02:49Z</time>
      </trkpt>
      <trkpt lat="42.87651" lon="1.82486">
        <ele>1054.7036132812</ele>
        <time>2013-03-31T09:02:54Z</time>
      </trkpt>
      <trkpt lat="42.87654" lon="1.82474">
        <ele>1054.2231445312</ele>
        <time>2013-03-31T09:02:58Z</time>
      </trkpt>
      <trkpt lat="42.87655" lon="1.82463">
        <ele>1052.7810058594</ele>
        <time>2013-03-31T09:03:02Z</time>
      </trkpt>
      <trkpt lat="42.87661" lon="1.82448">
        <ele>1052.3002929688</ele>
        <time>2013-03-31T09:03:07Z</time>
      </trkpt>
      <trkpt lat="42.87663" lon="1.82445">
        <ele>1052.3002929688</ele>
        <time>2013-03-31T09:03:08Z</time>
      </trkpt>
      <trkpt lat="42.87666" lon="1.8244">
        <ele>1051.8195800781</ele>
        <time>2013-03-31T09:03:10Z</time>
      </trkpt>
      <trkpt lat="42.87674" lon="1.82426">
        <ele>1052.7810058594</ele>
        <time>2013-03-31T09:03:16Z</time>
      </trkpt>
      <trkpt lat="42.8768" lon="1.82422">
        <ele>1053.26171875</ele>
        <time>2013-03-31T09:03:19Z</time>
      </trkpt>
      <trkpt lat="42.87692" lon="1.82408">
        <ele>1050.3776855469</ele>
        <time>2013-03-31T09:03:28Z</time>
      </trkpt>
      <trkpt lat="42.87694" lon="1.82406">
        <ele>1050.3776855469</ele>
        <time>2013-03-31T09:03:29Z</time>
      </trkpt>
      <trkpt lat="42.87703" lon="1.824">
        <ele>1050.3776855469</ele>
        <time>2013-03-31T09:03:34Z</time>
      </trkpt>
      <trkpt lat="42.87714" lon="1.82398">
        <ele>1049.8969726562</ele>
        <time>2013-03-31T09:03:38Z</time>
      </trkpt>
      <trkpt lat="42.8772" lon="1.82389">
        <ele>1049.8969726562</ele>
        <time>2013-03-31T09:03:42Z</time>
      </trkpt>
      <trkpt lat="42.87721" lon="1.82386">
        <ele>1050.3776855469</ele>
        <time>2013-03-31T09:03:43Z</time>
      </trkpt>
      <trkpt lat="42.87726" lon="1.82374">
        <ele>1048.4548339844</ele>
        <time>2013-03-31T09:03:48Z</time>
      </trkpt>
      <trkpt lat="42.87728" lon="1.82362">
        <ele>1047.9743652344</ele>
        <time>2013-03-31T09:03:51Z</time>
      </trkpt>
      <trkpt lat="42.87735" lon="1.82348">
        <ele>1050.3776855469</ele>
        <time>2013-03-31T09:03:55Z</time>
      </trkpt>
      <trkpt lat="42.87755" lon="1.82333">
        <ele>1058.068359375</ele>
        <time>2013-03-31T09:04:00Z</time>
      </trkpt>
      <trkpt lat="42.87765" lon="1.82327">
        <ele>1064.3166503906</ele>
        <time>2013-03-31T09:04:02Z</time>
      </trkpt>
      <trkpt lat="42.87776" lon="1.82311">
        <ele>1067.2006835938</ele>
        <time>2013-03-31T09:04:06Z</time>
      </trkpt>
      <trkpt lat="42.87778" lon="1.82308">
        <ele>1066.7199707031</ele>
        <time>2013-03-31T09:04:07Z</time>
      </trkpt>
      <trkpt lat="42.87783" lon="1.82295">
        <ele>1058.548828125</ele>
        <time>2013-03-31T09:04:12Z</time>
      </trkpt>
      <trkpt lat="42.87786" lon="1.82284">
        <ele>1050.3776855469</ele>
        <time>2013-03-31T09:04:17Z</time>
      </trkpt>
      <trkpt lat="42.87785" lon="1.82272">
        <ele>1039.8032226562</ele>
        <time>2013-03-31T09:04:21Z</time>
      </trkpt>
      <trkpt lat="42.87784" lon="1.82259">
        <ele>1034.9965820312</ele>
        <time>2013-03-31T09:04:25Z</time>
      </trkpt>
      <trkpt lat="42.87784" lon="1.82249">
        <ele>1032.1125488281</ele>
        <time>2013-03-31T09:04:28Z</time>
      </trkpt>
      <trkpt lat="42.87782" lon="1.82245">
        <ele>1030.6706542969</ele>
        <time>2013-03-31T09:04:29Z</time>
      </trkpt>
      <trkpt lat="42.87782" lon="1.82237">
        <ele>1030.6706542969</ele>
        <time>2013-03-31T09:04:31Z</time>
      </trkpt>
      <trkpt lat="42.8779" lon="1.82225">
        <ele>1032.1125488281</ele>
        <time>2013-03-31T09:04:35Z</time>
      </trkpt>
      <trkpt lat="42.87799" lon="1.8221">
        <ele>1034.5158691406</ele>
        <time>2013-03-31T09:04:40Z</time>
      </trkpt>
      <trkpt lat="42.87805" lon="1.82198">
        <ele>1030.1899414062</ele>
        <time>2013-03-31T09:04:46Z</time>
      </trkpt>
      <trkpt lat="42.87805" lon="1.82196">
        <ele>1028.748046875</ele>
        <time>2013-03-31T09:04:47Z</time>
      </trkpt>
      <trkpt lat="42.87808" lon="1.8219">
        <ele>1028.748046875</ele>
        <time>2013-03-31T09:04:49Z</time>
      </trkpt>
      <trkpt lat="42.87812" lon="1.82182">
        <ele>1025.3833007812</ele>
        <time>2013-03-31T09:04:53Z</time>
      </trkpt>
      <trkpt lat="42.87814" lon="1.82166">
        <ele>1021.5380859375</ele>
        <time>2013-03-31T09:04:58Z</time>
      </trkpt>
      <trkpt lat="42.87819" lon="1.82146">
        <ele>1017.6926269531</ele>
        <time>2013-03-31T09:05:04Z</time>
      </trkpt>
      <trkpt lat="42.87823" lon="1.82134">
        <ele>1014.8088378906</ele>
        <time>2013-03-31T09:05:08Z</time>
      </trkpt>
      <trkpt lat="42.87826" lon="1.82122">
        <ele>1010.9636230469</ele>
        <time>2013-03-31T09:05:12Z</time>
      </trkpt>
      <trkpt lat="42.87827" lon="1.8212">
        <ele>1010.9636230469</ele>
        <time>2013-03-31T09:05:13Z</time>
      </trkpt>
      <trkpt lat="42.87826" lon="1.82113">
        <ele>1012.4055175781</ele>
        <time>2013-03-31T09:05:16Z</time>
      </trkpt>
      <trkpt lat="42.87823" lon="1.82102">
        <ele>1013.8474121094</ele>
        <time>2013-03-31T09:05:21Z</time>
      </trkpt>
      <trkpt lat="42.87819" lon="1.82091">
        <ele>1012.8862304688</ele>
        <time>2013-03-31T09:05:25Z</time>
      </trkpt>
      <trkpt lat="42.87814" lon="1.82071">
        <ele>1015.7702636719</ele>
        <time>2013-03-31T09:05:30Z</time>
      </trkpt>
      <trkpt lat="42.87813" lon="1.82061">
        <ele>1015.2895507812</ele>
        <time>2013-03-31T09:05:33Z</time>
      </trkpt>
      <trkpt lat="42.87821" lon="1.82063">
        <ele>1017.6926269531</ele>
        <time>2013-03-31T09:05:36Z</time>
      </trkpt>
      <trkpt lat="42.87841" lon="1.82084">
        <ele>1012.8862304688</ele>
        <time>2013-03-31T09:05:44Z</time>
      </trkpt>
      <trkpt lat="42.87852" lon="1.82103">
        <ele>1007.1184082031</ele>
        <time>2013-03-31T09:05:50Z</time>
      </trkpt>
      <trkpt lat="42.87859" lon="1.82121">
        <ele>1003.7536621094</ele>
        <time>2013-03-31T09:05:55Z</time>
      </trkpt>
      <trkpt lat="42.87872" lon="1.82122">
        <ele>1000.3891601562</ele>
        <time>2013-03-31T09:06:00Z</time>
      </trkpt>
      <trkpt lat="42.87883" lon="1.82103">
        <ele>998.94702148438</ele>
        <time>2013-03-31T09:06:06Z</time>
      </trkpt>
      <trkpt lat="42.87888" lon="1.8209">
        <ele>997.98583984375</ele>
        <time>2013-03-31T09:06:09Z</time>
      </trkpt>
      <trkpt lat="42.87899" lon="1.82075">
        <ele>996.06323242188</ele>
        <time>2013-03-31T09:06:14Z</time>
      </trkpt>
      <trkpt lat="42.87904" lon="1.82063">
        <ele>995.10180664062</ele>
        <time>2013-03-31T09:06:17Z</time>
      </trkpt>
      <trkpt lat="42.8791" lon="1.82043">
        <ele>993.65991210938</ele>
        <time>2013-03-31T09:06:22Z</time>
      </trkpt>
      <trkpt lat="42.87912" lon="1.82039">
        <ele>993.65991210938</ele>
        <time>2013-03-31T09:06:23Z</time>
      </trkpt>
      <trkpt lat="42.8792" lon="1.8201">
        <ele>989.81469726562</ele>
        <time>2013-03-31T09:06:30Z</time>
      </trkpt>
      <trkpt lat="42.87924" lon="1.81988">
        <ele>987.89184570312</ele>
        <time>2013-03-31T09:06:35Z</time>
      </trkpt>
      <trkpt lat="42.87926" lon="1.81979">
        <ele>987.89184570312</ele>
        <time>2013-03-31T09:06:37Z</time>
      </trkpt>
      <trkpt lat="42.87936" lon="1.81976">
        <ele>987.4111328125</ele>
        <time>2013-03-31T09:06:41Z</time>
      </trkpt>
      <trkpt lat="42.87945" lon="1.81981">
        <ele>987.89184570312</ele>
        <time>2013-03-31T09:06:46Z</time>
      </trkpt>
      <trkpt lat="42.87958" lon="1.8197">
        <ele>989.333984375</ele>
        <time>2013-03-31T09:06:53Z</time>
      </trkpt>
      <trkpt lat="42.87962" lon="1.81966">
        <ele>989.81469726562</ele>
        <time>2013-03-31T09:06:55Z</time>
      </trkpt>
      <trkpt lat="42.87967" lon="1.81961">
        <ele>989.81469726562</ele>
        <time>2013-03-31T09:06:58Z</time>
      </trkpt>
      <trkpt lat="42.87978" lon="1.81951">
        <ele>989.81469726562</ele>
        <time>2013-03-31T09:07:04Z</time>
      </trkpt>
      <trkpt lat="42.87988" lon="1.81944">
        <ele>990.29541015625</ele>
        <time>2013-03-31T09:07:09Z</time>
      </trkpt>
      <trkpt lat="42.87991" lon="1.81938">
        <ele>990.77587890625</ele>
        <time>2013-03-31T09:07:13Z</time>
      </trkpt>
      <trkpt lat="42.87996" lon="1.81933">
        <ele>991.25659179688</ele>
        <time>2013-03-31T09:07:18Z</time>
      </trkpt>
      <trkpt lat="42.87998" lon="1.81931">
        <ele>991.25659179688</ele>
        <time>2013-03-31T09:07:20Z</time>
      </trkpt>
      <trkpt lat="42.88008" lon="1.81921">
        <ele>993.17919921875</ele>
        <time>2013-03-31T09:07:29Z</time>
      </trkpt>
      <trkpt lat="42.88017" lon="1.81914">
        <ele>994.62109375</ele>
        <time>2013-03-31T09:07:36Z</time>
      </trkpt>
      <trkpt lat="42.88027" lon="1.81905">
        <ele>995.58251953125</ele>
        <time>2013-03-31T09:07:45Z</time>
      </trkpt>
      <trkpt lat="42.88035" lon="1.81899">
        <ele>996.06323242188</ele>
        <time>2013-03-31T09:07:52Z</time>
      </trkpt>
      <trkpt lat="42.88044" lon="1.81891">
        <ele>998.46630859375</ele>
        <time>2013-03-31T09:07:59Z</time>
      </trkpt>
      <trkpt lat="42.88052" lon="1.81883">
        <ele>1000.3891601562</ele>
        <time>2013-03-31T09:08:06Z</time>
      </trkpt>
      <trkpt lat="42.8806" lon="1.81877">
        <ele>999.90844726562</ele>
        <time>2013-03-31T09:08:13Z</time>
      </trkpt>
      <trkpt lat="42.88064" lon="1.81877">
        <ele>1000.8696289062</ele>
        <time>2013-03-31T09:08:15Z</time>
      </trkpt>
      <trkpt lat="42.88072" lon="1.8187">
        <ele>1003.2729492188</ele>
        <time>2013-03-31T09:08:22Z</time>
      </trkpt>
      <trkpt lat="42.88077" lon="1.81866">
        <ele>1004.2346191406</ele>
        <time>2013-03-31T09:08:26Z</time>
      </trkpt>
      <trkpt lat="42.88082" lon="1.8186">
        <ele>1005.1958007812</ele>
        <time>2013-03-31T09:08:32Z</time>
      </trkpt>
      <trkpt lat="42.88088" lon="1.81853">
        <ele>1006.6376953125</ele>
        <time>2013-03-31T09:08:38Z</time>
      </trkpt>
      <trkpt lat="42.88094" lon="1.81846">
        <ele>1006.6376953125</ele>
        <time>2013-03-31T09:08:44Z</time>
      </trkpt>
      <trkpt lat="42.88094" lon="1.81845">
        <ele>1007.1184082031</ele>
        <time>2013-03-31T09:08:45Z</time>
      </trkpt>
      <trkpt lat="42.88104" lon="1.81835">
        <ele>1008.5603027344</ele>
        <time>2013-03-31T09:08:53Z</time>
      </trkpt>
      <trkpt lat="42.88109" lon="1.81827">
        <ele>1010.4829101562</ele>
        <time>2013-03-31T09:08:58Z</time>
      </trkpt>
      <trkpt lat="42.88118" lon="1.81819">
        <ele>1010.0021972656</ele>
        <time>2013-03-31T09:09:05Z</time>
      </trkpt>
      <trkpt lat="42.88125" lon="1.81811">
        <ele>1011.4443359375</ele>
        <time>2013-03-31T09:09:11Z</time>
      </trkpt>
      <trkpt lat="42.88129" lon="1.81807">
        <ele>1013.3669433594</ele>
        <time>2013-03-31T09:09:15Z</time>
      </trkpt>
      <trkpt lat="42.88137" lon="1.818">
        <ele>1014.328125</ele>
        <time>2013-03-31T09:09:21Z</time>
      </trkpt>
      <trkpt lat="42.88142" lon="1.81795">
        <ele>1013.8474121094</ele>
        <time>2013-03-31T09:09:26Z</time>
      </trkpt>
      <trkpt lat="42.88152" lon="1.81784">
        <ele>1015.2895507812</ele>
        <time>2013-03-31T09:09:35Z</time>
      </trkpt>
      <trkpt lat="42.88155" lon="1.8178">
        <ele>1015.7702636719</ele>
        <time>2013-03-31T09:09:38Z</time>
      </trkpt>
      <trkpt lat="42.8816" lon="1.81775">
        <ele>1015.7702636719</ele>
        <time>2013-03-31T09:09:43Z</time>
      </trkpt>
      <trkpt lat="42.88167" lon="1.81768">
        <ele>1016.7314453125</ele>
        <time>2013-03-31T09:09:49Z</time>
      </trkpt>
      <trkpt lat="42.88171" lon="1.81763">
        <ele>1019.134765625</ele>
        <time>2013-03-31T09:09:54Z</time>
      </trkpt>
      <trkpt lat="42.8818" lon="1.81752">
        <ele>1022.0187988281</ele>
        <time>2013-03-31T09:10:03Z</time>
      </trkpt>
      <trkpt lat="42.88186" lon="1.81744">
        <ele>1023.4609375</ele>
        <time>2013-03-31T09:10:10Z</time>
      </trkpt>
      <trkpt lat="42.88192" lon="1.81739">
        <ele>1024.9028320312</ele>
        <time>2013-03-31T09:10:16Z</time>
      </trkpt>
      <trkpt lat="42.88197" lon="1.81735">
        <ele>1025.3833007812</ele>
        <time>2013-03-31T09:10:21Z</time>
      </trkpt>
      <trkpt lat="42.88208" lon="1.81728">
        <ele>1027.3061523438</ele>
        <time>2013-03-31T09:10:30Z</time>
      </trkpt>
      <trkpt lat="42.88219" lon="1.81722">
        <ele>1029.7092285156</ele>
        <time>2013-03-31T09:10:38Z</time>
      </trkpt>
      <trkpt lat="42.88221" lon="1.8172">
        <ele>1029.7092285156</ele>
        <time>2013-03-31T09:10:40Z</time>
      </trkpt>
      <trkpt lat="42.88231" lon="1.81715">
        <ele>1031.6318359375</ele>
        <time>2013-03-31T09:10:47Z</time>
      </trkpt>
      <trkpt lat="42.88238" lon="1.81715">
        <ele>1033.0737304688</ele>
        <time>2013-03-31T09:10:54Z</time>
      </trkpt>
      <trkpt lat="42.88241" lon="1.81714">
        <ele>1033.5544433594</ele>
        <time>2013-03-31T09:11:00Z</time>
      </trkpt>
      <trkpt lat="42.88242" lon="1.81715">
        <ele>1034.03515625</ele>
        <time>2013-03-31T09:11:09Z</time>
      </trkpt>
      <trkpt lat="42.88242" lon="1.81714">
        <ele>1034.9965820312</ele>
        <time>2013-03-31T09:11:19Z</time>
      </trkpt>
      <trkpt lat="42.88242" lon="1.81713">
        <ele>1035.4770507812</ele>
        <time>2013-03-31T09:11:26Z</time>
      </trkpt>
      <trkpt lat="42.88241" lon="1.81714">
        <ele>1034.9965820312</ele>
        <time>2013-03-31T09:11:37Z</time>
      </trkpt>
      <trkpt lat="42.88242" lon="1.81715">
        <ele>1034.9965820312</ele>
        <time>2013-03-31T09:11:43Z</time>
      </trkpt>
      <trkpt lat="42.88245" lon="1.81718">
        <ele>1034.5158691406</ele>
        <time>2013-03-31T09:11:48Z</time>
      </trkpt>
      <trkpt lat="42.88248" lon="1.81719">
        <ele>1035.4770507812</ele>
        <time>2013-03-31T09:11:52Z</time>
      </trkpt>
      <trkpt lat="42.88258" lon="1.81718">
        <ele>1035.4770507812</ele>
        <time>2013-03-31T09:11:58Z</time>
      </trkpt>
      <trkpt lat="42.88261" lon="1.81717">
        <ele>1034.9965820312</ele>
        <time>2013-03-31T09:11:59Z</time>
      </trkpt>
      <trkpt lat="42.88264" lon="1.81703">
        <ele>1034.03515625</ele>
        <time>2013-03-31T09:12:04Z</time>
      </trkpt>
      <trkpt lat="42.88266" lon="1.8169">
        <ele>1034.03515625</ele>
        <time>2013-03-31T09:12:09Z</time>
      </trkpt>
      <trkpt lat="42.88269" lon="1.81682">
        <ele>1032.5932617188</ele>
        <time>2013-03-31T09:12:12Z</time>
      </trkpt>
      <trkpt lat="42.88281" lon="1.81667">
        <ele>1030.1899414062</ele>
        <time>2013-03-31T09:12:17Z</time>
      </trkpt>
      <trkpt lat="42.88293" lon="1.81653">
        <ele>1029.228515625</ele>
        <time>2013-03-31T09:12:21Z</time>
      </trkpt>
      <trkpt lat="42.88305" lon="1.81639">
        <ele>1028.748046875</ele>
        <time>2013-03-31T09:12:25Z</time>
      </trkpt>
      <trkpt lat="42.88314" lon="1.81627">
        <ele>1024.9028320312</ele>
        <time>2013-03-31T09:12:29Z</time>
      </trkpt>
      <trkpt lat="42.88328" lon="1.81619">
        <ele>1022.0187988281</ele>
        <time>2013-03-31T09:12:34Z</time>
      </trkpt>
      <trkpt lat="42.88336" lon="1.81611">
        <ele>1016.7314453125</ele>
        <time>2013-03-31T09:12:38Z</time>
      </trkpt>
      <trkpt lat="42.88348" lon="1.81603">
        <ele>1007.1184082031</ele>
        <time>2013-03-31T09:12:42Z</time>
      </trkpt>
      <trkpt lat="42.88363" lon="1.81599">
        <ele>1001.8310546875</ele>
        <time>2013-03-31T09:12:46Z</time>
      </trkpt>
      <trkpt lat="42.88377" lon="1.81596">
        <ele>997.0244140625</ele>
        <time>2013-03-31T09:12:51Z</time>
      </trkpt>
      <trkpt lat="42.88382" lon="1.81603">
        <ele>994.62109375</ele>
        <time>2013-03-31T09:12:56Z</time>
      </trkpt>
      <trkpt lat="42.8838" lon="1.81614">
        <ele>990.29541015625</ele>
        <time>2013-03-31T09:13:00Z</time>
      </trkpt>
      <trkpt lat="42.88376" lon="1.81627">
        <ele>985.00805664062</ele>
        <time>2013-03-31T09:13:05Z</time>
      </trkpt>
      <trkpt lat="42.88376" lon="1.81632">
        <ele>985.96923828125</ele>
        <time>2013-03-31T09:13:07Z</time>
      </trkpt>
      <trkpt lat="42.88377" lon="1.81638">
        <ele>985.00805664062</ele>
        <time>2013-03-31T09:13:09Z</time>
      </trkpt>
      <trkpt lat="42.88376" lon="1.81654">
        <ele>986.93041992188</ele>
        <time>2013-03-31T09:13:14Z</time>
      </trkpt>
      <trkpt lat="42.88376" lon="1.81661">
        <ele>987.4111328125</ele>
        <time>2013-03-31T09:13:16Z</time>
      </trkpt>
      <trkpt lat="42.88385" lon="1.81656">
        <ele>982.60473632812</ele>
        <time>2013-03-31T09:13:21Z</time>
      </trkpt>
      <trkpt lat="42.88394" lon="1.81645">
        <ele>977.79809570312</ele>
        <time>2013-03-31T09:13:26Z</time>
      </trkpt>
      <trkpt lat="42.88403" lon="1.81638">
        <ele>977.31762695312</ele>
        <time>2013-03-31T09:13:30Z</time>
      </trkpt>
      <trkpt lat="42.88411" lon="1.81632">
        <ele>975.39477539062</ele>
        <time>2013-03-31T09:13:34Z</time>
      </trkpt>
      <trkpt lat="42.88414" lon="1.81627">
        <ele>973.47241210938</ele>
        <time>2013-03-31T09:13:36Z</time>
      </trkpt>
      <trkpt lat="42.8842" lon="1.81617">
        <ele>971.54931640625</ele>
        <time>2013-03-31T09:13:40Z</time>
      </trkpt>
      <trkpt lat="42.88431" lon="1.81596">
        <ele>973.47241210938</ele>
        <time>2013-03-31T09:13:47Z</time>
      </trkpt>
      <trkpt lat="42.88432" lon="1.81593">
        <ele>973.95288085938</ele>
        <time>2013-03-31T09:13:48Z</time>
      </trkpt>
      <trkpt lat="42.88442" lon="1.81583">
        <ele>968.66552734375</ele>
        <time>2013-03-31T09:13:53Z</time>
      </trkpt>
      <trkpt lat="42.88447" lon="1.81582">
        <ele>964.33959960938</ele>
        <time>2013-03-31T09:13:56Z</time>
      </trkpt>
      <trkpt lat="42.88449" lon="1.81579">
        <ele>961.9365234375</ele>
        <time>2013-03-31T09:13:58Z</time>
      </trkpt>
      <trkpt lat="42.88461" lon="1.81578">
        <ele>959.05249023438</ele>
        <time>2013-03-31T09:14:03Z</time>
      </trkpt>
      <trkpt lat="42.88482" lon="1.81582">
        <ele>955.20703125</ele>
        <time>2013-03-31T09:14:09Z</time>
      </trkpt>
      <trkpt lat="42.88498" lon="1.81574">
        <ele>951.84252929688</ele>
        <time>2013-03-31T09:14:13Z</time>
      </trkpt>
      <trkpt lat="42.88504" lon="1.81567">
        <ele>952.32299804688</ele>
        <time>2013-03-31T09:14:15Z</time>
      </trkpt>
      <trkpt lat="42.88525" lon="1.81556">
        <ele>949.919921875</ele>
        <time>2013-03-31T09:14:22Z</time>
      </trkpt>
      <trkpt lat="42.88539" lon="1.81544">
        <ele>949.919921875</ele>
        <time>2013-03-31T09:14:28Z</time>
      </trkpt>
      <trkpt lat="42.88551" lon="1.81539">
        <ele>945.59399414062</ele>
        <time>2013-03-31T09:14:33Z</time>
      </trkpt>
      <trkpt lat="42.88567" lon="1.81528">
        <ele>940.30688476562</ele>
        <time>2013-03-31T09:14:38Z</time>
      </trkpt>
      <trkpt lat="42.88573" lon="1.81523">
        <ele>938.38403320312</ele>
        <time>2013-03-31T09:14:40Z</time>
      </trkpt>
      <trkpt lat="42.8858" lon="1.8152">
        <ele>937.42260742188</ele>
        <time>2013-03-31T09:14:42Z</time>
      </trkpt>
      <trkpt lat="42.8859" lon="1.8151">
        <ele>934.05810546875</ele>
        <time>2013-03-31T09:14:47Z</time>
      </trkpt>
      <trkpt lat="42.88599" lon="1.81496">
        <ele>926.36767578125</ele>
        <time>2013-03-31T09:14:53Z</time>
      </trkpt>
      <trkpt lat="42.88601" lon="1.81494">
        <ele>925.40625</ele>
        <time>2013-03-31T09:14:54Z</time>
      </trkpt>
      <trkpt lat="42.88615" lon="1.81492">
        <ele>922.52221679688</ele>
        <time>2013-03-31T09:14:59Z</time>
      </trkpt>
      <trkpt lat="42.88619" lon="1.81492">
        <ele>922.52221679688</ele>
        <time>2013-03-31T09:15:00Z</time>
      </trkpt>
      <trkpt lat="42.88639" lon="1.81486">
        <ele>923.0029296875</ele>
        <time>2013-03-31T09:15:05Z</time>
      </trkpt>
      <trkpt lat="42.88642" lon="1.81485">
        <ele>923.0029296875</ele>
        <time>2013-03-31T09:15:06Z</time>
      </trkpt>
      <trkpt lat="42.88653" lon="1.81484">
        <ele>923.48364257812</ele>
        <time>2013-03-31T09:15:11Z</time>
      </trkpt>
      <trkpt lat="42.88657" lon="1.81484">
        <ele>923.96411132812</ele>
        <time>2013-03-31T09:15:13Z</time>
      </trkpt>
      <trkpt lat="42.88662" lon="1.81486">
        <ele>921.56079101562</ele>
        <time>2013-03-31T09:15:15Z</time>
      </trkpt>
      <trkpt lat="42.88672" lon="1.81488">
        <ele>920.11889648438</ele>
        <time>2013-03-31T09:15:20Z</time>
      </trkpt>
      <trkpt lat="42.88678" lon="1.81484">
        <ele>918.1962890625</ele>
        <time>2013-03-31T09:15:24Z</time>
      </trkpt>
      <trkpt lat="42.88681" lon="1.81481">
        <ele>916.75439453125</ele>
        <time>2013-03-31T09:15:26Z</time>
      </trkpt>
      <trkpt lat="42.88689" lon="1.81478">
        <ele>913.38989257812</ele>
        <time>2013-03-31T09:15:30Z</time>
      </trkpt>
      <trkpt lat="42.88704" lon="1.81477">
        <ele>909.06396484375</ele>
        <time>2013-03-31T09:15:36Z</time>
      </trkpt>
      <trkpt lat="42.88713" lon="1.81474">
        <ele>911.94799804688</ele>
        <time>2013-03-31T09:15:43Z</time>
      </trkpt>
      <trkpt lat="42.88725" lon="1.81473">
        <ele>910.02514648438</ele>
        <time>2013-03-31T09:15:49Z</time>
      </trkpt>
      <trkpt lat="42.88726" lon="1.81473">
        <ele>909.54467773438</ele>
        <time>2013-03-31T09:15:50Z</time>
      </trkpt>
      <trkpt lat="42.88734" lon="1.81475">
        <ele>909.54467773438</ele>
        <time>2013-03-31T09:15:56Z</time>
      </trkpt>
      <trkpt lat="42.88735" lon="1.81476">
        <ele>906.66040039062</ele>
        <time>2013-03-31T09:16:00Z</time>
      </trkpt>
      <trkpt lat="42.88741" lon="1.81479">
        <ele>905.21850585938</ele>
        <time>2013-03-31T09:16:03Z</time>
      </trkpt>
      <trkpt lat="42.88745" lon="1.81483">
        <ele>902.81518554688</ele>
        <time>2013-03-31T09:16:08Z</time>
      </trkpt>
      <trkpt lat="42.88747" lon="1.81479">
        <ele>900.412109375</ele>
        <time>2013-03-31T09:16:12Z</time>
      </trkpt>
      <trkpt lat="42.88748" lon="1.81474">
        <ele>898.4892578125</ele>
        <time>2013-03-31T09:16:16Z</time>
      </trkpt>
      <trkpt lat="42.88751" lon="1.8147">
        <ele>897.52807617188</ele>
        <time>2013-03-31T09:16:20Z</time>
      </trkpt>
      <trkpt lat="42.8875" lon="1.81469">
        <ele>897.52807617188</ele>
        <time>2013-03-31T09:16:21Z</time>
      </trkpt>
      <trkpt lat="42.8875" lon="1.81463">
        <ele>895.60546875</ele>
        <time>2013-03-31T09:16:26Z</time>
      </trkpt>
      <trkpt lat="42.88753" lon="1.81461">
        <ele>897.04736328125</ele>
        <time>2013-03-31T09:16:30Z</time>
      </trkpt>
      <trkpt lat="42.88759" lon="1.81456">
        <ele>899.45068359375</ele>
        <time>2013-03-31T09:16:36Z</time>
      </trkpt>
      <trkpt lat="42.8876" lon="1.81454">
        <ele>899.93139648438</ele>
        <time>2013-03-31T09:16:38Z</time>
      </trkpt>
      <trkpt lat="42.88763" lon="1.81446">
        <ele>902.33447265625</ele>
        <time>2013-03-31T09:16:43Z</time>
      </trkpt>
      <trkpt lat="42.88765" lon="1.81445">
        <ele>901.85400390625</ele>
        <time>2013-03-31T09:16:45Z</time>
      </trkpt>
      <trkpt lat="42.88768" lon="1.81444">
        <ele>902.81518554688</ele>
        <time>2013-03-31T09:16:47Z</time>
      </trkpt>
      <trkpt lat="42.88772" lon="1.81433">
        <ele>903.2958984375</ele>
        <time>2013-03-31T09:16:52Z</time>
      </trkpt>
      <trkpt lat="42.88776" lon="1.81422">
        <ele>904.25732421875</ele>
        <time>2013-03-31T09:16:56Z</time>
      </trkpt>
      <trkpt lat="42.88779" lon="1.81417">
        <ele>905.21850585938</ele>
        <time>2013-03-31T09:16:58Z</time>
      </trkpt>
      <trkpt lat="42.88783" lon="1.81415">
        <ele>906.1796875</ele>
        <time>2013-03-31T09:17:01Z</time>
      </trkpt>
      <trkpt lat="42.8879" lon="1.81408">
        <ele>905.69921875</ele>
        <time>2013-03-31T09:17:06Z</time>
      </trkpt>
      <trkpt lat="42.88795" lon="1.81402">
        <ele>905.21850585938</ele>
        <time>2013-03-31T09:17:11Z</time>
      </trkpt>
      <trkpt lat="42.888" lon="1.81399">
        <ele>904.73779296875</ele>
        <time>2013-03-31T09:17:14Z</time>
      </trkpt>
      <trkpt lat="42.8881" lon="1.81389">
        <ele>904.25732421875</ele>
        <time>2013-03-31T09:17:20Z</time>
      </trkpt>
      <trkpt lat="42.88815" lon="1.81384">
        <ele>901.85400390625</ele>
        <time>2013-03-31T09:17:25Z</time>
      </trkpt>
      <trkpt lat="42.88815" lon="1.81383">
        <ele>899.93139648438</ele>
        <time>2013-03-31T09:17:27Z</time>
      </trkpt>
      <trkpt lat="42.88817" lon="1.81373">
        <ele>897.52807617188</ele>
        <time>2013-03-31T09:17:32Z</time>
      </trkpt>
      <trkpt lat="42.8882" lon="1.81364">
        <ele>897.04736328125</ele>
        <time>2013-03-31T09:17:36Z</time>
      </trkpt>
      <trkpt lat="42.88824" lon="1.81361">
        <ele>898.4892578125</ele>
        <time>2013-03-31T09:17:43Z</time>
      </trkpt>
      <trkpt lat="42.88825" lon="1.81358">
        <ele>900.892578125</ele>
        <time>2013-03-31T09:17:48Z</time>
      </trkpt>
      <trkpt lat="42.88823" lon="1.81354">
        <ele>904.25732421875</ele>
        <time>2013-03-31T09:17:56Z</time>
      </trkpt>
      <trkpt lat="42.88824" lon="1.81346">
        <ele>903.2958984375</ele>
        <time>2013-03-31T09:18:02Z</time>
      </trkpt>
      <trkpt lat="42.88825" lon="1.81344">
        <ele>903.77661132812</ele>
        <time>2013-03-31T09:18:03Z</time>
      </trkpt>
      <trkpt lat="42.88824" lon="1.81339">
        <ele>903.77661132812</ele>
        <time>2013-03-31T09:18:08Z</time>
      </trkpt>
      <trkpt lat="42.88825" lon="1.81333">
        <ele>904.25732421875</ele>
        <time>2013-03-31T09:18:14Z</time>
      </trkpt>
      <trkpt lat="42.88823" lon="1.8133">
        <ele>905.69921875</ele>
        <time>2013-03-31T09:18:19Z</time>
      </trkpt>
      <trkpt lat="42.88821" lon="1.81325">
        <ele>905.21850585938</ele>
        <time>2013-03-31T09:18:24Z</time>
      </trkpt>
      <trkpt lat="42.88821" lon="1.81319">
        <ele>905.21850585938</ele>
        <time>2013-03-31T09:18:29Z</time>
      </trkpt>
      <trkpt lat="42.88821" lon="1.81315">
        <ele>905.69921875</ele>
        <time>2013-03-31T09:18:32Z</time>
      </trkpt>
      <trkpt lat="42.8882" lon="1.81313">
        <ele>905.69921875</ele>
        <time>2013-03-31T09:18:34Z</time>
      </trkpt>
      <trkpt lat="42.88819" lon="1.81308">
        <ele>904.25732421875</ele>
        <time>2013-03-31T09:18:39Z</time>
      </trkpt>
      <trkpt lat="42.88822" lon="1.81302">
        <ele>905.21850585938</ele>
        <time>2013-03-31T09:18:42Z</time>
      </trkpt>
      <trkpt lat="42.88831" lon="1.81292">
        <ele>905.69921875</ele>
        <time>2013-03-31T09:18:47Z</time>
      </trkpt>
      <trkpt lat="42.88845" lon="1.81287">
        <ele>908.58325195312</ele>
        <time>2013-03-31T09:18:51Z</time>
      </trkpt>
      <trkpt lat="42.88858" lon="1.81283">
        <ele>909.54467773438</ele>
        <time>2013-03-31T09:18:56Z</time>
      </trkpt>
      <trkpt lat="42.88871" lon="1.8128">
        <ele>909.06396484375</ele>
        <time>2013-03-31T09:19:00Z</time>
      </trkpt>
      <trkpt lat="42.88873" lon="1.81279">
        <ele>908.58325195312</ele>
        <time>2013-03-31T09:19:01Z</time>
      </trkpt>
      <trkpt lat="42.88888" lon="1.81275">
        <ele>902.81518554688</ele>
        <time>2013-03-31T09:19:07Z</time>
      </trkpt>
      <trkpt lat="42.88897" lon="1.81273">
        <ele>899.45068359375</ele>
        <time>2013-03-31T09:19:11Z</time>
      </trkpt>
      <trkpt lat="42.88907" lon="1.8127">
        <ele>896.56689453125</ele>
        <time>2013-03-31T09:19:15Z</time>
      </trkpt>
      <trkpt lat="42.88912" lon="1.81273">
        <ele>890.31811523438</ele>
        <time>2013-03-31T09:19:18Z</time>
      </trkpt>
      <trkpt lat="42.88914" lon="1.81274">
        <ele>888.87622070312</ele>
        <time>2013-03-31T09:19:19Z</time>
      </trkpt>
      <trkpt lat="42.88926" lon="1.81276">
        <ele>886.95336914062</ele>
        <time>2013-03-31T09:19:23Z</time>
      </trkpt>
      <trkpt lat="42.88939" lon="1.8128">
        <ele>884.55029296875</ele>
        <time>2013-03-31T09:19:29Z</time>
      </trkpt>
      <trkpt lat="42.88945" lon="1.81282">
        <ele>881.66625976562</ele>
        <time>2013-03-31T09:19:32Z</time>
      </trkpt>
      <trkpt lat="42.88964" lon="1.81286">
        <ele>879.26293945312</ele>
        <time>2013-03-31T09:19:38Z</time>
      </trkpt>
      <trkpt lat="42.88977" lon="1.81288">
        <ele>877.34057617188</ele>
        <time>2013-03-31T09:19:42Z</time>
      </trkpt>
      <trkpt lat="42.8899" lon="1.81286">
        <ele>875.89819335938</ele>
        <time>2013-03-31T09:19:46Z</time>
      </trkpt>
      <trkpt lat="42.88994" lon="1.81283">
        <ele>874.45629882812</ele>
        <time>2013-03-31T09:19:49Z</time>
      </trkpt>
      <trkpt lat="42.89001" lon="1.81275">
        <ele>872.53369140625</ele>
        <time>2013-03-31T09:19:54Z</time>
      </trkpt>
      <trkpt lat="42.89004" lon="1.81273">
        <ele>870.61108398438</ele>
        <time>2013-03-31T09:19:56Z</time>
      </trkpt>
      <trkpt lat="42.89016" lon="1.81261">
        <ele>865.32397460938</ele>
        <time>2013-03-31T09:20:02Z</time>
      </trkpt>
      <trkpt lat="42.89028" lon="1.81256">
        <ele>861.95947265625</ele>
        <time>2013-03-31T09:20:06Z</time>
      </trkpt>
      <trkpt lat="42.89041" lon="1.81244">
        <ele>860.51733398438</ele>
        <time>2013-03-31T09:20:11Z</time>
      </trkpt>
      <trkpt lat="42.89051" lon="1.81239">
        <ele>860.998046875</ele>
        <time>2013-03-31T09:20:14Z</time>
      </trkpt>
      <trkpt lat="42.8906" lon="1.81236">
        <ele>862.43994140625</ele>
        <time>2013-03-31T09:20:16Z</time>
      </trkpt>
      <trkpt lat="42.89081" lon="1.81224">
        <ele>866.28515625</ele>
        <time>2013-03-31T09:20:22Z</time>
      </trkpt>
      <trkpt lat="42.89091" lon="1.81208">
        <ele>865.8046875</ele>
        <time>2013-03-31T09:20:27Z</time>
      </trkpt>
      <trkpt lat="42.89096" lon="1.8119">
        <ele>866.76586914062</ele>
        <time>2013-03-31T09:20:32Z</time>
      </trkpt>
      <trkpt lat="42.89101" lon="1.81174">
        <ele>864.36254882812</ele>
        <time>2013-03-31T09:20:36Z</time>
      </trkpt>
      <trkpt lat="42.89106" lon="1.8115">
        <ele>861.47875976562</ele>
        <time>2013-03-31T09:20:41Z</time>
      </trkpt>
      <trkpt lat="42.89114" lon="1.81134">
        <ele>860.998046875</ele>
        <time>2013-03-31T09:20:45Z</time>
      </trkpt>
      <trkpt lat="42.89127" lon="1.81117">
        <ele>860.03662109375</ele>
        <time>2013-03-31T09:20:50Z</time>
      </trkpt>
      <trkpt lat="42.89139" lon="1.81101">
        <ele>859.0751953125</ele>
        <time>2013-03-31T09:20:55Z</time>
      </trkpt>
      <trkpt lat="42.89147" lon="1.81091">
        <ele>857.63330078125</ele>
        <time>2013-03-31T09:20:58Z</time>
      </trkpt>
      <trkpt lat="42.89157" lon="1.81072">
        <ele>856.19116210938</ele>
        <time>2013-03-31T09:21:03Z</time>
      </trkpt>
      <trkpt lat="42.89164" lon="1.81053">
        <ele>856.19116210938</ele>
        <time>2013-03-31T09:21:07Z</time>
      </trkpt>
      <trkpt lat="42.8917" lon="1.81037">
        <ele>856.19116210938</ele>
        <time>2013-03-31T09:21:11Z</time>
      </trkpt>
      <trkpt lat="42.89174" lon="1.81023">
        <ele>856.671875</ele>
        <time>2013-03-31T09:21:14Z</time>
      </trkpt>
      <trkpt lat="42.8918" lon="1.81001">
        <ele>857.63330078125</ele>
        <time>2013-03-31T09:21:19Z</time>
      </trkpt>
      <trkpt lat="42.89188" lon="1.80989">
        <ele>857.63330078125</ele>
        <time>2013-03-31T09:21:23Z</time>
      </trkpt>
      <trkpt lat="42.89193" lon="1.80973">
        <ele>855.71069335938</ele>
        <time>2013-03-31T09:21:27Z</time>
      </trkpt>
      <trkpt lat="42.89202" lon="1.80955">
        <ele>855.71069335938</ele>
        <time>2013-03-31T09:21:32Z</time>
      </trkpt>
      <trkpt lat="42.89209" lon="1.8094">
        <ele>855.71069335938</ele>
        <time>2013-03-31T09:21:36Z</time>
      </trkpt>
      <trkpt lat="42.89223" lon="1.8093">
        <ele>854.26879882812</ele>
        <time>2013-03-31T09:21:41Z</time>
      </trkpt>
      <trkpt lat="42.89239" lon="1.80924">
        <ele>852.82666015625</ele>
        <time>2013-03-31T09:21:46Z</time>
      </trkpt>
      <trkpt lat="42.89249" lon="1.80923">
        <ele>851.384765625</ele>
        <time>2013-03-31T09:21:50Z</time>
      </trkpt>
      <trkpt lat="42.89256" lon="1.80933">
        <ele>849.94287109375</ele>
        <time>2013-03-31T09:21:55Z</time>
      </trkpt>
      <trkpt lat="42.89268" lon="1.80939">
        <ele>849.46215820312</ele>
        <time>2013-03-31T09:22:01Z</time>
      </trkpt>
      <trkpt lat="42.8927" lon="1.8094">
        <ele>848.9814453125</ele>
        <time>2013-03-31T09:22:02Z</time>
      </trkpt>
      <trkpt lat="42.89288" lon="1.80942">
        <ele>848.02026367188</ele>
        <time>2013-03-31T09:22:08Z</time>
      </trkpt>
      <trkpt lat="42.89304" lon="1.80942">
        <ele>844.17504882812</ele>
        <time>2013-03-31T09:22:13Z</time>
      </trkpt>
      <trkpt lat="42.8932" lon="1.80945">
        <ele>840.32958984375</ele>
        <time>2013-03-31T09:22:18Z</time>
      </trkpt>
      <trkpt lat="42.89335" lon="1.80948">
        <ele>839.3681640625</ele>
        <time>2013-03-31T09:22:23Z</time>
      </trkpt>
      <trkpt lat="42.8934" lon="1.80952">
        <ele>838.8876953125</ele>
        <time>2013-03-31T09:22:26Z</time>
      </trkpt>
      <trkpt lat="42.89351" lon="1.80951">
        <ele>837.44555664062</ele>
        <time>2013-03-31T09:22:31Z</time>
      </trkpt>
      <trkpt lat="42.89355" lon="1.80952">
        <ele>836.484375</ele>
        <time>2013-03-31T09:22:33Z</time>
      </trkpt>
      <trkpt lat="42.89369" lon="1.80957">
        <ele>842.73291015625</ele>
        <time>2013-03-31T09:22:39Z</time>
      </trkpt>
      <trkpt lat="42.89378" lon="1.80963">
        <ele>845.61694335938</ele>
        <time>2013-03-31T09:22:44Z</time>
      </trkpt>
      <trkpt lat="42.89397" lon="1.80981">
        <ele>842.73291015625</ele>
        <time>2013-03-31T09:22:51Z</time>
      </trkpt>
      <trkpt lat="42.894" lon="1.80995">
        <ele>835.04248046875</ele>
        <time>2013-03-31T09:22:55Z</time>
      </trkpt>
      <trkpt lat="42.894" lon="1.81007">
        <ele>830.71655273438</ele>
        <time>2013-03-31T09:22:59Z</time>
      </trkpt>
      <trkpt lat="42.89404" lon="1.81017">
        <ele>824.4677734375</ele>
        <time>2013-03-31T09:23:04Z</time>
      </trkpt>
      <trkpt lat="42.89407" lon="1.81025">
        <ele>818.69995117188</ele>
        <time>2013-03-31T09:23:08Z</time>
      </trkpt>
      <trkpt lat="42.8941" lon="1.81038">
        <ele>812.45141601562</ele>
        <time>2013-03-31T09:23:12Z</time>
      </trkpt>
      <trkpt lat="42.8941" lon="1.81042">
        <ele>810.52856445312</ele>
        <time>2013-03-31T09:23:13Z</time>
      </trkpt>
      <trkpt lat="42.89408" lon="1.81055">
        <ele>807.64477539062</ele>
        <time>2013-03-31T09:23:17Z</time>
      </trkpt>
      <trkpt lat="42.89415" lon="1.81079">
        <ele>807.64477539062</ele>
        <time>2013-03-31T09:23:23Z</time>
      </trkpt>
      <trkpt lat="42.89421" lon="1.81089">
        <ele>807.1640625</ele>
        <time>2013-03-31T09:23:26Z</time>
      </trkpt>
      <trkpt lat="42.89428" lon="1.811">
        <ele>806.20263671875</ele>
        <time>2013-03-31T09:23:30Z</time>
      </trkpt>
      <trkpt lat="42.89429" lon="1.81104">
        <ele>806.20263671875</ele>
        <time>2013-03-31T09:23:31Z</time>
      </trkpt>
      <trkpt lat="42.89431" lon="1.8112">
        <ele>804.2802734375</ele>
        <time>2013-03-31T09:23:36Z</time>
      </trkpt>
      <trkpt lat="42.89436" lon="1.8113">
        <ele>804.2802734375</ele>
        <time>2013-03-31T09:23:40Z</time>
      </trkpt>
      <trkpt lat="42.89443" lon="1.81142">
        <ele>804.7607421875</ele>
        <time>2013-03-31T09:23:45Z</time>
      </trkpt>
      <trkpt lat="42.89446" lon="1.8115">
        <ele>802.357421875</ele>
        <time>2013-03-31T09:23:49Z</time>
      </trkpt>
      <trkpt lat="42.89451" lon="1.81154">
        <ele>802.357421875</ele>
        <time>2013-03-31T09:23:52Z</time>
      </trkpt>
      <trkpt lat="42.8946" lon="1.81163">
        <ele>800.91552734375</ele>
        <time>2013-03-31T09:23:58Z</time>
      </trkpt>
      <trkpt lat="42.8947" lon="1.81173">
        <ele>794.18627929688</ele>
        <time>2013-03-31T09:24:03Z</time>
      </trkpt>
      <trkpt lat="42.8948" lon="1.81183">
        <ele>790.82153320312</ele>
        <time>2013-03-31T09:24:08Z</time>
      </trkpt>
      <trkpt lat="42.89488" lon="1.81197">
        <ele>786.01513671875</ele>
        <time>2013-03-31T09:24:13Z</time>
      </trkpt>
      <trkpt lat="42.89491" lon="1.81201">
        <ele>786.49584960938</ele>
        <time>2013-03-31T09:24:15Z</time>
      </trkpt>
      <trkpt lat="42.89495" lon="1.81198">
        <ele>784.5732421875</ele>
        <time>2013-03-31T09:24:19Z</time>
      </trkpt>
      <trkpt lat="42.89499" lon="1.81188">
        <ele>784.5732421875</ele>
        <time>2013-03-31T09:24:23Z</time>
      </trkpt>
      <trkpt lat="42.89508" lon="1.81175">
        <ele>786.49584960938</ele>
        <time>2013-03-31T09:24:27Z</time>
      </trkpt>
      <trkpt lat="42.89512" lon="1.81158">
        <ele>788.41845703125</ele>
        <time>2013-03-31T09:24:32Z</time>
      </trkpt>
      <trkpt lat="42.89517" lon="1.81137">
        <ele>789.8603515625</ele>
        <time>2013-03-31T09:24:38Z</time>
      </trkpt>
      <trkpt lat="42.89517" lon="1.81122">
        <ele>790.82153320312</ele>
        <time>2013-03-31T09:24:42Z</time>
      </trkpt>
      <trkpt lat="42.89521" lon="1.81105">
        <ele>795.1474609375</ele>
        <time>2013-03-31T09:24:49Z</time>
      </trkpt>
      <trkpt lat="42.89528" lon="1.811">
        <ele>791.30224609375</ele>
        <time>2013-03-31T09:24:53Z</time>
      </trkpt>
      <trkpt lat="42.89529" lon="1.81087">
        <ele>787.45703125</ele>
        <time>2013-03-31T09:24:57Z</time>
      </trkpt>
      <trkpt lat="42.89527" lon="1.81074">
        <ele>785.05395507812</ele>
        <time>2013-03-31T09:25:00Z</time>
      </trkpt>
      <trkpt lat="42.89524" lon="1.81062">
        <ele>782.169921875</ele>
        <time>2013-03-31T09:25:03Z</time>
      </trkpt>
      <trkpt lat="42.89512" lon="1.81044">
        <ele>772.556640625</ele>
        <time>2013-03-31T09:25:08Z</time>
      </trkpt>
      <trkpt lat="42.89507" lon="1.81038">
        <ele>768.71142578125</ele>
        <time>2013-03-31T09:25:10Z</time>
      </trkpt>
      <trkpt lat="42.8951" lon="1.81037">
        <ele>765.34692382812</ele>
        <time>2013-03-31T09:25:13Z</time>
      </trkpt>
      <trkpt lat="42.89522" lon="1.81048">
        <ele>761.02075195312</ele>
        <time>2013-03-31T09:25:19Z</time>
      </trkpt>
      <trkpt lat="42.89527" lon="1.81054">
        <ele>760.05932617188</ele>
        <time>2013-03-31T09:25:21Z</time>
      </trkpt>
      <trkpt lat="42.8954" lon="1.81068">
        <ele>760.05932617188</ele>
        <time>2013-03-31T09:25:27Z</time>
      </trkpt>
      <trkpt lat="42.89553" lon="1.81079">
        <ele>756.69482421875</ele>
        <time>2013-03-31T09:25:32Z</time>
      </trkpt>
      <trkpt lat="42.89565" lon="1.81086">
        <ele>756.21411132812</ele>
        <time>2013-03-31T09:25:37Z</time>
      </trkpt>
      <trkpt lat="42.89573" lon="1.8109">
        <ele>753.81103515625</ele>
        <time>2013-03-31T09:25:41Z</time>
      </trkpt>
      <trkpt lat="42.89581" lon="1.81096">
        <ele>748.04321289062</ele>
        <time>2013-03-31T09:25:46Z</time>
      </trkpt>
      <trkpt lat="42.89589" lon="1.81112">
        <ele>734.58471679688</ele>
        <time>2013-03-31T09:25:52Z</time>
      </trkpt>
      <trkpt lat="42.89594" lon="1.81124">
        <ele>727.85522460938</ele>
        <time>2013-03-31T09:25:57Z</time>
      </trkpt>
      <trkpt lat="42.89603" lon="1.81134">
        <ele>724.01000976562</ele>
        <time>2013-03-31T09:26:02Z</time>
      </trkpt>
      <trkpt lat="42.89614" lon="1.81141">
        <ele>718.72290039062</ele>
        <time>2013-03-31T09:26:07Z</time>
      </trkpt>
      <trkpt lat="42.89618" lon="1.81142">
        <ele>719.20361328125</ele>
        <time>2013-03-31T09:26:08Z</time>
      </trkpt>
      <trkpt lat="42.89632" lon="1.81149">
        <ele>716.31958007812</ele>
        <time>2013-03-31T09:26:13Z</time>
      </trkpt>
      <trkpt lat="42.89645" lon="1.81162">
        <ele>711.0322265625</ele>
        <time>2013-03-31T09:26:19Z</time>
      </trkpt>
      <trkpt lat="42.89649" lon="1.81175">
        <ele>705.7451171875</ele>
        <time>2013-03-31T09:26:23Z</time>
      </trkpt>
      <trkpt lat="42.89657" lon="1.81188">
        <ele>696.61254882812</ele>
        <time>2013-03-31T09:26:28Z</time>
      </trkpt>
      <trkpt lat="42.89666" lon="1.812">
        <ele>690.36401367188</ele>
        <time>2013-03-31T09:26:33Z</time>
      </trkpt>
      <trkpt lat="42.89673" lon="1.8121">
        <ele>686.0380859375</ele>
        <time>2013-03-31T09:26:37Z</time>
      </trkpt>
      <trkpt lat="42.89677" lon="1.81221">
        <ele>679.78930664062</ele>
        <time>2013-03-31T09:26:41Z</time>
      </trkpt>
      <trkpt lat="42.8968" lon="1.81228">
        <ele>676.4248046875</ele>
        <time>2013-03-31T09:26:44Z</time>
      </trkpt>
      <trkpt lat="42.8969" lon="1.81223">
        <ele>673.541015625</ele>
        <time>2013-03-31T09:26:50Z</time>
      </trkpt>
      <trkpt lat="42.89697" lon="1.8121">
        <ele>673.06030273438</ele>
        <time>2013-03-31T09:26:55Z</time>
      </trkpt>
      <trkpt lat="42.89706" lon="1.81201">
        <ele>675.94409179688</ele>
        <time>2013-03-31T09:26:59Z</time>
      </trkpt>
      <trkpt lat="42.89714" lon="1.81202">
        <ele>674.50219726562</ele>
        <time>2013-03-31T09:27:06Z</time>
      </trkpt>
      <trkpt lat="42.8972" lon="1.81211">
        <ele>670.65698242188</ele>
        <time>2013-03-31T09:27:10Z</time>
      </trkpt>
      <trkpt lat="42.89727" lon="1.81228">
        <ele>664.88891601562</ele>
        <time>2013-03-31T09:27:15Z</time>
      </trkpt>
      <trkpt lat="42.89738" lon="1.81244">
        <ele>663.92749023438</ele>
        <time>2013-03-31T09:27:20Z</time>
      </trkpt>
      <trkpt lat="42.89743" lon="1.81254">
        <ele>662.48559570312</ele>
        <time>2013-03-31T09:27:23Z</time>
      </trkpt>
      <trkpt lat="42.89757" lon="1.81256">
        <ele>661.04370117188</ele>
        <time>2013-03-31T09:27:28Z</time>
      </trkpt>
      <trkpt lat="42.89769" lon="1.81245">
        <ele>652.39184570312</ele>
        <time>2013-03-31T09:27:34Z</time>
      </trkpt>
      <trkpt lat="42.89772" lon="1.81245">
        <ele>651.43041992188</ele>
        <time>2013-03-31T09:27:35Z</time>
      </trkpt>
      <trkpt lat="42.89784" lon="1.8124">
        <ele>648.06591796875</ele>
        <time>2013-03-31T09:27:40Z</time>
      </trkpt>
      <trkpt lat="42.89788" lon="1.81236">
        <ele>641.33666992188</ele>
        <time>2013-03-31T09:27:45Z</time>
      </trkpt>
      <trkpt lat="42.8979" lon="1.81236">
        <ele>638.93359375</ele>
        <time>2013-03-31T09:27:48Z</time>
      </trkpt>
      <trkpt lat="42.89795" lon="1.8123">
        <ele>634.12670898438</ele>
        <time>2013-03-31T09:27:54Z</time>
      </trkpt>
      <trkpt lat="42.89798" lon="1.81223">
        <ele>630.28149414062</ele>
        <time>2013-03-31T09:27:58Z</time>
      </trkpt>
      <trkpt lat="42.89808" lon="1.81216">
        <ele>625.95556640625</ele>
        <time>2013-03-31T09:28:02Z</time>
      </trkpt>
      <trkpt lat="42.8982" lon="1.81205">
        <ele>619.70703125</ele>
        <time>2013-03-31T09:28:07Z</time>
      </trkpt>
      <trkpt lat="42.89832" lon="1.81199">
        <ele>616.82299804688</ele>
        <time>2013-03-31T09:28:11Z</time>
      </trkpt>
      <trkpt lat="42.89839" lon="1.81198">
        <ele>613.93896484375</ele>
        <time>2013-03-31T09:28:14Z</time>
      </trkpt>
      <trkpt lat="42.8985" lon="1.81196">
        <ele>608.65185546875</ele>
        <time>2013-03-31T09:28:20Z</time>
      </trkpt>
      <trkpt lat="42.89863" lon="1.81195">
        <ele>607.69067382812</ele>
        <time>2013-03-31T09:28:25Z</time>
      </trkpt>
      <trkpt lat="42.89868" lon="1.81192">
        <ele>606.72924804688</ele>
        <time>2013-03-31T09:28:27Z</time>
      </trkpt>
      <trkpt lat="42.89882" lon="1.81176">
        <ele>606.24853515625</ele>
        <time>2013-03-31T09:28:32Z</time>
      </trkpt>
      <trkpt lat="42.89919" lon="1.81157">
        <ele>634.607421875</ele>
        <time>2013-03-31T09:28:38Z</time>
      </trkpt>
      <trkpt lat="42.89936" lon="1.81148">
        <ele>638.45288085938</ele>
        <time>2013-03-31T09:28:43Z</time>
      </trkpt>
      <trkpt lat="42.89957" lon="1.81143">
        <ele>641.33666992188</ele>
        <time>2013-03-31T09:28:49Z</time>
      </trkpt>
      <trkpt lat="42.89964" lon="1.81143">
        <ele>641.8173828125</ele>
        <time>2013-03-31T09:28:51Z</time>
      </trkpt>
      <trkpt lat="42.89969" lon="1.81145">
        <ele>643.25927734375</ele>
        <time>2013-03-31T09:28:53Z</time>
      </trkpt>
      <trkpt lat="42.8998" lon="1.8116">
        <ele>641.8173828125</ele>
        <time>2013-03-31T09:28:58Z</time>
      </trkpt>
      <trkpt lat="42.89996" lon="1.8117">
        <ele>640.85595703125</ele>
        <time>2013-03-31T09:29:03Z</time>
      </trkpt>
      <trkpt lat="42.90009" lon="1.81175">
        <ele>643.25927734375</ele>
        <time>2013-03-31T09:29:08Z</time>
      </trkpt>
      <trkpt lat="42.90012" lon="1.81176">
        <ele>643.25927734375</ele>
        <time>2013-03-31T09:29:09Z</time>
      </trkpt>
      <trkpt lat="42.90031" lon="1.81174">
        <ele>645.66259765625</ele>
        <time>2013-03-31T09:29:15Z</time>
      </trkpt>
      <trkpt lat="42.90044" lon="1.81173">
        <ele>649.98852539062</ele>
        <time>2013-03-31T09:29:19Z</time>
      </trkpt>
      <trkpt lat="42.90052" lon="1.81175">
        <ele>651.9111328125</ele>
        <time>2013-03-31T09:29:22Z</time>
      </trkpt>
      <trkpt lat="42.90059" lon="1.81177">
        <ele>653.833984375</ele>
        <time>2013-03-31T09:29:27Z</time>
      </trkpt>
      <trkpt lat="42.90065" lon="1.81178">
        <ele>654.31469726562</ele>
        <time>2013-03-31T09:29:32Z</time>
      </trkpt>
      <trkpt lat="42.90069" lon="1.81177">
        <ele>651.43041992188</ele>
        <time>2013-03-31T09:29:36Z</time>
      </trkpt>
      <trkpt lat="42.9007" lon="1.81177">
        <ele>646.6240234375</ele>
        <time>2013-03-31T09:29:41Z</time>
      </trkpt>
      <trkpt lat="42.90081" lon="1.81179">
        <ele>648.06591796875</ele>
        <time>2013-03-31T09:29:45Z</time>
      </trkpt>
      <trkpt lat="42.90096" lon="1.81185">
        <ele>647.58520507812</ele>
        <time>2013-03-31T09:29:50Z</time>
      </trkpt>
      <trkpt lat="42.90107" lon="1.81187">
        <ele>649.5078125</ele>
        <time>2013-03-31T09:29:54Z</time>
      </trkpt>
      <trkpt lat="42.90119" lon="1.81191">
        <ele>652.39184570312</ele>
        <time>2013-03-31T09:29:58Z</time>
      </trkpt>
      <trkpt lat="42.9013" lon="1.81193">
        <ele>649.5078125</ele>
        <time>2013-03-31T09:30:03Z</time>
      </trkpt>
      <trkpt lat="42.90133" lon="1.81194">
        <ele>648.54638671875</ele>
        <time>2013-03-31T09:30:04Z</time>
      </trkpt>
      <trkpt lat="42.90148" lon="1.81199">
        <ele>649.5078125</ele>
        <time>2013-03-31T09:30:08Z</time>
      </trkpt>
      <trkpt lat="42.90155" lon="1.81201">
        <ele>648.54638671875</ele>
        <time>2013-03-31T09:30:10Z</time>
      </trkpt>
      <trkpt lat="42.90165" lon="1.81203">
        <ele>642.77880859375</ele>
        <time>2013-03-31T09:30:14Z</time>
      </trkpt>
      <trkpt lat="42.90182" lon="1.81209">
        <ele>637.97216796875</ele>
        <time>2013-03-31T09:30:20Z</time>
      </trkpt>
      <trkpt lat="42.90192" lon="1.81213">
        <ele>635.56860351562</ele>
        <time>2013-03-31T09:30:24Z</time>
      </trkpt>
      <trkpt lat="42.90195" lon="1.81214">
        <ele>635.08813476562</ele>
        <time>2013-03-31T09:30:25Z</time>
      </trkpt>
      <trkpt lat="42.9021" lon="1.81217">
        <ele>632.68481445312</ele>
        <time>2013-03-31T09:30:30Z</time>
      </trkpt>
      <trkpt lat="42.90213" lon="1.81218">
        <ele>632.2041015625</ele>
        <time>2013-03-31T09:30:31Z</time>
      </trkpt>
      <trkpt lat="42.9022" lon="1.81228">
        <ele>630.76220703125</ele>
        <time>2013-03-31T09:30:35Z</time>
      </trkpt>
      <trkpt lat="42.90227" lon="1.81245">
        <ele>628.35888671875</ele>
        <time>2013-03-31T09:30:40Z</time>
      </trkpt>
      <trkpt lat="42.9023" lon="1.81253">
        <ele>628.35888671875</ele>
        <time>2013-03-31T09:30:42Z</time>
      </trkpt>
      <trkpt lat="42.9024" lon="1.81276">
        <ele>623.55249023438</ele>
        <time>2013-03-31T09:30:48Z</time>
      </trkpt>
      <trkpt lat="42.90249" lon="1.81297">
        <ele>621.14916992188</ele>
        <time>2013-03-31T09:30:53Z</time>
      </trkpt>
      <trkpt lat="42.9025" lon="1.81301">
        <ele>621.14916992188</ele>
        <time>2013-03-31T09:30:54Z</time>
      </trkpt>
      <trkpt lat="42.90255" lon="1.81322">
        <ele>620.18774414062</ele>
        <time>2013-03-31T09:30:59Z</time>
      </trkpt>
      <trkpt lat="42.90263" lon="1.81339">
        <ele>620.66845703125</ele>
        <time>2013-03-31T09:31:04Z</time>
      </trkpt>
      <trkpt lat="42.90273" lon="1.81352">
        <ele>621.62963867188</ele>
        <time>2013-03-31T09:31:09Z</time>
      </trkpt>
      <trkpt lat="42.90281" lon="1.81364">
        <ele>621.62963867188</ele>
        <time>2013-03-31T09:31:13Z</time>
      </trkpt>
      <trkpt lat="42.90287" lon="1.81379">
        <ele>621.14916992188</ele>
        <time>2013-03-31T09:31:17Z</time>
      </trkpt>
      <trkpt lat="42.90289" lon="1.81383">
        <ele>621.14916992188</ele>
        <time>2013-03-31T09:31:18Z</time>
      </trkpt>
      <trkpt lat="42.90298" lon="1.81406">
        <ele>624.513671875</ele>
        <time>2013-03-31T09:31:24Z</time>
      </trkpt>
      <trkpt lat="42.90306" lon="1.81425">
        <ele>624.99438476562</ele>
        <time>2013-03-31T09:31:30Z</time>
      </trkpt>
      <trkpt lat="42.90308" lon="1.81435">
        <ele>624.99438476562</ele>
        <time>2013-03-31T09:31:33Z</time>
      </trkpt>
      <trkpt lat="42.90311" lon="1.81446">
        <ele>624.99438476562</ele>
        <time>2013-03-31T09:31:37Z</time>
      </trkpt>
      <trkpt lat="42.90313" lon="1.8145">
        <ele>624.99438476562</ele>
        <time>2013-03-31T09:31:38Z</time>
      </trkpt>
      <trkpt lat="42.90321" lon="1.81467">
        <ele>624.03295898438</ele>
        <time>2013-03-31T09:31:43Z</time>
      </trkpt>
      <trkpt lat="42.90329" lon="1.81486">
        <ele>623.55249023438</ele>
        <time>2013-03-31T09:31:49Z</time>
      </trkpt>
      <trkpt lat="42.90332" lon="1.81494">
        <ele>624.03295898438</ele>
        <time>2013-03-31T09:31:52Z</time>
      </trkpt>
      <trkpt lat="42.90343" lon="1.81503">
        <ele>622.59106445312</ele>
        <time>2013-03-31T09:31:57Z</time>
      </trkpt>
      <trkpt lat="42.90356" lon="1.81516">
        <ele>621.14916992188</ele>
        <time>2013-03-31T09:32:03Z</time>
      </trkpt>
      <trkpt lat="42.90363" lon="1.81528">
        <ele>619.22631835938</ele>
        <time>2013-03-31T09:32:07Z</time>
      </trkpt>
      <trkpt lat="42.90374" lon="1.81545">
        <ele>619.22631835938</ele>
        <time>2013-03-31T09:32:12Z</time>
      </trkpt>
      <trkpt lat="42.90382" lon="1.81558">
        <ele>619.70703125</ele>
        <time>2013-03-31T09:32:16Z</time>
      </trkpt>
      <trkpt lat="42.90387" lon="1.81579">
        <ele>621.62963867188</ele>
        <time>2013-03-31T09:32:21Z</time>
      </trkpt>
      <trkpt lat="42.90388" lon="1.81594">
        <ele>622.1103515625</ele>
        <time>2013-03-31T09:32:25Z</time>
      </trkpt>
      <trkpt lat="42.90391" lon="1.81609">
        <ele>620.66845703125</ele>
        <time>2013-03-31T09:32:29Z</time>
      </trkpt>
      <trkpt lat="42.90393" lon="1.81623">
        <ele>618.74560546875</ele>
        <time>2013-03-31T09:32:33Z</time>
      </trkpt>
      <trkpt lat="42.90396" lon="1.81637">
        <ele>616.82299804688</ele>
        <time>2013-03-31T09:32:37Z</time>
      </trkpt>
      <trkpt lat="42.904" lon="1.81654">
        <ele>616.34228515625</ele>
        <time>2013-03-31T09:32:42Z</time>
      </trkpt>
      <trkpt lat="42.90406" lon="1.81669">
        <ele>615.86181640625</ele>
        <time>2013-03-31T09:32:47Z</time>
      </trkpt>
      <trkpt lat="42.90409" lon="1.81684">
        <ele>615.86181640625</ele>
        <time>2013-03-31T09:32:51Z</time>
      </trkpt>
      <trkpt lat="42.90414" lon="1.81697">
        <ele>616.82299804688</ele>
        <time>2013-03-31T09:32:55Z</time>
      </trkpt>
      <trkpt lat="42.90417" lon="1.81707">
        <ele>617.3037109375</ele>
        <time>2013-03-31T09:32:58Z</time>
      </trkpt>
      <trkpt lat="42.90421" lon="1.81722">
        <ele>618.26489257812</ele>
        <time>2013-03-31T09:33:03Z</time>
      </trkpt>
      <trkpt lat="42.90425" lon="1.81736">
        <ele>621.62963867188</ele>
        <time>2013-03-31T09:33:07Z</time>
      </trkpt>
      <trkpt lat="42.90432" lon="1.8175">
        <ele>624.513671875</ele>
        <time>2013-03-31T09:33:11Z</time>
      </trkpt>
      <trkpt lat="42.90443" lon="1.81771">
        <ele>623.55249023438</ele>
        <time>2013-03-31T09:33:18Z</time>
      </trkpt>
      <trkpt lat="42.90451" lon="1.81787">
        <ele>621.62963867188</ele>
        <time>2013-03-31T09:33:23Z</time>
      </trkpt>
      <trkpt lat="42.90459" lon="1.81798">
        <ele>621.14916992188</ele>
        <time>2013-03-31T09:33:27Z</time>
      </trkpt>
      <trkpt lat="42.90461" lon="1.81819">
        <ele>619.22631835938</ele>
        <time>2013-03-31T09:33:33Z</time>
      </trkpt>
      <trkpt lat="42.90464" lon="1.81832">
        <ele>618.74560546875</ele>
        <time>2013-03-31T09:33:37Z</time>
      </trkpt>
      <trkpt lat="42.90466" lon="1.81836">
        <ele>618.74560546875</ele>
        <time>2013-03-31T09:33:38Z</time>
      </trkpt>
      <trkpt lat="42.90471" lon="1.81854">
        <ele>618.26489257812</ele>
        <time>2013-03-31T09:33:43Z</time>
      </trkpt>
      <trkpt lat="42.90473" lon="1.81861">
        <ele>618.74560546875</ele>
        <time>2013-03-31T09:33:45Z</time>
      </trkpt>
      <trkpt lat="42.90478" lon="1.81879">
        <ele>619.22631835938</ele>
        <time>2013-03-31T09:33:50Z</time>
      </trkpt>
      <trkpt lat="42.90488" lon="1.81894">
        <ele>623.55249023438</ele>
        <time>2013-03-31T09:33:55Z</time>
      </trkpt>
      <trkpt lat="42.90493" lon="1.81903">
        <ele>625.47485351562</ele>
        <time>2013-03-31T09:33:58Z</time>
      </trkpt>
      <trkpt lat="42.90503" lon="1.81917">
        <ele>622.59106445312</ele>
        <time>2013-03-31T09:34:03Z</time>
      </trkpt>
      <trkpt lat="42.90509" lon="1.81931">
        <ele>621.14916992188</ele>
        <time>2013-03-31T09:34:07Z</time>
      </trkpt>
      <trkpt lat="42.9051" lon="1.81935">
        <ele>620.66845703125</ele>
        <time>2013-03-31T09:34:08Z</time>
      </trkpt>
      <trkpt lat="42.90511" lon="1.81953">
        <ele>620.18774414062</ele>
        <time>2013-03-31T09:34:12Z</time>
      </trkpt>
      <trkpt lat="42.90514" lon="1.81968">
        <ele>619.70703125</ele>
        <time>2013-03-31T09:34:16Z</time>
      </trkpt>
      <trkpt lat="42.90515" lon="1.81976">
        <ele>618.74560546875</ele>
        <time>2013-03-31T09:34:18Z</time>
      </trkpt>
      <trkpt lat="42.90514" lon="1.8199">
        <ele>615.38110351562</ele>
        <time>2013-03-31T09:34:22Z</time>
      </trkpt>
      <trkpt lat="42.90515" lon="1.82002">
        <ele>614.41967773438</ele>
        <time>2013-03-31T09:34:26Z</time>
      </trkpt>
      <trkpt lat="42.90518" lon="1.82008">
        <ele>616.34228515625</ele>
        <time>2013-03-31T09:34:28Z</time>
      </trkpt>
      <trkpt lat="42.90525" lon="1.82025">
        <ele>620.18774414062</ele>
        <time>2013-03-31T09:34:34Z</time>
      </trkpt>
      <trkpt lat="42.90527" lon="1.8203">
        <ele>622.59106445312</ele>
        <time>2013-03-31T09:34:36Z</time>
      </trkpt>
      <trkpt lat="42.90532" lon="1.82037">
        <ele>627.39770507812</ele>
        <time>2013-03-31T09:34:39Z</time>
      </trkpt>
      <trkpt lat="42.9054" lon="1.82053">
        <ele>630.76220703125</ele>
        <time>2013-03-31T09:34:45Z</time>
      </trkpt>
      <trkpt lat="42.90549" lon="1.82069">
        <ele>634.607421875</ele>
        <time>2013-03-31T09:34:50Z</time>
      </trkpt>
      <trkpt lat="42.90553" lon="1.82083">
        <ele>635.08813476562</ele>
        <time>2013-03-31T09:34:54Z</time>
      </trkpt>
      <trkpt lat="42.90557" lon="1.8209">
        <ele>636.5302734375</ele>
        <time>2013-03-31T09:34:56Z</time>
      </trkpt>
      <trkpt lat="42.90568" lon="1.82099">
        <ele>642.77880859375</ele>
        <time>2013-03-31T09:35:00Z</time>
      </trkpt>
      <trkpt lat="42.90571" lon="1.82108">
        <ele>642.77880859375</ele>
        <time>2013-03-31T09:35:03Z</time>
      </trkpt>
      <trkpt lat="42.90575" lon="1.82116">
        <ele>643.25927734375</ele>
        <time>2013-03-31T09:35:06Z</time>
      </trkpt>
      <trkpt lat="42.90582" lon="1.82129">
        <ele>639.89477539062</ele>
        <time>2013-03-31T09:35:11Z</time>
      </trkpt>
      <trkpt lat="42.90583" lon="1.82138">
        <ele>635.08813476562</ele>
        <time>2013-03-31T09:35:14Z</time>
      </trkpt>
      <trkpt lat="42.90586" lon="1.82151">
        <ele>628.83959960938</ele>
        <time>2013-03-31T09:35:19Z</time>
      </trkpt>
      <trkpt lat="42.90588" lon="1.82172">
        <ele>623.55249023438</ele>
        <time>2013-03-31T09:35:25Z</time>
      </trkpt>
      <trkpt lat="42.90588" lon="1.82179">
        <ele>621.14916992188</ele>
        <time>2013-03-31T09:35:27Z</time>
      </trkpt>
      <trkpt lat="42.90594" lon="1.82197">
        <ele>617.3037109375</ele>
        <time>2013-03-31T09:35:33Z</time>
      </trkpt>
      <trkpt lat="42.90598" lon="1.82212">
        <ele>615.38110351562</ele>
        <time>2013-03-31T09:35:38Z</time>
      </trkpt>
      <trkpt lat="42.90609" lon="1.82225">
        <ele>613.93896484375</ele>
        <time>2013-03-31T09:35:43Z</time>
      </trkpt>
      <trkpt lat="42.90622" lon="1.82237">
        <ele>612.4970703125</ele>
        <time>2013-03-31T09:35:48Z</time>
      </trkpt>
      <trkpt lat="42.90635" lon="1.82245">
        <ele>610.57446289062</ele>
        <time>2013-03-31T09:35:53Z</time>
      </trkpt>
      <trkpt lat="42.90648" lon="1.82254">
        <ele>609.13256835938</ele>
        <time>2013-03-31T09:35:58Z</time>
      </trkpt>
      <trkpt lat="42.90664" lon="1.82253">
        <ele>607.2099609375</ele>
        <time>2013-03-31T09:36:03Z</time>
      </trkpt>
      <trkpt lat="42.90679" lon="1.82255">
        <ele>608.65185546875</ele>
        <time>2013-03-31T09:36:07Z</time>
      </trkpt>
      <trkpt lat="42.90696" lon="1.82269">
        <ele>611.53588867188</ele>
        <time>2013-03-31T09:36:13Z</time>
      </trkpt>
      <trkpt lat="42.90703" lon="1.82276">
        <ele>614.41967773438</ele>
        <time>2013-03-31T09:36:16Z</time>
      </trkpt>
      <trkpt lat="42.90707" lon="1.82292">
        <ele>614.41967773438</ele>
        <time>2013-03-31T09:36:21Z</time>
      </trkpt>
      <trkpt lat="42.9071" lon="1.82309">
        <ele>612.97778320312</ele>
        <time>2013-03-31T09:36:26Z</time>
      </trkpt>
      <trkpt lat="42.90716" lon="1.82326">
        <ele>615.38110351562</ele>
        <time>2013-03-31T09:36:31Z</time>
      </trkpt>
      <trkpt lat="42.90724" lon="1.82343">
        <ele>617.3037109375</ele>
        <time>2013-03-31T09:36:36Z</time>
      </trkpt>
      <trkpt lat="42.90731" lon="1.82356">
        <ele>619.70703125</ele>
        <time>2013-03-31T09:36:40Z</time>
      </trkpt>
      <trkpt lat="42.90736" lon="1.82365">
        <ele>621.14916992188</ele>
        <time>2013-03-31T09:36:43Z</time>
      </trkpt>
      <trkpt lat="42.9074" lon="1.82376">
        <ele>621.62963867188</ele>
        <time>2013-03-31T09:36:49Z</time>
      </trkpt>
      <trkpt lat="42.90741" lon="1.82378">
        <ele>621.62963867188</ele>
        <time>2013-03-31T09:36:50Z</time>
      </trkpt>
      <trkpt lat="42.90742" lon="1.82381">
        <ele>622.1103515625</ele>
        <time>2013-03-31T09:36:52Z</time>
      </trkpt>
      <trkpt lat="42.90746" lon="1.82394">
        <ele>622.1103515625</ele>
        <time>2013-03-31T09:36:59Z</time>
      </trkpt>
      <trkpt lat="42.90745" lon="1.82407">
        <ele>620.18774414062</ele>
        <time>2013-03-31T09:37:05Z</time>
      </trkpt>
      <trkpt lat="42.90742" lon="1.82418">
        <ele>619.22631835938</ele>
        <time>2013-03-31T09:37:08Z</time>
      </trkpt>
      <trkpt lat="42.90741" lon="1.82422">
        <ele>619.22631835938</ele>
        <time>2013-03-31T09:37:09Z</time>
      </trkpt>
      <trkpt lat="42.90738" lon="1.82449">
        <ele>617.3037109375</ele>
        <time>2013-03-31T09:37:16Z</time>
      </trkpt>
      <trkpt lat="42.90737" lon="1.8247">
        <ele>617.3037109375</ele>
        <time>2013-03-31T09:37:21Z</time>
      </trkpt>
      <trkpt lat="42.90738" lon="1.82485">
        <ele>616.82299804688</ele>
        <time>2013-03-31T09:37:25Z</time>
      </trkpt>
      <trkpt lat="42.90737" lon="1.82501">
        <ele>616.82299804688</ele>
        <time>2013-03-31T09:37:29Z</time>
      </trkpt>
      <trkpt lat="42.90741" lon="1.82526">
        <ele>615.86181640625</ele>
        <time>2013-03-31T09:37:35Z</time>
      </trkpt>
      <trkpt lat="42.90742" lon="1.82542">
        <ele>615.86181640625</ele>
        <time>2013-03-31T09:37:39Z</time>
      </trkpt>
      <trkpt lat="42.90742" lon="1.82574">
        <ele>613.45849609375</ele>
        <time>2013-03-31T09:37:47Z</time>
      </trkpt>
      <trkpt lat="42.90742" lon="1.82593">
        <ele>612.97778320312</ele>
        <time>2013-03-31T09:37:53Z</time>
      </trkpt>
      <trkpt lat="42.9074" lon="1.82607">
        <ele>611.05517578125</ele>
        <time>2013-03-31T09:37:57Z</time>
      </trkpt>
      <trkpt lat="42.90736" lon="1.82622">
        <ele>611.05517578125</ele>
        <time>2013-03-31T09:38:01Z</time>
      </trkpt>
      <trkpt lat="42.90725" lon="1.8264">
        <ele>612.0166015625</ele>
        <time>2013-03-31T09:38:08Z</time>
      </trkpt>
      <trkpt lat="42.90717" lon="1.82651">
        <ele>611.53588867188</ele>
        <time>2013-03-31T09:38:12Z</time>
      </trkpt>
      <trkpt lat="42.9071" lon="1.82663">
        <ele>610.57446289062</ele>
        <time>2013-03-31T09:38:15Z</time>
      </trkpt>
      <trkpt lat="42.90718" lon="1.82672">
        <ele>612.0166015625</ele>
        <time>2013-03-31T09:38:19Z</time>
      </trkpt>
      <trkpt lat="42.90734" lon="1.82677">
        <ele>615.86181640625</ele>
        <time>2013-03-31T09:38:24Z</time>
      </trkpt>
      <trkpt lat="42.90747" lon="1.82679">
        <ele>615.38110351562</ele>
        <time>2013-03-31T09:38:29Z</time>
      </trkpt>
      <trkpt lat="42.90756" lon="1.8268">
        <ele>614.41967773438</ele>
        <time>2013-03-31T09:38:32Z</time>
      </trkpt>
      <trkpt lat="42.90771" lon="1.82679">
        <ele>616.34228515625</ele>
        <time>2013-03-31T09:38:37Z</time>
      </trkpt>
      <trkpt lat="42.90784" lon="1.82679">
        <ele>615.86181640625</ele>
        <time>2013-03-31T09:38:41Z</time>
      </trkpt>
      <trkpt lat="42.90788" lon="1.8268">
        <ele>616.34228515625</ele>
        <time>2013-03-31T09:38:42Z</time>
      </trkpt>
      <trkpt lat="42.90804" lon="1.827">
        <ele>611.05517578125</ele>
        <time>2013-03-31T09:38:49Z</time>
      </trkpt>
      <trkpt lat="42.90812" lon="1.82713">
        <ele>608.17138671875</ele>
        <time>2013-03-31T09:38:54Z</time>
      </trkpt>
      <trkpt lat="42.90818" lon="1.82725">
        <ele>606.24853515625</ele>
        <time>2013-03-31T09:38:58Z</time>
      </trkpt>
      <trkpt lat="42.90818" lon="1.82749">
        <ele>602.8837890625</ele>
        <time>2013-03-31T09:39:05Z</time>
      </trkpt>
      <trkpt lat="42.90813" lon="1.82768">
        <ele>602.8837890625</ele>
        <time>2013-03-31T09:39:12Z</time>
      </trkpt>
      <trkpt lat="42.90812" lon="1.82773">
        <ele>602.8837890625</ele>
        <time>2013-03-31T09:39:14Z</time>
      </trkpt>
      <trkpt lat="42.9082" lon="1.82787">
        <ele>603.36450195312</ele>
        <time>2013-03-31T09:39:19Z</time>
      </trkpt>
      <trkpt lat="42.90823" lon="1.8279">
        <ele>602.8837890625</ele>
        <time>2013-03-31T09:39:20Z</time>
      </trkpt>
      <trkpt lat="42.90831" lon="1.82799">
        <ele>601.92260742188</ele>
        <time>2013-03-31T09:39:24Z</time>
      </trkpt>
      <trkpt lat="42.90839" lon="1.82808">
        <ele>600.48071289062</ele>
        <time>2013-03-31T09:39:28Z</time>
      </trkpt>
      <trkpt lat="42.90841" lon="1.8281">
        <ele>600</ele>
        <time>2013-03-31T09:39:29Z</time>
      </trkpt>
      <trkpt lat="42.90852" lon="1.82819">
        <ele>597.5966796875</ele>
        <time>2013-03-31T09:39:34Z</time>
      </trkpt>
      <trkpt lat="42.90865" lon="1.82822">
        <ele>595.67407226562</ele>
        <time>2013-03-31T09:39:39Z</time>
      </trkpt>
      <trkpt lat="42.90874" lon="1.82825">
        <ele>593.75146484375</ele>
        <time>2013-03-31T09:39:43Z</time>
      </trkpt>
      <trkpt lat="42.90888" lon="1.82833">
        <ele>593.75146484375</ele>
        <time>2013-03-31T09:39:48Z</time>
      </trkpt>
      <trkpt lat="42.90899" lon="1.82852">
        <ele>593.75146484375</ele>
        <time>2013-03-31T09:39:54Z</time>
      </trkpt>
      <trkpt lat="42.90907" lon="1.82867">
        <ele>592.3095703125</ele>
        <time>2013-03-31T09:39:58Z</time>
      </trkpt>
      <trkpt lat="42.90909" lon="1.8287">
        <ele>591.82885742188</ele>
        <time>2013-03-31T09:39:59Z</time>
      </trkpt>
      <trkpt lat="42.90915" lon="1.82887">
        <ele>592.3095703125</ele>
        <time>2013-03-31T09:40:04Z</time>
      </trkpt>
      <trkpt lat="42.90917" lon="1.8289">
        <ele>592.3095703125</ele>
        <time>2013-03-31T09:40:05Z</time>
      </trkpt>
      <trkpt lat="42.90931" lon="1.82913">
        <ele>593.27075195312</ele>
        <time>2013-03-31T09:40:12Z</time>
      </trkpt>
      <trkpt lat="42.9094" lon="1.8293">
        <ele>593.27075195312</ele>
        <time>2013-03-31T09:40:17Z</time>
      </trkpt>
      <trkpt lat="42.90947" lon="1.82953">
        <ele>592.79028320312</ele>
        <time>2013-03-31T09:40:23Z</time>
      </trkpt>
      <trkpt lat="42.9095" lon="1.82967">
        <ele>591.82885742188</ele>
        <time>2013-03-31T09:40:27Z</time>
      </trkpt>
      <trkpt lat="42.90956" lon="1.82982">
        <ele>590.86743164062</ele>
        <time>2013-03-31T09:40:32Z</time>
      </trkpt>
      <trkpt lat="42.90965" lon="1.82996">
        <ele>592.3095703125</ele>
        <time>2013-03-31T09:40:37Z</time>
      </trkpt>
      <trkpt lat="42.90973" lon="1.83012">
        <ele>593.75146484375</ele>
        <time>2013-03-31T09:40:43Z</time>
      </trkpt>
      <trkpt lat="42.90983" lon="1.83026">
        <ele>594.23217773438</ele>
        <time>2013-03-31T09:40:47Z</time>
      </trkpt>
      <trkpt lat="42.90988" lon="1.83039">
        <ele>593.75146484375</ele>
        <time>2013-03-31T09:40:51Z</time>
      </trkpt>
      <trkpt lat="42.90997" lon="1.8305">
        <ele>592.79028320312</ele>
        <time>2013-03-31T09:40:55Z</time>
      </trkpt>
      <trkpt lat="42.91008" lon="1.83064">
        <ele>595.193359375</ele>
        <time>2013-03-31T09:41:00Z</time>
      </trkpt>
      <trkpt lat="42.91016" lon="1.83081">
        <ele>595.193359375</ele>
        <time>2013-03-31T09:41:05Z</time>
      </trkpt>
      <trkpt lat="42.9102" lon="1.831">
        <ele>590.86743164062</ele>
        <time>2013-03-31T09:41:10Z</time>
      </trkpt>
      <trkpt lat="42.91018" lon="1.83119">
        <ele>588.46435546875</ele>
        <time>2013-03-31T09:41:15Z</time>
      </trkpt>
      <trkpt lat="42.9102" lon="1.83134">
        <ele>587.02197265625</ele>
        <time>2013-03-31T09:41:19Z</time>
      </trkpt>
      <trkpt lat="42.91027" lon="1.83156">
        <ele>587.50268554688</ele>
        <time>2013-03-31T09:41:25Z</time>
      </trkpt>
      <trkpt lat="42.91036" lon="1.83172">
        <ele>589.42553710938</ele>
        <time>2013-03-31T09:41:30Z</time>
      </trkpt>
      <trkpt lat="42.91045" lon="1.83185">
        <ele>589.90625</ele>
        <time>2013-03-31T09:41:34Z</time>
      </trkpt>
      <trkpt lat="42.9105" lon="1.83201">
        <ele>590.86743164062</ele>
        <time>2013-03-31T09:41:39Z</time>
      </trkpt>
      <trkpt lat="42.9105" lon="1.83208">
        <ele>589.42553710938</ele>
        <time>2013-03-31T09:41:41Z</time>
      </trkpt>
      <trkpt lat="42.91049" lon="1.83222">
        <ele>587.50268554688</ele>
        <time>2013-03-31T09:41:45Z</time>
      </trkpt>
      <trkpt lat="42.9105" lon="1.83237">
        <ele>587.9833984375</ele>
        <time>2013-03-31T09:41:49Z</time>
      </trkpt>
      <trkpt lat="42.91051" lon="1.83241">
        <ele>587.9833984375</ele>
        <time>2013-03-31T09:41:50Z</time>
      </trkpt>
      <trkpt lat="42.91058" lon="1.83262">
        <ele>587.50268554688</ele>
        <time>2013-03-31T09:41:56Z</time>
      </trkpt>
      <trkpt lat="42.91059" lon="1.83265">
        <ele>587.50268554688</ele>
        <time>2013-03-31T09:41:57Z</time>
      </trkpt>
      <trkpt lat="42.91073" lon="1.83283">
        <ele>586.54150390625</ele>
        <time>2013-03-31T09:42:03Z</time>
      </trkpt>
      <trkpt lat="42.91074" lon="1.83286">
        <ele>586.54150390625</ele>
        <time>2013-03-31T09:42:04Z</time>
      </trkpt>
      <trkpt lat="42.91077" lon="1.83303">
        <ele>585.580078125</ele>
        <time>2013-03-31T09:42:09Z</time>
      </trkpt>
      <trkpt lat="42.91078" lon="1.83309">
        <ele>585.099609375</ele>
        <time>2013-03-31T09:42:11Z</time>
      </trkpt>
      <trkpt lat="42.91087" lon="1.83329">
        <ele>586.54150390625</ele>
        <time>2013-03-31T09:42:17Z</time>
      </trkpt>
      <trkpt lat="42.91092" lon="1.83342">
        <ele>587.02197265625</ele>
        <time>2013-03-31T09:42:21Z</time>
      </trkpt>
      <trkpt lat="42.91098" lon="1.83355">
        <ele>588.94506835938</ele>
        <time>2013-03-31T09:42:25Z</time>
      </trkpt>
      <trkpt lat="42.91103" lon="1.83368">
        <ele>589.42553710938</ele>
        <time>2013-03-31T09:42:29Z</time>
      </trkpt>
      <trkpt lat="42.9111" lon="1.83382">
        <ele>592.79028320312</ele>
        <time>2013-03-31T09:42:34Z</time>
      </trkpt>
      <trkpt lat="42.91119" lon="1.83398">
        <ele>597.11596679688</ele>
        <time>2013-03-31T09:42:39Z</time>
      </trkpt>
      <trkpt lat="42.91127" lon="1.83415">
        <ele>600.96118164062</ele>
        <time>2013-03-31T09:42:44Z</time>
      </trkpt>
      <trkpt lat="42.91136" lon="1.83429">
        <ele>604.326171875</ele>
        <time>2013-03-31T09:42:49Z</time>
      </trkpt>
      <trkpt lat="42.91144" lon="1.83446">
        <ele>601.92260742188</ele>
        <time>2013-03-31T09:42:54Z</time>
      </trkpt>
      <trkpt lat="42.91151" lon="1.83461">
        <ele>599.51928710938</ele>
        <time>2013-03-31T09:42:58Z</time>
      </trkpt>
      <trkpt lat="42.9116" lon="1.83474">
        <ele>598.07739257812</ele>
        <time>2013-03-31T09:43:02Z</time>
      </trkpt>
      <trkpt lat="42.91164" lon="1.8348">
        <ele>598.55786132812</ele>
        <time>2013-03-31T09:43:04Z</time>
      </trkpt>
      <trkpt lat="42.91168" lon="1.83495">
        <ele>593.27075195312</ele>
        <time>2013-03-31T09:43:09Z</time>
      </trkpt>
      <trkpt lat="42.91178" lon="1.83509">
        <ele>590.38696289062</ele>
        <time>2013-03-31T09:43:14Z</time>
      </trkpt>
      <trkpt lat="42.91182" lon="1.83515">
        <ele>589.42553710938</ele>
        <time>2013-03-31T09:43:16Z</time>
      </trkpt>
      <trkpt lat="42.91187" lon="1.83535">
        <ele>585.099609375</ele>
        <time>2013-03-31T09:43:22Z</time>
      </trkpt>
      <trkpt lat="42.91192" lon="1.83548">
        <ele>584.13818359375</ele>
        <time>2013-03-31T09:43:26Z</time>
      </trkpt>
      <trkpt lat="42.91199" lon="1.83563">
        <ele>583.65747070312</ele>
        <time>2013-03-31T09:43:31Z</time>
      </trkpt>
      <trkpt lat="42.91197" lon="1.83576">
        <ele>582.6962890625</ele>
        <time>2013-03-31T09:43:36Z</time>
      </trkpt>
      <trkpt lat="42.91189" lon="1.83584">
        <ele>583.65747070312</ele>
        <time>2013-03-31T09:43:40Z</time>
      </trkpt>
      <trkpt lat="42.91179" lon="1.83596">
        <ele>587.02197265625</ele>
        <time>2013-03-31T09:43:46Z</time>
      </trkpt>
      <trkpt lat="42.91171" lon="1.83606">
        <ele>587.02197265625</ele>
        <time>2013-03-31T09:43:52Z</time>
      </trkpt>
      <trkpt lat="42.91171" lon="1.83607">
        <ele>587.02197265625</ele>
        <time>2013-03-31T09:43:53Z</time>
      </trkpt>
      <trkpt lat="42.91167" lon="1.83619">
        <ele>587.50268554688</ele>
        <time>2013-03-31T09:44:00Z</time>
      </trkpt>
      <trkpt lat="42.9117" lon="1.8363">
        <ele>588.94506835938</ele>
        <time>2013-03-31T09:44:05Z</time>
      </trkpt>
      <trkpt lat="42.91174" lon="1.83643">
        <ele>591.82885742188</ele>
        <time>2013-03-31T09:44:10Z</time>
      </trkpt>
      <trkpt lat="42.91175" lon="1.83656">
        <ele>592.3095703125</ele>
        <time>2013-03-31T09:44:14Z</time>
      </trkpt>
      <trkpt lat="42.91177" lon="1.83677">
        <ele>590.86743164062</ele>
        <time>2013-03-31T09:44:21Z</time>
      </trkpt>
      <trkpt lat="42.91182" lon="1.83689">
        <ele>588.46435546875</ele>
        <time>2013-03-31T09:44:25Z</time>
      </trkpt>
      <trkpt lat="42.91195" lon="1.83706">
        <ele>588.46435546875</ele>
        <time>2013-03-31T09:44:32Z</time>
      </trkpt>
      <trkpt lat="42.91204" lon="1.83716">
        <ele>587.50268554688</ele>
        <time>2013-03-31T09:44:37Z</time>
      </trkpt>
      <trkpt lat="42.91218" lon="1.8373">
        <ele>587.50268554688</ele>
        <time>2013-03-31T09:44:42Z</time>
      </trkpt>
      <trkpt lat="42.91228" lon="1.83742">
        <ele>587.9833984375</ele>
        <time>2013-03-31T09:44:47Z</time>
      </trkpt>
      <trkpt lat="42.91236" lon="1.83756">
        <ele>587.9833984375</ele>
        <time>2013-03-31T09:44:52Z</time>
      </trkpt>
      <trkpt lat="42.91245" lon="1.83773">
        <ele>587.02197265625</ele>
        <time>2013-03-31T09:44:58Z</time>
      </trkpt>
      <trkpt lat="42.91253" lon="1.83785">
        <ele>589.90625</ele>
        <time>2013-03-31T09:45:03Z</time>
      </trkpt>
      <trkpt lat="42.9126" lon="1.83797">
        <ele>591.34814453125</ele>
        <time>2013-03-31T09:45:07Z</time>
      </trkpt>
      <trkpt lat="42.9127" lon="1.83808">
        <ele>592.3095703125</ele>
        <time>2013-03-31T09:45:12Z</time>
      </trkpt>
      <trkpt lat="42.91272" lon="1.83811">
        <ele>591.82885742188</ele>
        <time>2013-03-31T09:45:13Z</time>
      </trkpt>
      <trkpt lat="42.91283" lon="1.83823">
        <ele>591.82885742188</ele>
        <time>2013-03-31T09:45:18Z</time>
      </trkpt>
      <trkpt lat="42.91289" lon="1.83836">
        <ele>591.34814453125</ele>
        <time>2013-03-31T09:45:23Z</time>
      </trkpt>
      <trkpt lat="42.91294" lon="1.83851">
        <ele>590.86743164062</ele>
        <time>2013-03-31T09:45:28Z</time>
      </trkpt>
      <trkpt lat="42.91296" lon="1.83853">
        <ele>591.34814453125</ele>
        <time>2013-03-31T09:45:29Z</time>
      </trkpt>
      <trkpt lat="42.91307" lon="1.83873">
        <ele>591.34814453125</ele>
        <time>2013-03-31T09:45:36Z</time>
      </trkpt>
      <trkpt lat="42.91318" lon="1.83885">
        <ele>593.27075195312</ele>
        <time>2013-03-31T09:45:41Z</time>
      </trkpt>
      <trkpt lat="42.9132" lon="1.83897">
        <ele>591.82885742188</ele>
        <time>2013-03-31T09:45:45Z</time>
      </trkpt>
      <trkpt lat="42.91322" lon="1.83903">
        <ele>592.79028320312</ele>
        <time>2013-03-31T09:45:47Z</time>
      </trkpt>
      <trkpt lat="42.91328" lon="1.83915">
        <ele>591.82885742188</ele>
        <time>2013-03-31T09:45:53Z</time>
      </trkpt>
      <trkpt lat="42.91336" lon="1.83928">
        <ele>592.79028320312</ele>
        <time>2013-03-31T09:46:02Z</time>
      </trkpt>
      <trkpt lat="42.91337" lon="1.83929">
        <ele>593.75146484375</ele>
        <time>2013-03-31T09:46:03Z</time>
      </trkpt>
      <trkpt lat="42.9134" lon="1.83933">
        <ele>597.11596679688</ele>
        <time>2013-03-31T09:46:08Z</time>
      </trkpt>
      <trkpt lat="42.91343" lon="1.83947">
        <ele>594.71264648438</ele>
        <time>2013-03-31T09:46:14Z</time>
      </trkpt>
      <trkpt lat="42.91343" lon="1.83952">
        <ele>595.67407226562</ele>
        <time>2013-03-31T09:46:16Z</time>
      </trkpt>
      <trkpt lat="42.91344" lon="1.83963">
        <ele>594.23217773438</ele>
        <time>2013-03-31T09:46:22Z</time>
      </trkpt>
      <trkpt lat="42.91344" lon="1.83971">
        <ele>596.15478515625</ele>
        <time>2013-03-31T09:46:27Z</time>
      </trkpt>
      <trkpt lat="42.91345" lon="1.83974">
        <ele>598.07739257812</ele>
        <time>2013-03-31T09:46:29Z</time>
      </trkpt>
      <trkpt lat="42.9135" lon="1.83982">
        <ele>601.92260742188</ele>
        <time>2013-03-31T09:46:35Z</time>
      </trkpt>
      <trkpt lat="42.91353" lon="1.83987">
        <ele>604.326171875</ele>
        <time>2013-03-31T09:46:40Z</time>
      </trkpt>
      <trkpt lat="42.91356" lon="1.83992">
        <ele>604.326171875</ele>
        <time>2013-03-31T09:46:45Z</time>
      </trkpt>
      <trkpt lat="42.91362" lon="1.84">
        <ele>607.2099609375</ele>
        <time>2013-03-31T09:46:53Z</time>
      </trkpt>
      <trkpt lat="42.91365" lon="1.84005">
        <ele>604.806640625</ele>
        <time>2013-03-31T09:46:59Z</time>
      </trkpt>
      <trkpt lat="42.91368" lon="1.84012">
        <ele>601.44189453125</ele>
        <time>2013-03-31T09:47:05Z</time>
      </trkpt>
      <trkpt lat="42.91372" lon="1.84017">
        <ele>600</ele>
        <time>2013-03-31T09:47:09Z</time>
      </trkpt>
      <trkpt lat="42.91376" lon="1.84021">
        <ele>598.07739257812</ele>
        <time>2013-03-31T09:47:13Z</time>
      </trkpt>
      <trkpt lat="42.91384" lon="1.84034">
        <ele>597.5966796875</ele>
        <time>2013-03-31T09:47:18Z</time>
      </trkpt>
      <trkpt lat="42.9139" lon="1.84046">
        <ele>595.67407226562</ele>
        <time>2013-03-31T09:47:23Z</time>
      </trkpt>
      <trkpt lat="42.91397" lon="1.84059">
        <ele>593.75146484375</ele>
        <time>2013-03-31T09:47:27Z</time>
      </trkpt>
      <trkpt lat="42.91408" lon="1.84073">
        <ele>592.79028320312</ele>
        <time>2013-03-31T09:47:32Z</time>
      </trkpt>
      <trkpt lat="42.91421" lon="1.84093">
        <ele>593.75146484375</ele>
        <time>2013-03-31T09:47:39Z</time>
      </trkpt>
      <trkpt lat="42.91431" lon="1.84108">
        <ele>596.15478515625</ele>
        <time>2013-03-31T09:47:44Z</time>
      </trkpt>
      <trkpt lat="42.9144" lon="1.84118">
        <ele>598.07739257812</ele>
        <time>2013-03-31T09:47:48Z</time>
      </trkpt>
      <trkpt lat="42.91448" lon="1.84132">
        <ele>599.51928710938</ele>
        <time>2013-03-31T09:47:52Z</time>
      </trkpt>
      <trkpt lat="42.91458" lon="1.84143">
        <ele>599.03857421875</ele>
        <time>2013-03-31T09:47:56Z</time>
      </trkpt>
      <trkpt lat="42.91467" lon="1.84155">
        <ele>600.48071289062</ele>
        <time>2013-03-31T09:48:00Z</time>
      </trkpt>
      <trkpt lat="42.91478" lon="1.84163">
        <ele>600.96118164062</ele>
        <time>2013-03-31T09:48:04Z</time>
      </trkpt>
      <trkpt lat="42.91488" lon="1.84174">
        <ele>600.96118164062</ele>
        <time>2013-03-31T09:48:09Z</time>
      </trkpt>
      <trkpt lat="42.91501" lon="1.84184">
        <ele>601.92260742188</ele>
        <time>2013-03-31T09:48:13Z</time>
      </trkpt>
      <trkpt lat="42.91505" lon="1.84185">
        <ele>602.40307617188</ele>
        <time>2013-03-31T09:48:14Z</time>
      </trkpt>
      <trkpt lat="42.91519" lon="1.84199">
        <ele>600.96118164062</ele>
        <time>2013-03-31T09:48:20Z</time>
      </trkpt>
      <trkpt lat="42.9152" lon="1.84201">
        <ele>600.48071289062</ele>
        <time>2013-03-31T09:48:21Z</time>
      </trkpt>
      <trkpt lat="42.91526" lon="1.84209">
        <ele>598.55786132812</ele>
        <time>2013-03-31T09:48:24Z</time>
      </trkpt>
      <trkpt lat="42.9153" lon="1.84219">
        <ele>594.23217773438</ele>
        <time>2013-03-31T09:48:28Z</time>
      </trkpt>
      <trkpt lat="42.9154" lon="1.8423">
        <ele>590.38696289062</ele>
        <time>2013-03-31T09:48:33Z</time>
      </trkpt>
      <trkpt lat="42.91558" lon="1.84247">
        <ele>589.90625</ele>
        <time>2013-03-31T09:48:40Z</time>
      </trkpt>
      <trkpt lat="42.91572" lon="1.84263">
        <ele>589.42553710938</ele>
        <time>2013-03-31T09:48:47Z</time>
      </trkpt>
      <trkpt lat="42.91582" lon="1.8427">
        <ele>590.38696289062</ele>
        <time>2013-03-31T09:48:51Z</time>
      </trkpt>
      <trkpt lat="42.91596" lon="1.84278">
        <ele>588.46435546875</ele>
        <time>2013-03-31T09:48:55Z</time>
      </trkpt>
      <trkpt lat="42.91606" lon="1.84283">
        <ele>590.86743164062</ele>
        <time>2013-03-31T09:48:59Z</time>
      </trkpt>
      <trkpt lat="42.91615" lon="1.84292">
        <ele>590.38696289062</ele>
        <time>2013-03-31T09:49:03Z</time>
      </trkpt>
      <trkpt lat="42.91625" lon="1.84308">
        <ele>587.02197265625</ele>
        <time>2013-03-31T09:49:08Z</time>
      </trkpt>
      <trkpt lat="42.91627" lon="1.84311">
        <ele>586.06079101562</ele>
        <time>2013-03-31T09:49:09Z</time>
      </trkpt>
      <trkpt lat="42.91639" lon="1.84323">
        <ele>586.54150390625</ele>
        <time>2013-03-31T09:49:15Z</time>
      </trkpt>
      <trkpt lat="42.91648" lon="1.8433">
        <ele>586.54150390625</ele>
        <time>2013-03-31T09:49:19Z</time>
      </trkpt>
      <trkpt lat="42.9166" lon="1.84336">
        <ele>588.46435546875</ele>
        <time>2013-03-31T09:49:23Z</time>
      </trkpt>
      <trkpt lat="42.91672" lon="1.84342">
        <ele>588.94506835938</ele>
        <time>2013-03-31T09:49:27Z</time>
      </trkpt>
      <trkpt lat="42.91682" lon="1.8435">
        <ele>589.42553710938</ele>
        <time>2013-03-31T09:49:31Z</time>
      </trkpt>
      <trkpt lat="42.91696" lon="1.84364">
        <ele>587.50268554688</ele>
        <time>2013-03-31T09:49:36Z</time>
      </trkpt>
      <trkpt lat="42.91707" lon="1.84379">
        <ele>587.9833984375</ele>
        <time>2013-03-31T09:49:41Z</time>
      </trkpt>
      <trkpt lat="42.91717" lon="1.84393">
        <ele>587.02197265625</ele>
        <time>2013-03-31T09:49:45Z</time>
      </trkpt>
      <trkpt lat="42.91725" lon="1.84406">
        <ele>586.54150390625</ele>
        <time>2013-03-31T09:49:50Z</time>
      </trkpt>
      <trkpt lat="42.91738" lon="1.84414">
        <ele>586.54150390625</ele>
        <time>2013-03-31T09:49:55Z</time>
      </trkpt>
      <trkpt lat="42.91753" lon="1.84423">
        <ele>584.13818359375</ele>
        <time>2013-03-31T09:50:00Z</time>
      </trkpt>
      <trkpt lat="42.91761" lon="1.84432">
        <ele>584.61889648438</ele>
        <time>2013-03-31T09:50:04Z</time>
      </trkpt>
      <trkpt lat="42.91773" lon="1.8444">
        <ele>584.61889648438</ele>
        <time>2013-03-31T09:50:08Z</time>
      </trkpt>
      <trkpt lat="42.91784" lon="1.84451">
        <ele>583.65747070312</ele>
        <time>2013-03-31T09:50:13Z</time>
      </trkpt>
      <trkpt lat="42.91798" lon="1.84462">
        <ele>584.13818359375</ele>
        <time>2013-03-31T09:50:19Z</time>
      </trkpt>
      <trkpt lat="42.91808" lon="1.84469">
        <ele>584.13818359375</ele>
        <time>2013-03-31T09:50:23Z</time>
      </trkpt>
      <trkpt lat="42.91822" lon="1.8448">
        <ele>584.61889648438</ele>
        <time>2013-03-31T09:50:29Z</time>
      </trkpt>
      <trkpt lat="42.91837" lon="1.84484">
        <ele>585.580078125</ele>
        <time>2013-03-31T09:50:34Z</time>
      </trkpt>
      <trkpt lat="42.9184" lon="1.84484">
        <ele>585.099609375</ele>
        <time>2013-03-31T09:50:35Z</time>
      </trkpt>
      <trkpt lat="42.91856" lon="1.84487">
        <ele>586.06079101562</ele>
        <time>2013-03-31T09:50:40Z</time>
      </trkpt>
      <trkpt lat="42.91874" lon="1.84489">
        <ele>586.06079101562</ele>
        <time>2013-03-31T09:50:45Z</time>
      </trkpt>
      <trkpt lat="42.91886" lon="1.84493">
        <ele>585.099609375</ele>
        <time>2013-03-31T09:50:49Z</time>
      </trkpt>
      <trkpt lat="42.91901" lon="1.84496">
        <ele>584.61889648438</ele>
        <time>2013-03-31T09:50:53Z</time>
      </trkpt>
      <trkpt lat="42.9192" lon="1.84493">
        <ele>583.65747070312</ele>
        <time>2013-03-31T09:50:58Z</time>
      </trkpt>
      <trkpt lat="42.91938" lon="1.84492">
        <ele>581.25439453125</ele>
        <time>2013-03-31T09:51:03Z</time>
      </trkpt>
      <trkpt lat="42.91956" lon="1.84495">
        <ele>578.85107421875</ele>
        <time>2013-03-31T09:51:09Z</time>
      </trkpt>
      <trkpt lat="42.91971" lon="1.84497">
        <ele>575.486328125</ele>
        <time>2013-03-31T09:51:14Z</time>
      </trkpt>
      <trkpt lat="42.91986" lon="1.84499">
        <ele>572.6025390625</ele>
        <time>2013-03-31T09:51:19Z</time>
      </trkpt>
      <trkpt lat="42.91991" lon="1.84499">
        <ele>571.64086914062</ele>
        <time>2013-03-31T09:51:21Z</time>
      </trkpt>
      <trkpt lat="42.92007" lon="1.84499">
        <ele>569.71850585938</ele>
        <time>2013-03-31T09:51:28Z</time>
      </trkpt>
      <trkpt lat="42.92018" lon="1.84502">
        <ele>567.31518554688</ele>
        <time>2013-03-31T09:51:32Z</time>
      </trkpt>
      <trkpt lat="42.92025" lon="1.84504">
        <ele>564.91186523438</ele>
        <time>2013-03-31T09:51:35Z</time>
      </trkpt>
      <trkpt lat="42.92036" lon="1.84502">
        <ele>562.50854492188</ele>
        <time>2013-03-31T09:51:40Z</time>
      </trkpt>
      <trkpt lat="42.92041" lon="1.84503">
        <ele>561.54736328125</ele>
        <time>2013-03-31T09:51:42Z</time>
      </trkpt>
      <trkpt lat="42.92057" lon="1.84504">
        <ele>562.02807617188</ele>
        <time>2013-03-31T09:51:48Z</time>
      </trkpt>
      <trkpt lat="42.92066" lon="1.84506">
        <ele>561.54736328125</ele>
        <time>2013-03-31T09:51:52Z</time>
      </trkpt>
      <trkpt lat="42.92075" lon="1.84511">
        <ele>560.10522460938</ele>
        <time>2013-03-31T09:51:57Z</time>
      </trkpt>
      <trkpt lat="42.92079" lon="1.84513">
        <ele>559.62475585938</ele>
        <time>2013-03-31T09:51:59Z</time>
      </trkpt>
      <trkpt lat="42.92083" lon="1.84515">
        <ele>560.10522460938</ele>
        <time>2013-03-31T09:52:01Z</time>
      </trkpt>
      <trkpt lat="42.92092" lon="1.84523">
        <ele>562.02807617188</ele>
        <time>2013-03-31T09:52:06Z</time>
      </trkpt>
      <trkpt lat="42.92097" lon="1.84527">
        <ele>560.10522460938</ele>
        <time>2013-03-31T09:52:09Z</time>
      </trkpt>
      <trkpt lat="42.921" lon="1.8453">
        <ele>560.10522460938</ele>
        <time>2013-03-31T09:52:11Z</time>
      </trkpt>
      <trkpt lat="42.92113" lon="1.84538">
        <ele>559.14404296875</ele>
        <time>2013-03-31T09:52:17Z</time>
      </trkpt>
      <trkpt lat="42.92124" lon="1.84543">
        <ele>559.14404296875</ele>
        <time>2013-03-31T09:52:21Z</time>
      </trkpt>
      <trkpt lat="42.92136" lon="1.84548">
        <ele>559.14404296875</ele>
        <time>2013-03-31T09:52:26Z</time>
      </trkpt>
      <trkpt lat="42.92147" lon="1.84552">
        <ele>559.62475585938</ele>
        <time>2013-03-31T09:52:30Z</time>
      </trkpt>
      <trkpt lat="42.92159" lon="1.84558">
        <ele>559.14404296875</ele>
        <time>2013-03-31T09:52:35Z</time>
      </trkpt>
      <trkpt lat="42.9217" lon="1.84565">
        <ele>560.10522460938</ele>
        <time>2013-03-31T09:52:39Z</time>
      </trkpt>
      <trkpt lat="42.92184" lon="1.84568">
        <ele>566.35375976562</ele>
        <time>2013-03-31T09:52:44Z</time>
      </trkpt>
      <trkpt lat="42.92195" lon="1.84572">
        <ele>567.31518554688</ele>
        <time>2013-03-31T09:52:48Z</time>
      </trkpt>
      <trkpt lat="42.92206" lon="1.84577">
        <ele>565.87329101562</ele>
        <time>2013-03-31T09:52:52Z</time>
      </trkpt>
      <trkpt lat="42.92216" lon="1.8458">
        <ele>566.35375976562</ele>
        <time>2013-03-31T09:52:56Z</time>
      </trkpt>
      <trkpt lat="42.9223" lon="1.84584">
        <ele>567.79565429688</ele>
        <time>2013-03-31T09:53:02Z</time>
      </trkpt>
      <trkpt lat="42.92247" lon="1.84583">
        <ele>573.08325195312</ele>
        <time>2013-03-31T09:53:08Z</time>
      </trkpt>
      <trkpt lat="42.92263" lon="1.84582">
        <ele>576.44775390625</ele>
        <time>2013-03-31T09:53:13Z</time>
      </trkpt>
      <trkpt lat="42.92282" lon="1.84578">
        <ele>575.005859375</ele>
        <time>2013-03-31T09:53:19Z</time>
      </trkpt>
      <trkpt lat="42.92294" lon="1.84577">
        <ele>574.04443359375</ele>
        <time>2013-03-31T09:53:23Z</time>
      </trkpt>
      <trkpt lat="42.92307" lon="1.84577">
        <ele>571.64086914062</ele>
        <time>2013-03-31T09:53:27Z</time>
      </trkpt>
      <trkpt lat="42.92327" lon="1.84579">
        <ele>567.79565429688</ele>
        <time>2013-03-31T09:53:33Z</time>
      </trkpt>
      <trkpt lat="42.92339" lon="1.84583">
        <ele>563.95043945312</ele>
        <time>2013-03-31T09:53:37Z</time>
      </trkpt>
      <trkpt lat="42.92356" lon="1.84589">
        <ele>558.18286132812</ele>
        <time>2013-03-31T09:53:43Z</time>
      </trkpt>
      <trkpt lat="42.92371" lon="1.84593">
        <ele>554.81787109375</ele>
        <time>2013-03-31T09:53:48Z</time>
      </trkpt>
      <trkpt lat="42.92383" lon="1.84599">
        <ele>553.3759765625</ele>
        <time>2013-03-31T09:53:52Z</time>
      </trkpt>
      <trkpt lat="42.92396" lon="1.84607">
        <ele>552.41455078125</ele>
        <time>2013-03-31T09:53:57Z</time>
      </trkpt>
      <trkpt lat="42.92411" lon="1.8462">
        <ele>550.01147460938</ele>
        <time>2013-03-31T09:54:03Z</time>
      </trkpt>
      <trkpt lat="42.92422" lon="1.84625">
        <ele>550.97265625</ele>
        <time>2013-03-31T09:54:07Z</time>
      </trkpt>
      <trkpt lat="42.92434" lon="1.84632">
        <ele>546.64685058594</ele>
        <time>2013-03-31T09:54:12Z</time>
      </trkpt>
      <trkpt lat="42.92451" lon="1.84641">
        <ele>545.685546875</ele>
        <time>2013-03-31T09:54:19Z</time>
      </trkpt>
      <trkpt lat="42.92461" lon="1.84645">
        <ele>544.72424316406</ele>
        <time>2013-03-31T09:54:23Z</time>
      </trkpt>
      <trkpt lat="42.9247" lon="1.84647">
        <ele>546.16625976562</ele>
        <time>2013-03-31T09:54:27Z</time>
      </trkpt>
      <trkpt lat="42.92484" lon="1.84647">
        <ele>548.0888671875</ele>
        <time>2013-03-31T09:54:32Z</time>
      </trkpt>
      <trkpt lat="42.92494" lon="1.8465">
        <ele>547.12744140625</ele>
        <time>2013-03-31T09:54:36Z</time>
      </trkpt>
      <trkpt lat="42.92507" lon="1.84655">
        <ele>543.76281738281</ele>
        <time>2013-03-31T09:54:42Z</time>
      </trkpt>
      <trkpt lat="42.92524" lon="1.8466">
        <ele>542.80151367188</ele>
        <time>2013-03-31T09:54:48Z</time>
      </trkpt>
      <trkpt lat="42.92539" lon="1.84663">
        <ele>542.32092285156</ele>
        <time>2013-03-31T09:54:53Z</time>
      </trkpt>
      <trkpt lat="42.92555" lon="1.84663">
        <ele>543.76281738281</ele>
        <time>2013-03-31T09:54:58Z</time>
      </trkpt>
      <trkpt lat="42.92569" lon="1.84666">
        <ele>543.76281738281</ele>
        <time>2013-03-31T09:55:03Z</time>
      </trkpt>
      <trkpt lat="42.9258" lon="1.84668">
        <ele>542.80151367188</ele>
        <time>2013-03-31T09:55:07Z</time>
      </trkpt>
      <trkpt lat="42.92592" lon="1.84669">
        <ele>543.28210449219</ele>
        <time>2013-03-31T09:55:11Z</time>
      </trkpt>
      <trkpt lat="42.92607" lon="1.84671">
        <ele>543.28210449219</ele>
        <time>2013-03-31T09:55:16Z</time>
      </trkpt>
      <trkpt lat="42.9262" lon="1.8467">
        <ele>544.24365234375</ele>
        <time>2013-03-31T09:55:21Z</time>
      </trkpt>
      <trkpt lat="42.92639" lon="1.84665">
        <ele>546.64685058594</ele>
        <time>2013-03-31T09:55:27Z</time>
      </trkpt>
      <trkpt lat="42.92657" lon="1.84659">
        <ele>547.60815429688</ele>
        <time>2013-03-31T09:55:33Z</time>
      </trkpt>
      <trkpt lat="42.92677" lon="1.84649">
        <ele>545.685546875</ele>
        <time>2013-03-31T09:55:40Z</time>
      </trkpt>
      <trkpt lat="42.92694" lon="1.84637">
        <ele>544.72424316406</ele>
        <time>2013-03-31T09:55:46Z</time>
      </trkpt>
      <trkpt lat="42.92713" lon="1.84627">
        <ele>542.80151367188</ele>
        <time>2013-03-31T09:55:52Z</time>
      </trkpt>
      <trkpt lat="42.92726" lon="1.84625">
        <ele>541.35949707031</ele>
        <time>2013-03-31T09:55:56Z</time>
      </trkpt>
      <trkpt lat="42.9275" lon="1.84631">
        <ele>539.43688964844</ele>
        <time>2013-03-31T09:56:04Z</time>
      </trkpt>
      <trkpt lat="42.92765" lon="1.84637">
        <ele>538.95629882812</ele>
        <time>2013-03-31T09:56:09Z</time>
      </trkpt>
      <trkpt lat="42.92779" lon="1.84644">
        <ele>537.51428222656</ele>
        <time>2013-03-31T09:56:14Z</time>
      </trkpt>
      <trkpt lat="42.9279" lon="1.84651">
        <ele>535.59155273438</ele>
        <time>2013-03-31T09:56:18Z</time>
      </trkpt>
      <trkpt lat="42.92803" lon="1.84654">
        <ele>535.11096191406</ele>
        <time>2013-03-31T09:56:22Z</time>
      </trkpt>
      <trkpt lat="42.92817" lon="1.84663">
        <ele>532.70776367188</ele>
        <time>2013-03-31T09:56:27Z</time>
      </trkpt>
      <trkpt lat="42.9283" lon="1.84673">
        <ele>530.78515625</ele>
        <time>2013-03-31T09:56:32Z</time>
      </trkpt>
      <trkpt lat="42.92844" lon="1.84682">
        <ele>530.78515625</ele>
        <time>2013-03-31T09:56:37Z</time>
      </trkpt>
      <trkpt lat="42.92852" lon="1.84691">
        <ele>529.82373046875</ele>
        <time>2013-03-31T09:56:41Z</time>
      </trkpt>
      <trkpt lat="42.9287" lon="1.84701">
        <ele>531.26574707031</ele>
        <time>2013-03-31T09:56:47Z</time>
      </trkpt>
      <trkpt lat="42.92883" lon="1.8471">
        <ele>535.11096191406</ele>
        <time>2013-03-31T09:56:52Z</time>
      </trkpt>
      <trkpt lat="42.92894" lon="1.84719">
        <ele>538.95629882812</ele>
        <time>2013-03-31T09:56:56Z</time>
      </trkpt>
      <trkpt lat="42.92907" lon="1.84729">
        <ele>544.24365234375</ele>
        <time>2013-03-31T09:57:01Z</time>
      </trkpt>
      <trkpt lat="42.92924" lon="1.84739">
        <ele>545.685546875</ele>
        <time>2013-03-31T09:57:07Z</time>
      </trkpt>
      <trkpt lat="42.92938" lon="1.84748">
        <ele>546.16625976562</ele>
        <time>2013-03-31T09:57:12Z</time>
      </trkpt>
      <trkpt lat="42.92949" lon="1.84756">
        <ele>545.20483398438</ele>
        <time>2013-03-31T09:57:16Z</time>
      </trkpt>
      <trkpt lat="42.92964" lon="1.84765">
        <ele>545.685546875</ele>
        <time>2013-03-31T09:57:21Z</time>
      </trkpt>
      <trkpt lat="42.92975" lon="1.84773">
        <ele>546.16625976562</ele>
        <time>2013-03-31T09:57:25Z</time>
      </trkpt>
      <trkpt lat="42.92986" lon="1.84781">
        <ele>545.20483398438</ele>
        <time>2013-03-31T09:57:29Z</time>
      </trkpt>
      <trkpt lat="42.92995" lon="1.8479">
        <ele>544.24365234375</ele>
        <time>2013-03-31T09:57:33Z</time>
      </trkpt>
      <trkpt lat="42.93005" lon="1.848">
        <ele>543.28210449219</ele>
        <time>2013-03-31T09:57:37Z</time>
      </trkpt>
      <trkpt lat="42.93016" lon="1.8481">
        <ele>542.32092285156</ele>
        <time>2013-03-31T09:57:42Z</time>
      </trkpt>
      <trkpt lat="42.93028" lon="1.84818">
        <ele>541.35949707031</ele>
        <time>2013-03-31T09:57:47Z</time>
      </trkpt>
      <trkpt lat="42.93033" lon="1.84821">
        <ele>541.35949707031</ele>
        <time>2013-03-31T09:57:49Z</time>
      </trkpt>
      <trkpt lat="42.9305" lon="1.84828">
        <ele>542.32092285156</ele>
        <time>2013-03-31T09:57:55Z</time>
      </trkpt>
      <trkpt lat="42.93066" lon="1.84831">
        <ele>541.84020996094</ele>
        <time>2013-03-31T09:58:00Z</time>
      </trkpt>
      <trkpt lat="42.93081" lon="1.84833">
        <ele>538.47570800781</ele>
        <time>2013-03-31T09:58:05Z</time>
      </trkpt>
      <trkpt lat="42.93096" lon="1.84831">
        <ele>537.51428222656</ele>
        <time>2013-03-31T09:58:10Z</time>
      </trkpt>
      <trkpt lat="42.93108" lon="1.84832">
        <ele>535.59155273438</ele>
        <time>2013-03-31T09:58:14Z</time>
      </trkpt>
      <trkpt lat="42.93127" lon="1.84834">
        <ele>532.22705078125</ele>
        <time>2013-03-31T09:58:20Z</time>
      </trkpt>
      <trkpt lat="42.93145" lon="1.84839">
        <ele>530.78515625</ele>
        <time>2013-03-31T09:58:26Z</time>
      </trkpt>
      <trkpt lat="42.93163" lon="1.84836">
        <ele>528.3818359375</ele>
        <time>2013-03-31T09:58:32Z</time>
      </trkpt>
      <trkpt lat="42.93173" lon="1.84826">
        <ele>527.42041015625</ele>
        <time>2013-03-31T09:58:36Z</time>
      </trkpt>
      <trkpt lat="42.93174" lon="1.84822">
        <ele>527.42041015625</ele>
        <time>2013-03-31T09:58:37Z</time>
      </trkpt>
      <trkpt lat="42.93184" lon="1.84822">
        <ele>527.42041015625</ele>
        <time>2013-03-31T09:58:41Z</time>
      </trkpt>
      <trkpt lat="42.93198" lon="1.84834">
        <ele>529.82373046875</ele>
        <time>2013-03-31T09:58:47Z</time>
      </trkpt>
      <trkpt lat="42.93212" lon="1.84838">
        <ele>532.22705078125</ele>
        <time>2013-03-31T09:58:52Z</time>
      </trkpt>
      <trkpt lat="42.93227" lon="1.8484">
        <ele>534.63037109375</ele>
        <time>2013-03-31T09:58:57Z</time>
      </trkpt>
      <trkpt lat="42.93238" lon="1.84844">
        <ele>537.51428222656</ele>
        <time>2013-03-31T09:59:01Z</time>
      </trkpt>
      <trkpt lat="42.93252" lon="1.84843">
        <ele>541.35949707031</ele>
        <time>2013-03-31T09:59:06Z</time>
      </trkpt>
      <trkpt lat="42.93261" lon="1.84833">
        <ele>541.35949707031</ele>
        <time>2013-03-31T09:59:10Z</time>
      </trkpt>
      <trkpt lat="42.9327" lon="1.8483">
        <ele>542.80151367188</ele>
        <time>2013-03-31T09:59:13Z</time>
      </trkpt>
      <trkpt lat="42.93286" lon="1.84841">
        <ele>541.35949707031</ele>
        <time>2013-03-31T09:59:19Z</time>
      </trkpt>
      <trkpt lat="42.93293" lon="1.84848">
        <ele>541.35949707031</ele>
        <time>2013-03-31T09:59:22Z</time>
      </trkpt>
      <trkpt lat="42.93312" lon="1.84856">
        <ele>542.80151367188</ele>
        <time>2013-03-31T09:59:28Z</time>
      </trkpt>
      <trkpt lat="42.93327" lon="1.84867">
        <ele>541.35949707031</ele>
        <time>2013-03-31T09:59:33Z</time>
      </trkpt>
      <trkpt lat="42.9334" lon="1.84877">
        <ele>540.87890625</ele>
        <time>2013-03-31T09:59:38Z</time>
      </trkpt>
      <trkpt lat="42.93355" lon="1.84888">
        <ele>540.39831542969</ele>
        <time>2013-03-31T09:59:43Z</time>
      </trkpt>
      <trkpt lat="42.93369" lon="1.84899">
        <ele>537.99499511719</ele>
        <time>2013-03-31T09:59:48Z</time>
      </trkpt>
      <trkpt lat="42.93385" lon="1.8491">
        <ele>537.03369140625</ele>
        <time>2013-03-31T09:59:53Z</time>
      </trkpt>
      <trkpt lat="42.934" lon="1.84921">
        <ele>536.55310058594</ele>
        <time>2013-03-31T09:59:58Z</time>
      </trkpt>
      <trkpt lat="42.93413" lon="1.8493">
        <ele>538.47570800781</ele>
        <time>2013-03-31T10:00:02Z</time>
      </trkpt>
      <trkpt lat="42.93431" lon="1.84942">
        <ele>536.55310058594</ele>
        <time>2013-03-31T10:00:08Z</time>
      </trkpt>
      <trkpt lat="42.93447" lon="1.84952">
        <ele>538.47570800781</ele>
        <time>2013-03-31T10:00:13Z</time>
      </trkpt>
      <trkpt lat="42.9345" lon="1.84954">
        <ele>537.99499511719</ele>
        <time>2013-03-31T10:00:15Z</time>
      </trkpt>
    </trkseg>
  </trk>
</gpx>